Wetterdaten: Mittwoch, 18.10.2017
Datum Zeit Temp. A. Pool Temp. Feuchte A. Luftdruck Regen Wind Richtung Richtung Sonnenschein ET UV Solar Taupunkt Windchill Windben Empfang
18.10.2017 00:00 9,8 C 11,7 C 96 % 1018,0 hPa 0,0 l/m 1,2 km/h (1 Bft) SO 125 0 min 0,000 mm 0,0 UV-I 0 W/m 9,2 C 9,8 C 3,2 km/h (1 Bft) 100,00 %
18.10.2017 00:02 9,7 C 11,7 C 96 % 1018,1 hPa 0,0 l/m 1,9 km/h (1 Bft) SO 125 0 min 0,000 mm 0,0 UV-I 0 W/m 9,1 C 9,7 C 3,2 km/h (1 Bft) 100,00 %
18.10.2017 00:04 9,7 C 11,7 C 96 % 1018,0 hPa 0,0 l/m 0,3 km/h (0 Bft) SO 125 0 min 0,000 mm 0,0 UV-I 0 W/m 9,1 C 9,7 C 1,6 km/h (1 Bft) 98,00 %
18.10.2017 00:06 9,6 C 11,7 C 96 % 1018,0 hPa 0,0 l/m 0,1 km/h (0 Bft) SO 125 0 min 0,000 mm 0,0 UV-I 0 W/m 9,0 C 9,6 C 1,6 km/h (1 Bft) 97,14 %
18.10.2017 00:08 9,6 C 11,7 C 96 % 1018,1 hPa 0,0 l/m 0,0 km/h (0 Bft) SO 125 0 min 0,000 mm 0,0 UV-I 0 W/m 9,0 C 9,6 C 0,0 km/h (0 Bft) 98,00 %
18.10.2017 00:10 9,4 C 11,7 C 96 % 1018,2 hPa 0,0 l/m 1,3 km/h (1 Bft) SO 125 0 min 0,000 mm 0,0 UV-I 0 W/m 8,8 C 9,4 C 3,2 km/h (1 Bft) 100,00 %
18.10.2017 00:12 9,4 C 11,7 C 96 % 1018,1 hPa 0,0 l/m 0,8 km/h (0 Bft) SO 125 0 min 0,000 mm 0,0 UV-I 0 W/m 8,8 C 9,4 C 3,2 km/h (1 Bft) 100,00 %
18.10.2017 00:14 9,4 C 11,7 C 96 % 1018,1 hPa 0,0 l/m 0,0 km/h (0 Bft) SO 125 0 min 0,000 mm 0,0 UV-I 0 W/m 8,8 C 9,4 C 1,6 km/h (1 Bft) 100,00 %
18.10.2017 00:16 9,3 C 11,7 C 96 % 1018,1 hPa 0,0 l/m 0,0 km/h (0 Bft) SO 125 0 min 0,000 mm 0,0 UV-I 0 W/m 8,7 C 9,3 C 0,0 km/h (0 Bft) 98,00 %
18.10.2017 00:18 9,3 C 11,7 C 96 % 1018,0 hPa 0,0 l/m 0,0 km/h (0 Bft) SO 125 0 min 0,000 mm 0,0 UV-I 0 W/m 8,7 C 9,3 C 0,0 km/h (0 Bft) 97,87 %
18.10.2017 00:20 9,3 C 11,7 C 96 % 1018,0 hPa 0,0 l/m 0,0 km/h (0 Bft) SO 125 0 min 0,000 mm 0,0 UV-I 0 W/m 8,7 C 9,3 C 0,0 km/h (0 Bft) 96,00 %
18.10.2017 00:22 9,3 C 11,7 C 96 % 1018,0 hPa 0,0 l/m 0,0 km/h (0 Bft) SO 125 0 min 0,000 mm 0,0 UV-I 0 W/m 8,7 C 9,3 C 0,0 km/h (0 Bft) 97,44 %
18.10.2017 00:24 9,2 C 11,7 C 96 % 1017,9 hPa 0,0 l/m 0,0 km/h (0 Bft) SO 125 0 min 0,000 mm 0,0 UV-I 0 W/m 8,6 C 9,2 C 0,0 km/h (0 Bft) 96,00 %
18.10.2017 00:26 9,1 C 11,7 C 96 % 1017,9 hPa 0,0 l/m 0,0 km/h (0 Bft) SO 125 0 min 0,000 mm 0,0 UV-I 0 W/m 8,5 C 9,1 C 0,0 km/h (0 Bft) 98,00 %
18.10.2017 00:28 9,1 C 11,7 C 96 % 1017,8 hPa 0,0 l/m 0,0 km/h (0 Bft) SO 125 0 min 0,000 mm 0,0 UV-I 0 W/m 8,5 C 9,1 C 0,0 km/h (0 Bft) 94,74 %
18.10.2017 00:30 9,1 C 11,7 C 96 % 1017,8 hPa 0,0 l/m 0,0 km/h (0 Bft) SO 125 0 min 0,000 mm 0,0 UV-I 0 W/m 8,5 C 9,1 C 0,0 km/h (0 Bft) 93,62 %
18.10.2017 00:32 9,1 C 11,7 C 96 % 1017,8 hPa 0,0 l/m 0,0 km/h (0 Bft) SO 125 0 min 0,000 mm 0,0 UV-I 0 W/m 8,5 C 9,1 C 0,0 km/h (0 Bft) 97,87 %
18.10.2017 00:34 9,2 C 11,7 C 96 % 1017,8 hPa 0,0 l/m 0,0 km/h (0 Bft) SO 125 0 min 0,000 mm 0,0 UV-I 0 W/m 8,6 C 9,2 C 0,0 km/h (0 Bft) 92,00 %
18.10.2017 00:36 9,3 C 11,7 C 97 % 1017,8 hPa 0,0 l/m 0,0 km/h (0 Bft) SO 125 0 min 0,000 mm 0,0 UV-I 0 W/m 8,8 C 9,3 C 0,0 km/h (0 Bft) 92,45 %
18.10.2017 00:38 9,3 C 11,7 C 97 % 1017,7 hPa 0,0 l/m 0,0 km/h (0 Bft) SO 125 0 min 0,000 mm 0,0 UV-I 0 W/m 8,8 C 9,3 C 0,0 km/h (0 Bft) 95,12 %
18.10.2017 00:40 9,4 C 11,7 C 97 % 1017,7 hPa 0,0 l/m 0,0 km/h (0 Bft) SO 125 0 min 0,000 mm 0,0 UV-I 0 W/m 8,9 C 9,4 C 0,0 km/h (0 Bft) 96,00 %
18.10.2017 00:42 9,4 C 11,7 C 97 % 1017,7 hPa 0,0 l/m 0,0 km/h (0 Bft) SO 125 0 min 0,000 mm 0,0 UV-I 0 W/m 8,9 C 9,4 C 0,0 km/h (0 Bft) 94,00 %
18.10.2017 00:44 9,4 C 11,7 C 97 % 1017,7 hPa 0,0 l/m 0,0 km/h (0 Bft) SO 125 0 min 0,000 mm 0,0 UV-I 0 W/m 8,9 C 9,4 C 0,0 km/h (0 Bft) 94,74 %
18.10.2017 00:46 9,4 C 11,7 C 97 % 1017,7 hPa 0,0 l/m 0,0 km/h (0 Bft) SO 125 0 min 0,000 mm 0,0 UV-I 0 W/m 8,9 C 9,4 C 0,0 km/h (0 Bft) 94,00 %
18.10.2017 00:48 9,5 C 11,7 C 97 % 1017,7 hPa 0,0 l/m 0,5 km/h (0 Bft) SO 125 0 min 0,000 mm 0,0 UV-I 0 W/m 9,0 C 9,5 C 3,2 km/h (1 Bft) 96,00 %
18.10.2017 00:50 9,5 C 11,7 C 97 % 1017,7 hPa 0,0 l/m 2,3 km/h (1 Bft) SO 125 0 min 0,000 mm 0,0 UV-I 0 W/m 9,0 C 9,5 C 3,2 km/h (1 Bft) 96,00 %
18.10.2017 00:52 9,5 C 11,7 C 97 % 1017,7 hPa 0,0 l/m 0,7 km/h (0 Bft) SO 125 0 min 0,000 mm 0,0 UV-I 0 W/m 9,0 C 9,5 C 3,2 km/h (1 Bft) 95,24 %
18.10.2017 00:54 9,5 C 11,7 C 97 % 1017,6 hPa 0,0 l/m 1,1 km/h (1 Bft) SO 125 0 min 0,000 mm 0,0 UV-I 0 W/m 9,0 C 9,5 C 3,2 km/h (1 Bft) 92,31 %
18.10.2017 00:56 9,4 C 11,7 C 97 % 1017,6 hPa 0,0 l/m 0,4 km/h (0 Bft) SO 125 0 min 0,000 mm 0,0 UV-I 0 W/m 8,9 C 9,4 C 1,6 km/h (1 Bft) 96,23 %
18.10.2017 00:58 9,5 C 11,7 C 97 % 1017,6 hPa 0,0 l/m 0,6 km/h (0 Bft) SO 125 0 min 0,000 mm 0,0 UV-I 0 W/m 9,0 C 9,5 C 1,6 km/h (1 Bft) 94,23 %
18.10.2017 01:00 9,6 C 11,7 C 97 % 1017,6 hPa 0,0 l/m 0,1 km/h (0 Bft) SO 125 0 min 0,000 mm 0,0 UV-I 0 W/m 9,1 C 9,6 C 1,6 km/h (1 Bft) 95,83 %
18.10.2017 01:02 9,7 C 11,7 C 97 % 1017,7 hPa 0,0 l/m 0,0 km/h (0 Bft) SO 125 0 min 0,000 mm 0,0 UV-I 0 W/m 9,2 C 9,7 C 0,0 km/h (0 Bft) 92,11 %
18.10.2017 01:04 9,8 C 11,7 C 97 % 1017,6 hPa 0,0 l/m 1,9 km/h (1 Bft) SO 125 0 min 0,000 mm 0,0 UV-I 0 W/m 9,3 C 9,8 C 3,2 km/h (1 Bft) 93,62 %
18.10.2017 01:06 9,8 C 11,7 C 97 % 1017,6 hPa 0,0 l/m 1,4 km/h (1 Bft) SO 125 0 min 0,000 mm 0,0 UV-I 0 W/m 9,3 C 9,8 C 3,2 km/h (1 Bft) 94,64 %
18.10.2017 01:08 9,9 C 11,7 C 97 % 1017,6 hPa 0,0 l/m 0,0 km/h (0 Bft) SO 125 0 min 0,000 mm 0,0 UV-I 0 W/m 9,4 C 9,9 C 0,0 km/h (0 Bft) 100,00 %
18.10.2017 01:10 9,9 C 11,7 C 97 % 1017,6 hPa 0,0 l/m 0,0 km/h (0 Bft) SO 125 0 min 0,000 mm 0,0 UV-I 0 W/m 9,4 C 9,9 C 0,0 km/h (0 Bft) 92,00 %
18.10.2017 01:12 10,0 C 11,7 C 97 % 1017,6 hPa 0,0 l/m 0,0 km/h (0 Bft) SO 125 0 min 0,000 mm 0,0 UV-I 0 W/m 9,5 C 10,0 C 1,6 km/h (1 Bft) 100,00 %
18.10.2017 01:14 10,0 C 11,7 C 97 % 1017,6 hPa 0,0 l/m 0,0 km/h (0 Bft) SO 125 0 min 0,000 mm 0,0 UV-I 0 W/m 9,5 C 10,0 C 0,0 km/h (0 Bft) 100,00 %
18.10.2017 01:16 9,9 C 11,7 C 97 % 1017,6 hPa 0,0 l/m 0,0 km/h (0 Bft) SO 125 0 min 0,000 mm 0,0 UV-I 0 W/m 9,4 C 9,9 C 1,6 km/h (1 Bft) 100,00 %
18.10.2017 01:18 9,9 C 11,7 C 97 % 1017,6 hPa 0,0 l/m 1,2 km/h (1 Bft) SO 125 0 min 0,000 mm 0,0 UV-I 0 W/m 9,4 C 9,9 C 1,6 km/h (1 Bft) 100,00 %
18.10.2017 01:20 9,9 C 11,7 C 97 % 1017,6 hPa 0,0 l/m 1,4 km/h (1 Bft) SO 125 0 min 0,000 mm 0,0 UV-I 0 W/m 9,4 C 9,9 C 3,2 km/h (1 Bft) 97,37 %
18.10.2017 01:22 9,8 C 11,7 C 97 % 1017,6 hPa 0,0 l/m 2,5 km/h (1 Bft) SO 125 0 min 0,000 mm 0,0 UV-I 0 W/m 9,3 C 9,8 C 3,2 km/h (1 Bft) 100,00 %
18.10.2017 01:24 9,7 C 11,7 C 97 % 1017,6 hPa 0,0 l/m 3,4 km/h (1 Bft) S 181 0 min 0,000 mm 0,0 UV-I 0 W/m 9,2 C 9,7 C 4,8 km/h (1 Bft) 100,00 %
18.10.2017 01:26 9,8 C 11,7 C 97 % 1017,6 hPa 0,0 l/m 3,4 km/h (1 Bft) S 182 0 min 0,000 mm 0,0 UV-I 0 W/m 9,3 C 9,8 C 4,8 km/h (1 Bft) 100,00 %
18.10.2017 01:28 9,8 C 11,7 C 97 % 1017,6 hPa 0,0 l/m 1,8 km/h (1 Bft) S 188 0 min 0,000 mm 0,0 UV-I 0 W/m 9,3 C 9,8 C 4,8 km/h (1 Bft) 100,00 %
18.10.2017 01:30 9,9 C 11,7 C 97 % 1017,6 hPa 0,0 l/m 0,9 km/h (0 Bft) S 188 0 min 0,000 mm 0,0 UV-I 0 W/m 9,4 C 9,9 C 3,2 km/h (1 Bft) 100,00 %
18.10.2017 01:32 9,9 C 11,7 C 97 % 1017,6 hPa 0,0 l/m 1,8 km/h (1 Bft) S 188 0 min 0,000 mm 0,0 UV-I 0 W/m 9,4 C 9,9 C 4,8 km/h (1 Bft) 98,00 %
18.10.2017 01:34 10,1 C 11,7 C 97 % 1017,6 hPa 0,0 l/m 2,0 km/h (1 Bft) S 188 0 min 0,000 mm 0,0 UV-I 0 W/m 9,6 C 10,1 C 4,8 km/h (1 Bft) 100,00 %
18.10.2017 01:36 10,1 C 11,7 C 97 % 1017,6 hPa 0,0 l/m 2,3 km/h (1 Bft) S 188 0 min 0,000 mm 0,0 UV-I 0 W/m 9,6 C 10,1 C 3,2 km/h (1 Bft) 100,00 %
18.10.2017 01:38 10,2 C 11,7 C 97 % 1017,5 hPa 0,0 l/m 1,4 km/h (1 Bft) S 188 0 min 0,000 mm 0,0 UV-I 0 W/m 9,7 C 10,2 C 3,2 km/h (1 Bft) 98,00 %
18.10.2017 01:40 10,2 C 11,7 C 97 % 1017,6 hPa 0,0 l/m 0,2 km/h (0 Bft) S 188 0 min 0,000 mm 0,0 UV-I 0 W/m 9,7 C 10,2 C 1,6 km/h (1 Bft) 97,87 %
18.10.2017 01:42 10,2 C 11,7 C 97 % 1017,5 hPa 0,0 l/m 0,7 km/h (0 Bft) S 188 0 min 0,000 mm 0,0 UV-I 0 W/m 9,7 C 10,2 C 3,2 km/h (1 Bft) 100,00 %
18.10.2017 01:44 10,3 C 11,7 C 97 % 1017,5 hPa 0,0 l/m 0,4 km/h (0 Bft) S 188 0 min 0,000 mm 0,0 UV-I 0 W/m 9,8 C 10,3 C 1,6 km/h (1 Bft) 98,00 %
18.10.2017 01:46 10,3 C 11,7 C 97 % 1017,5 hPa 0,0 l/m 1,1 km/h (1 Bft) S 188 0 min 0,000 mm 0,0 UV-I 0 W/m 9,8 C 10,3 C 3,2 km/h (1 Bft) 100,00 %
18.10.2017 01:48 10,3 C 11,7 C 97 % 1017,5 hPa 0,0 l/m 1,9 km/h (1 Bft) S 188 0 min 0,000 mm 0,0 UV-I 0 W/m 9,8 C 10,3 C 3,2 km/h (1 Bft) 100,00 %
18.10.2017 01:50 10,3 C 11,7 C 97 % 1017,4 hPa 0,0 l/m 1,4 km/h (1 Bft) S 188 0 min 0,000 mm 0,0 UV-I 0 W/m 9,8 C 10,3 C 3,2 km/h (1 Bft) 100,00 %
18.10.2017 01:52 10,3 C 11,7 C 97 % 1017,4 hPa 0,0 l/m 1,4 km/h (1 Bft) S 188 0 min 0,000 mm 0,0 UV-I 0 W/m 9,8 C 10,3 C 3,2 km/h (1 Bft) 100,00 %
18.10.2017 01:54 10,3 C 11,7 C 97 % 1017,4 hPa 0,0 l/m 1,2 km/h (1 Bft) S 188 0 min 0,000 mm 0,0 UV-I 0 W/m 9,8 C 10,3 C 1,6 km/h (1 Bft) 100,00 %
18.10.2017 01:56 10,3 C 11,7 C 97 % 1017,3 hPa 0,0 l/m 0,9 km/h (0 Bft) S 188 0 min 0,000 mm 0,0 UV-I 0 W/m 9,8 C 10,3 C 3,2 km/h (1 Bft) 100,00 %
18.10.2017 01:58 10,3 C 11,7 C 97 % 1017,3 hPa 0,0 l/m 0,0 km/h (0 Bft) S 188 0 min 0,000 mm 0,0 UV-I 0 W/m 9,8 C 10,3 C 0,0 km/h (0 Bft) 100,00 %
18.10.2017 02:00 10,3 C 11,7 C 97 % 1017,3 hPa 0,0 l/m 0,0 km/h (0 Bft) S 188 0 min 0,000 mm 0,0 UV-I 0 W/m 9,8 C 10,3 C 0,0 km/h (0 Bft) 100,00 %
18.10.2017 02:02 10,3 C 11,7 C 97 % 1017,3 hPa 0,0 l/m 0,0 km/h (0 Bft) S 188 0 min 0,000 mm 0,0 UV-I 0 W/m 9,8 C 10,3 C 0,0 km/h (0 Bft) 100,00 %
18.10.2017 02:04 10,3 C 11,7 C 97 % 1017,3 hPa 0,0 l/m 0,0 km/h (0 Bft) S 188 0 min 0,000 mm 0,0 UV-I 0 W/m 9,8 C 10,3 C 0,0 km/h (0 Bft) 97,87 %
18.10.2017 02:06 10,4 C 11,7 C 97 % 1017,3 hPa 0,0 l/m 0,0 km/h (0 Bft) S 188 0 min 0,000 mm 0,0 UV-I 0 W/m 9,9 C 10,4 C 0,0 km/h (0 Bft) 100,00 %
18.10.2017 02:08 10,4 C 11,7 C 97 % 1017,3 hPa 0,0 l/m 0,1 km/h (0 Bft) S 188 0 min 0,000 mm 0,0 UV-I 0 W/m 9,9 C 10,4 C 1,6 km/h (1 Bft) 100,00 %
18.10.2017 02:10 10,4 C 11,7 C 97 % 1017,3 hPa 0,0 l/m 0,2 km/h (0 Bft) S 188 0 min 0,000 mm 0,0 UV-I 0 W/m 9,9 C 10,4 C 1,6 km/h (1 Bft) 97,87 %
18.10.2017 02:12 10,3 C 11,7 C 97 % 1017,3 hPa 0,0 l/m 1,3 km/h (1 Bft) S 188 0 min 0,000 mm 0,0 UV-I 0 W/m 9,8 C 10,3 C 3,2 km/h (1 Bft) 98,00 %
18.10.2017 02:14 10,4 C 11,7 C 97 % 1017,4 hPa 0,0 l/m 0,1 km/h (0 Bft) S 188 0 min 0,000 mm 0,0 UV-I 0 W/m 9,9 C 10,4 C 1,6 km/h (1 Bft) 100,00 %
18.10.2017 02:16 10,4 C 11,7 C 97 % 1017,3 hPa 0,0 l/m 0,5 km/h (0 Bft) S 188 0 min 0,000 mm 0,0 UV-I 0 W/m 9,9 C 10,4 C 1,6 km/h (1 Bft) 100,00 %
18.10.2017 02:18 10,4 C 11,7 C 97 % 1017,3 hPa 0,0 l/m 1,5 km/h (1 Bft) S 188 0 min 0,000 mm 0,0 UV-I 0 W/m 9,9 C 10,4 C 3,2 km/h (1 Bft) 100,00 %
18.10.2017 02:20 10,4 C 11,7 C 97 % 1017,3 hPa 0,0 l/m 1,6 km/h (1 Bft) S 188 0 min 0,000 mm 0,0 UV-I 0 W/m 9,9 C 10,4 C 3,2 km/h (1 Bft) 97,56 %
18.10.2017 02:22 10,4 C 11,7 C 97 % 1017,3 hPa 0,0 l/m 1,1 km/h (1 Bft) S 188 0 min 0,000 mm 0,0 UV-I 0 W/m 9,9 C 10,4 C 3,2 km/h (1 Bft) 100,00 %
18.10.2017 02:24 10,4 C 11,7 C 97 % 1017,3 hPa 0,0 l/m 2,2 km/h (1 Bft) S 188 0 min 0,000 mm 0,0 UV-I 0 W/m 9,9 C 10,4 C 3,2 km/h (1 Bft) 100,00 %
18.10.2017 02:26 10,4 C 11,7 C 97 % 1017,2 hPa 0,0 l/m 2,0 km/h (1 Bft) S 188 0 min 0,000 mm 0,0 UV-I 0 W/m 9,9 C 10,4 C 3,2 km/h (1 Bft) 100,00 %
18.10.2017 02:28 10,4 C 11,7 C 97 % 1017,2 hPa 0,0 l/m 0,8 km/h (0 Bft) S 188 0 min 0,000 mm 0,0 UV-I 0 W/m 9,9 C 10,4 C 3,2 km/h (1 Bft) 100,00 %
18.10.2017 02:30 10,4 C 11,7 C 97 % 1017,2 hPa 0,0 l/m 0,0 km/h (0 Bft) S 188 0 min 0,000 mm 0,0 UV-I 0 W/m 9,9 C 10,4 C 1,6 km/h (1 Bft) 100,00 %
18.10.2017 02:32 10,4 C 11,7 C 97 % 1017,2 hPa 0,0 l/m 0,9 km/h (0 Bft) S 188 0 min 0,000 mm 0,0 UV-I 0 W/m 9,9 C 10,4 C 3,2 km/h (1 Bft) 96,00 %
18.10.2017 02:34 10,4 C 11,7 C 97 % 1017,2 hPa 0,0 l/m 1,5 km/h (1 Bft) S 188 0 min 0,000 mm 0,0 UV-I 0 W/m 9,9 C 10,4 C 3,2 km/h (1 Bft) 100,00 %
18.10.2017 02:36 10,4 C 11,7 C 97 % 1017,2 hPa 0,0 l/m 1,8 km/h (1 Bft) S 188 0 min 0,000 mm 0,0 UV-I 0 W/m 9,9 C 10,4 C 4,8 km/h (1 Bft) 100,00 %
18.10.2017 02:38 10,4 C 11,7 C 97 % 1017,3 hPa 0,0 l/m 2,8 km/h (1 Bft) S 188 0 min 0,000 mm 0,0 UV-I 0 W/m 9,9 C 10,4 C 4,8 km/h (1 Bft) 94,92 %
18.10.2017 02:40 10,4 C 11,7 C 97 % 1017,2 hPa 0,0 l/m 1,6 km/h (1 Bft) S 188 0 min 0,000 mm 0,0 UV-I 0 W/m 9,9 C 10,4 C 3,2 km/h (1 Bft) 97,37 %
18.10.2017 02:42 10,4 C 11,7 C 97 % 1017,2 hPa 0,0 l/m 1,9 km/h (1 Bft) S 188 0 min 0,000 mm 0,0 UV-I 0 W/m 9,9 C 10,4 C 3,2 km/h (1 Bft) 98,00 %
18.10.2017 02:44 10,4 C 11,7 C 97 % 1017,2 hPa 0,0 l/m 2,6 km/h (1 Bft) S 188 0 min 0,000 mm 0,0 UV-I 0 W/m 9,9 C 10,4 C 4,8 km/h (1 Bft) 96,23 %
18.10.2017 02:46 10,4 C 11,7 C 97 % 1017,2 hPa 0,0 l/m 1,7 km/h (1 Bft) S 188 0 min 0,000 mm 0,0 UV-I 0 W/m 9,9 C 10,4 C 3,2 km/h (1 Bft) 97,37 %
18.10.2017 02:48 10,4 C 11,7 C 97 % 1017,1 hPa 0,0 l/m 2,5 km/h (1 Bft) S 188 0 min 0,000 mm 0,0 UV-I 0 W/m 9,9 C 10,4 C 4,8 km/h (1 Bft) 98,11 %
18.10.2017 02:50 10,4 C 11,7 C 97 % 1017,1 hPa 0,0 l/m 3,1 km/h (1 Bft) S 188 0 min 0,000 mm 0,0 UV-I 0 W/m 9,9 C 10,4 C 4,8 km/h (1 Bft) 97,44 %
18.10.2017 02:52 10,4 C 11,7 C 97 % 1017,1 hPa 0,0 l/m 1,1 km/h (1 Bft) S 188 0 min 0,000 mm 0,0 UV-I 0 W/m 9,9 C 10,4 C 3,2 km/h (1 Bft) 98,04 %
18.10.2017 02:54 10,4 C 11,7 C 97 % 1017,1 hPa 0,0 l/m 1,6 km/h (1 Bft) S 188 0 min 0,000 mm 0,0 UV-I 0 W/m 9,9 C 10,4 C 3,2 km/h (1 Bft) 97,87 %
18.10.2017 02:56 10,4 C 11,7 C 97 % 1017,1 hPa 0,0 l/m 0,8 km/h (0 Bft) S 188 0 min 0,000 mm 0,0 UV-I 0 W/m 9,9 C 10,4 C 3,2 km/h (1 Bft) 97,87 %
18.10.2017 02:58 10,5 C 11,7 C 97 % 1017,0 hPa 0,0 l/m 0,9 km/h (0 Bft) S 188 0 min 0,000 mm 0,0 UV-I 0 W/m 10,0 C 10,5 C 3,2 km/h (1 Bft) 97,87 %
18.10.2017 03:00 10,5 C 11,7 C 98 % 1017,1 hPa 0,0 l/m 0,8 km/h (0 Bft) S 188 0 min 0,000 mm 0,0 UV-I 0 W/m 10,2 C 10,5 C 3,2 km/h (1 Bft) 95,74 %
18.10.2017 03:02 10,5 C 11,7 C 98 % 1017,0 hPa 0,0 l/m 2,0 km/h (1 Bft) S 188 0 min 0,000 mm 0,0 UV-I 0 W/m 10,2 C 10,5 C 3,2 km/h (1 Bft) 97,56 %
18.10.2017 03:04 10,6 C 11,7 C 98 % 1017,0 hPa 0,0 l/m 0,5 km/h (0 Bft) S 188 0 min 0,000 mm 0,0 UV-I 0 W/m 10,3 C 10,6 C 3,2 km/h (1 Bft) 94,34 %
18.10.2017 03:06 10,6 C 11,7 C 98 % 1017,0 hPa 0,0 l/m 1,9 km/h (1 Bft) S 189 0 min 0,000 mm 0,0 UV-I 0 W/m 10,3 C 10,6 C 3,2 km/h (1 Bft) 95,12 %
18.10.2017 03:08 10,6 C 11,7 C 98 % 1017,0 hPa 0,0 l/m 0,2 km/h (0 Bft) S 189 0 min 0,000 mm 0,0 UV-I 0 W/m 10,3 C 10,6 C 1,6 km/h (1 Bft) 97,87 %
18.10.2017 03:10 10,6 C 11,7 C 98 % 1016,9 hPa 0,0 l/m 0,3 km/h (0 Bft) S 189 0 min 0,000 mm 0,0 UV-I 0 W/m 10,3 C 10,6 C 1,6 km/h (1 Bft) 100,00 %
18.10.2017 03:12 10,6 C 11,7 C 98 % 1016,9 hPa 0,0 l/m 0,7 km/h (0 Bft) S 189 0 min 0,000 mm 0,0 UV-I 0 W/m 10,3 C 10,6 C 3,2 km/h (1 Bft) 100,00 %
18.10.2017 03:14 10,6 C 11,7 C 98 % 1016,9 hPa 0,0 l/m 0,3 km/h (0 Bft) S 189 0 min 0,000 mm 0,0 UV-I 0 W/m 10,3 C 10,6 C 1,6 km/h (1 Bft) 100,00 %
18.10.2017 03:16 10,7 C 11,7 C 98 % 1016,9 hPa 0,0 l/m 0,9 km/h (0 Bft) S 189 0 min 0,000 mm 0,0 UV-I 0 W/m 10,4 C 10,7 C 1,6 km/h (1 Bft) 100,00 %
18.10.2017 03:18 10,7 C 11,7 C 98 % 1016,9 hPa 0,0 l/m 0,7 km/h (0 Bft) S 189 0 min 0,000 mm 0,0 UV-I 0 W/m 10,4 C 10,7 C 3,2 km/h (1 Bft) 97,56 %
18.10.2017 03:20 10,7 C 11,7 C 98 % 1016,9 hPa 0,0 l/m 0,6 km/h (0 Bft) S 189 0 min 0,000 mm 0,0 UV-I 0 W/m 10,4 C 10,7 C 1,6 km/h (1 Bft) 100,00 %
18.10.2017 03:22 10,7 C 11,7 C 98 % 1016,9 hPa 0,0 l/m 1,1 km/h (1 Bft) S 189 0 min 0,000 mm 0,0 UV-I 0 W/m 10,4 C 10,7 C 3,2 km/h (1 Bft) 100,00 %
18.10.2017 03:24 10,7 C 11,7 C 97 % 1016,9 hPa 0,0 l/m 1,2 km/h (1 Bft) S 189 0 min 0,000 mm 0,0 UV-I 0 W/m 10,2 C 10,7 C 3,2 km/h (1 Bft) 100,00 %
18.10.2017 03:26 10,7 C 11,7 C 97 % 1016,9 hPa 0,0 l/m 0,0 km/h (0 Bft) S 189 0 min 0,000 mm 0,0 UV-I 0 W/m 10,2 C 10,7 C 0,0 km/h (0 Bft) 100,00 %
18.10.2017 03:28 10,7 C 11,7 C 97 % 1016,9 hPa 0,0 l/m 0,4 km/h (0 Bft) S 189 0 min 0,000 mm 0,0 UV-I 0 W/m 10,2 C 10,7 C 3,2 km/h (1 Bft) 100,00 %
18.10.2017 03:30 10,7 C 11,7 C 97 % 1016,9 hPa 0,0 l/m 1,5 km/h (1 Bft) S 189 0 min 0,000 mm 0,0 UV-I 0 W/m 10,2 C 10,7 C 3,2 km/h (1 Bft) 100,00 %
18.10.2017 03:32 10,7 C 11,7 C 97 % 1016,9 hPa 0,0 l/m 0,6 km/h (0 Bft) S 189 0 min 0,000 mm 0,0 UV-I 0 W/m 10,2 C 10,7 C 1,6 km/h (1 Bft) 100,00 %
18.10.2017 03:34 10,7 C 11,7 C 97 % 1016,9 hPa 0,0 l/m 0,6 km/h (0 Bft) S 189 0 min 0,000 mm 0,0 UV-I 0 W/m 10,2 C 10,7 C 1,6 km/h (1 Bft) 100,00 %
18.10.2017 03:36 10,7 C 11,7 C 97 % 1016,9 hPa 0,0 l/m 0,7 km/h (0 Bft) S 189 0 min 0,000 mm 0,0 UV-I 0 W/m 10,2 C 10,7 C 3,2 km/h (1 Bft) 100,00 %
18.10.2017 03:38 10,7 C 11,7 C 98 % 1016,9 hPa 0,0 l/m 1,4 km/h (1 Bft) S 189 0 min 0,000 mm 0,0 UV-I 0 W/m 10,4 C 10,7 C 3,2 km/h (1 Bft) 100,00 %
18.10.2017 03:40 10,7 C 11,7 C 97 % 1016,9 hPa 0,0 l/m 1,0 km/h (0 Bft) S 189 0 min 0,000 mm 0,0 UV-I 0 W/m 10,2 C 10,7 C 1,6 km/h (1 Bft) 97,87 %
18.10.2017 03:42 10,7 C 11,7 C 98 % 1016,8 hPa 0,0 l/m 0,4 km/h (0 Bft) S 189 0 min 0,000 mm 0,0 UV-I 0 W/m 10,4 C 10,7 C 3,2 km/h (1 Bft) 100,00 %
18.10.2017 03:44 10,8 C 11,7 C 98 % 1016,9 hPa 0,0 l/m 2,2 km/h (1 Bft) S 189 0 min 0,000 mm 0,0 UV-I 0 W/m 10,5 C 10,8 C 4,8 km/h (1 Bft) 100,00 %
18.10.2017 03:46 10,8 C 11,7 C 98 % 1016,9 hPa 0,0 l/m 2,7 km/h (1 Bft) S 189 0 min 0,000 mm 0,0 UV-I 0 W/m 10,5 C 10,8 C 3,2 km/h (1 Bft) 97,87 %
18.10.2017 03:48 10,8 C 11,7 C 98 % 1016,9 hPa 0,0 l/m 0,7 km/h (0 Bft) S 189 0 min 0,000 mm 0,0 UV-I 0 W/m 10,5 C 10,8 C 3,2 km/h (1 Bft) 100,00 %
18.10.2017 03:50 10,8 C 11,7 C 98 % 1016,9 hPa 0,0 l/m 1,2 km/h (1 Bft) S 189 0 min 0,000 mm 0,0 UV-I 0 W/m 10,5 C 10,8 C 3,2 km/h (1 Bft) 100,00 %
18.10.2017 03:52 10,8 C 11,7 C 98 % 1016,9 hPa 0,0 l/m 2,9 km/h (1 Bft) S-SW 196 0 min 0,000 mm 0,0 UV-I 0 W/m 10,5 C 10,8 C 4,8 km/h (1 Bft) 100,00 %
18.10.2017 03:54 10,8 C 11,7 C 98 % 1016,9 hPa 0,0 l/m 2,0 km/h (1 Bft) W-SW 242 0 min 0,000 mm 0,0 UV-I 0 W/m 10,5 C 10,8 C 4,8 km/h (1 Bft) 98,11 %
18.10.2017 03:56 10,8 C 11,7 C 98 % 1016,9 hPa 0,0 l/m 2,3 km/h (1 Bft) SW 233 0 min 0,000 mm 0,0 UV-I 0 W/m 10,5 C 10,8 C 4,8 km/h (1 Bft) 96,00 %
18.10.2017 03:58 10,9 C 11,7 C 98 % 1016,9 hPa 0,0 l/m 3,1 km/h (1 Bft) SW 233 0 min 0,000 mm 0,0 UV-I 0 W/m 10,6 C 10,9 C 4,8 km/h (1 Bft) 97,37 %
18.10.2017 04:00 10,9 C 11,7 C 98 % 1016,9 hPa 0,0 l/m 4,2 km/h (1 Bft) W-SW 246 0 min 0,000 mm 0,0 UV-I 0 W/m 10,6 C 10,9 C 4,8 km/h (1 Bft) 96,00 %
18.10.2017 04:02 10,9 C 11,7 C 98 % 1016,9 hPa 0,0 l/m 3,5 km/h (1 Bft) W-SW 239 0 min 0,000 mm 0,0 UV-I 0 W/m 10,6 C 10,9 C 4,8 km/h (1 Bft) 96,88 %
18.10.2017 04:04 10,8 C 11,7 C 98 % 1016,9 hPa 0,0 l/m 5,3 km/h (1 Bft) S-SW 211 0 min 0,000 mm 0,0 UV-I 0 W/m 10,5 C 10,8 C 8,0 km/h (2 Bft) 97,37 %
18.10.2017 04:06 10,8 C 11,7 C 98 % 1016,9 hPa 0,0 l/m 5,7 km/h (1 Bft) W-SW 254 0 min 0,000 mm 0,0 UV-I 0 W/m 10,5 C 10,8 C 8,0 km/h (2 Bft) 98,11 %
18.10.2017 04:08 10,8 C 11,7 C 98 % 1016,9 hPa 0,0 l/m 3,4 km/h (1 Bft) S-SW 202 0 min 0,000 mm 0,0 UV-I 0 W/m 10,5 C 10,8 C 6,4 km/h (2 Bft) 97,87 %
18.10.2017 04:10 10,8 C 11,7 C 98 % 1016,9 hPa 0,0 l/m 2,2 km/h (1 Bft) S-SW 207 0 min 0,000 mm 0,0 UV-I 0 W/m 10,5 C 10,8 C 4,8 km/h (1 Bft) 98,00 %
18.10.2017 04:12 10,8 C 11,7 C 98 % 1016,9 hPa 0,0 l/m 3,9 km/h (1 Bft) S-SO 167 0 min 0,000 mm 0,0 UV-I 0 W/m 10,5 C 10,8 C 6,4 km/h (2 Bft) 97,44 %
18.10.2017 04:14 10,8 C 11,7 C 98 % 1016,8 hPa 0,0 l/m 2,9 km/h (1 Bft) S-SW 193 0 min 0,000 mm 0,0 UV-I 0 W/m 10,5 C 10,8 C 4,8 km/h (1 Bft) 98,21 %
18.10.2017 04:16 10,7 C 11,7 C 98 % 1016,9 hPa 0,0 l/m 2,3 km/h (1 Bft) S-SW 193 0 min 0,000 mm 0,0 UV-I 0 W/m 10,4 C 10,7 C 4,8 km/h (1 Bft) 95,45 %
18.10.2017 04:18 10,7 C 11,7 C 98 % 1016,8 hPa 0,0 l/m 3,0 km/h (1 Bft) S-SW 209 0 min 0,000 mm 0,0 UV-I 0 W/m 10,4 C 10,7 C 4,8 km/h (1 Bft) 96,00 %
18.10.2017 04:20 10,7 C 11,7 C 98 % 1016,9 hPa 0,0 l/m 3,3 km/h (1 Bft) S-SW 209 0 min 0,000 mm 0,0 UV-I 0 W/m 10,4 C 10,7 C 6,4 km/h (2 Bft) 100,00 %
18.10.2017 04:22 10,7 C 11,7 C 98 % 1016,9 hPa 0,0 l/m 1,8 km/h (1 Bft) S-SW 209 0 min 0,000 mm 0,0 UV-I 0 W/m 10,4 C 10,7 C 3,2 km/h (1 Bft) 96,43 %
18.10.2017 04:24 10,7 C 11,7 C 98 % 1016,9 hPa 0,0 l/m 3,0 km/h (1 Bft) S-SW 209 0 min 0,000 mm 0,0 UV-I 0 W/m 10,4 C 10,7 C 6,4 km/h (2 Bft) 98,00 %
18.10.2017 04:26 10,7 C 11,7 C 98 % 1016,9 hPa 0,0 l/m 2,6 km/h (1 Bft) S-SW 213 0 min 0,000 mm 0,0 UV-I 0 W/m 10,4 C 10,7 C 4,8 km/h (1 Bft) 97,56 %
18.10.2017 04:28 10,7 C 11,7 C 98 % 1016,9 hPa 0,0 l/m 1,8 km/h (1 Bft) S-SW 213 0 min 0,000 mm 0,0 UV-I 0 W/m 10,4 C 10,7 C 4,8 km/h (1 Bft) 94,74 %
18.10.2017 04:30 10,7 C 11,7 C 98 % 1016,9 hPa 0,0 l/m 2,2 km/h (1 Bft) S-SW 213 0 min 0,000 mm 0,0 UV-I 0 W/m 10,4 C 10,7 C 4,8 km/h (1 Bft) 96,43 %
18.10.2017 04:32 10,7 C 11,7 C 98 % 1016,9 hPa 0,0 l/m 3,8 km/h (1 Bft) S-SW 213 0 min 0,000 mm 0,0 UV-I 0 W/m 10,4 C 10,7 C 6,4 km/h (2 Bft) 97,56 %
18.10.2017 04:34 10,7 C 11,7 C 98 % 1016,9 hPa 0,0 l/m 2,9 km/h (1 Bft) S 182 0 min 0,000 mm 0,0 UV-I 0 W/m 10,4 C 10,7 C 4,8 km/h (1 Bft) 96,00 %
18.10.2017 04:36 10,7 C 11,7 C 98 % 1016,9 hPa 0,0 l/m 2,5 km/h (1 Bft) S 178 0 min 0,000 mm 0,0 UV-I 0 W/m 10,4 C 10,7 C 4,8 km/h (1 Bft) 97,87 %
18.10.2017 04:38 10,6 C 11,7 C 98 % 1016,9 hPa 0,0 l/m 0,6 km/h (0 Bft) S 178 0 min 0,000 mm 0,0 UV-I 0 W/m 10,3 C 10,6 C 3,2 km/h (1 Bft) 94,00 %
18.10.2017 04:40 10,6 C 11,7 C 98 % 1016,9 hPa 0,0 l/m 2,2 km/h (1 Bft) S 187 0 min 0,000 mm 0,0 UV-I 0 W/m 10,3 C 10,6 C 4,8 km/h (1 Bft) 95,74 %
18.10.2017 04:42 10,6 C 12,2 C 98 % 1016,9 hPa 0,0 l/m 1,1 km/h (1 Bft) S 186 0 min 0,000 mm 0,0 UV-I 0 W/m 10,3 C 10,6 C 3,2 km/h (1 Bft) 92,68 %
18.10.2017 04:44 10,7 C 11,7 C 98 % 1016,9 hPa 0,0 l/m 1,4 km/h (1 Bft) S 187 0 min 0,000 mm 0,0 UV-I 0 W/m 10,4 C 10,7 C 4,8 km/h (1 Bft) 92,86 %
18.10.2017 04:46 10,7 C 12,2 C 98 % 1016,9 hPa 0,2 l/m 1,2 km/h (1 Bft) S 188 0 min 0,000 mm 0,0 UV-I 0 W/m 10,4 C 10,7 C 3,2 km/h (1 Bft) 95,74 %
18.10.2017 04:48 10,7 C 11,7 C 98 % 1016,9 hPa 0,0 l/m 2,2 km/h (1 Bft) S 188 0 min 0,000 mm 0,0 UV-I 0 W/m 10,4 C 10,7 C 4,8 km/h (1 Bft) 92,68 %
18.10.2017 04:50 10,7 C 11,7 C 98 % 1016,9 hPa 0,0 l/m 3,0 km/h (1 Bft) S-SW 212 0 min 0,000 mm 0,0 UV-I 0 W/m 10,4 C 10,7 C 4,8 km/h (1 Bft) 96,00 %
18.10.2017 04:52 10,7 C 11,7 C 98 % 1016,9 hPa 0,0 l/m 3,6 km/h (1 Bft) S-SW 211 0 min 0,000 mm 0,0 UV-I 0 W/m 10,4 C 10,7 C 6,4 km/h (2 Bft) 96,00 %
18.10.2017 04:54 10,7 C 11,7 C 98 % 1016,9 hPa 0,0 l/m 3,5 km/h (1 Bft) S-SW 211 0 min 0,000 mm 0,0 UV-I 0 W/m 10,4 C 10,7 C 4,8 km/h (1 Bft) 94,44 %
18.10.2017 04:56 10,7 C 11,7 C 98 % 1016,8 hPa 0,0 l/m 2,9 km/h (1 Bft) S-SW 212 0 min 0,000 mm 0,0 UV-I 0 W/m 10,4 C 10,7 C 6,4 km/h (2 Bft) 96,00 %
18.10.2017 04:58 10,7 C 12,2 C 98 % 1016,8 hPa 0,0 l/m 2,9 km/h (1 Bft) S-SW 212 0 min 0,000 mm 0,0 UV-I 0 W/m 10,4 C 10,7 C 4,8 km/h (1 Bft) 97,87 %
18.10.2017 05:00 10,8 C 11,7 C 98 % 1016,8 hPa 0,0 l/m 3,4 km/h (1 Bft) SW 231 0 min 0,000 mm 0,0 UV-I 0 W/m 10,5 C 10,8 C 6,4 km/h (2 Bft) 98,11 %
18.10.2017 05:02 10,8 C 12,2 C 98 % 1016,8 hPa 0,0 l/m 1,3 km/h (1 Bft) S-SW 201 0 min 0,000 mm 0,0 UV-I 0 W/m 10,5 C 10,8 C 3,2 km/h (1 Bft) 97,56 %
18.10.2017 05:04 10,8 C 11,7 C 98 % 1016,8 hPa 0,0 l/m 3,3 km/h (1 Bft) SW 235 0 min 0,000 mm 0,0 UV-I 0 W/m 10,5 C 10,8 C 6,4 km/h (2 Bft) 94,00 %
18.10.2017 05:06 10,8 C 11,7 C 98 % 1016,8 hPa 0,0 l/m 2,9 km/h (1 Bft) S-SW 210 0 min 0,000 mm 0,0 UV-I 0 W/m 10,5 C 10,8 C 4,8 km/h (1 Bft) 98,00 %
18.10.2017 05:08 10,8 C 11,7 C 98 % 1016,8 hPa 0,0 l/m 3,5 km/h (1 Bft) SW 224 0 min 0,000 mm 0,0 UV-I 0 W/m 10,5 C 10,8 C 4,8 km/h (1 Bft) 97,87 %
18.10.2017 05:10 10,8 C 11,7 C 98 % 1016,8 hPa 0,0 l/m 3,1 km/h (1 Bft) SW 227 0 min 0,000 mm 0,0 UV-I 0 W/m 10,5 C 10,8 C 6,4 km/h (2 Bft) 97,14 %
18.10.2017 05:12 10,9 C 11,7 C 98 % 1016,7 hPa 0,0 l/m 3,4 km/h (1 Bft) SW 227 0 min 0,000 mm 0,0 UV-I 0 W/m 10,6 C 10,9 C 4,8 km/h (1 Bft) 98,11 %
18.10.2017 05:14 10,9 C 11,7 C 98 % 1016,7 hPa 0,0 l/m 2,9 km/h (1 Bft) SW 227 0 min 0,000 mm 0,0 UV-I 0 W/m 10,6 C 10,9 C 4,8 km/h (1 Bft) 100,00 %
18.10.2017 05:16 10,9 C 11,7 C 98 % 1016,7 hPa 0,0 l/m 1,7 km/h (1 Bft) SW 227 0 min 0,000 mm 0,0 UV-I 0 W/m 10,6 C 10,9 C 3,2 km/h (1 Bft) 96,30 %
18.10.2017 05:18 10,9 C 11,7 C 98 % 1016,6 hPa 0,0 l/m 2,2 km/h (1 Bft) SW 227 0 min 0,000 mm 0,0 UV-I 0 W/m 10,6 C 10,9 C 3,2 km/h (1 Bft) 100,00 %
18.10.2017 05:20 10,9 C 11,7 C 98 % 1016,6 hPa 0,0 l/m 1,4 km/h (1 Bft) SW 227 0 min 0,000 mm 0,0 UV-I 0 W/m 10,6 C 10,9 C 3,2 km/h (1 Bft) 100,00 %
18.10.2017 05:22 10,9 C 11,7 C 98 % 1016,6 hPa 0,0 l/m 1,3 km/h (1 Bft) SW 227 0 min 0,000 mm 0,0 UV-I 0 W/m 10,6 C 10,9 C 4,8 km/h (1 Bft) 100,00 %
18.10.2017 05:24 10,9 C 11,7 C 98 % 1016,6 hPa 0,0 l/m 2,6 km/h (1 Bft) SW 227 0 min 0,000 mm 0,0 UV-I 0 W/m 10,6 C 10,9 C 4,8 km/h (1 Bft) 100,00 %
18.10.2017 05:26 10,9 C 11,7 C 98 % 1016,6 hPa 0,0 l/m 1,9 km/h (1 Bft) SW 227 0 min 0,000 mm 0,0 UV-I 0 W/m 10,6 C 10,9 C 3,2 km/h (1 Bft) 100,00 %
18.10.2017 05:28 10,9 C 11,7 C 98 % 1016,6 hPa 0,0 l/m 2,0 km/h (1 Bft) SW 227 0 min 0,000 mm 0,0 UV-I 0 W/m 10,6 C 10,9 C 3,2 km/h (1 Bft) 98,00 %
18.10.2017 05:30 10,9 C 12,2 C 98 % 1016,6 hPa 0,0 l/m 3,0 km/h (1 Bft) SW 227 0 min 0,000 mm 0,0 UV-I 0 W/m 10,6 C 10,9 C 4,8 km/h (1 Bft) 97,62 %
18.10.2017 05:32 10,9 C 11,7 C 98 % 1016,5 hPa 0,0 l/m 1,6 km/h (1 Bft) SW 227 0 min 0,000 mm 0,0 UV-I 0 W/m 10,6 C 10,9 C 3,2 km/h (1 Bft) 100,00 %
18.10.2017 05:34 10,9 C 11,7 C 98 % 1016,6 hPa 0,0 l/m 2,1 km/h (1 Bft) SW 227 0 min 0,000 mm 0,0 UV-I 0 W/m 10,6 C 10,9 C 3,2 km/h (1 Bft) 100,00 %
18.10.2017 05:36 10,9 C 11,7 C 98 % 1016,6 hPa 0,0 l/m 0,8 km/h (0 Bft) SW 227 0 min 0,000 mm 0,0 UV-I 0 W/m 10,6 C 10,9 C 3,2 km/h (1 Bft) 97,87 %
18.10.2017 05:38 10,9 C 11,7 C 98 % 1016,6 hPa 0,0 l/m 2,7 km/h (1 Bft) SW 227 0 min 0,000 mm 0,0 UV-I 0 W/m 10,6 C 10,9 C 4,8 km/h (1 Bft) 100,00 %
18.10.2017 05:40 11,0 C 12,2 C 98 % 1016,7 hPa 0,0 l/m 1,9 km/h (1 Bft) SW 227 0 min 0,000 mm 0,0 UV-I 0 W/m 10,7 C 11,0 C 4,8 km/h (1 Bft) 100,00 %
18.10.2017 05:42 11,0 C 11,7 C 98 % 1016,6 hPa 0,0 l/m 1,7 km/h (1 Bft) SW 221 0 min 0,000 mm 0,0 UV-I 0 W/m 10,7 C 11,0 C 3,2 km/h (1 Bft) 95,74 %
18.10.2017 05:44 11,0 C 11,7 C 98 % 1016,6 hPa 0,0 l/m 2,5 km/h (1 Bft) SW 221 0 min 0,000 mm 0,0 UV-I 0 W/m 10,7 C 11,0 C 4,8 km/h (1 Bft) 100,00 %
18.10.2017 05:46 11,0 C 12,2 C 98 % 1016,6 hPa 0,0 l/m 3,8 km/h (1 Bft) S-SW 209 0 min 0,000 mm 0,0 UV-I 0 W/m 10,7 C 11,0 C 6,4 km/h (2 Bft) 100,00 %
18.10.2017 05:48 11,0 C 11,7 C 98 % 1016,7 hPa 0,0 l/m 4,9 km/h (1 Bft) S-SW 211 0 min 0,000 mm 0,0 UV-I 0 W/m 10,7 C 11,0 C 6,4 km/h (2 Bft) 98,46 %
18.10.2017 05:50 11,1 C 11,7 C 98 % 1016,7 hPa 0,0 l/m 3,4 km/h (1 Bft) S-SW 211 0 min 0,000 mm 0,0 UV-I 0 W/m 10,8 C 11,1 C 6,4 km/h (2 Bft) 100,00 %
18.10.2017 05:52 11,1 C 11,7 C 98 % 1016,7 hPa 0,0 l/m 3,7 km/h (1 Bft) W-SW 254 0 min 0,000 mm 0,0 UV-I 0 W/m 10,8 C 11,1 C 6,4 km/h (2 Bft) 100,00 %
18.10.2017 05:54 11,1 C 11,7 C 98 % 1016,7 hPa 0,0 l/m 2,8 km/h (1 Bft) S-SW 213 0 min 0,000 mm 0,0 UV-I 0 W/m 10,8 C 11,1 C 6,4 km/h (2 Bft) 100,00 %
18.10.2017 05:56 11,1 C 11,7 C 98 % 1016,6 hPa 0,0 l/m 3,1 km/h (1 Bft) W-SW 243 0 min 0,000 mm 0,0 UV-I 0 W/m 10,8 C 11,1 C 6,4 km/h (2 Bft) 97,37 %
18.10.2017 05:58 11,1 C 11,7 C 98 % 1016,6 hPa 0,0 l/m 2,9 km/h (1 Bft) W-SW 238 0 min 0,000 mm 0,0 UV-I 0 W/m 10,8 C 11,1 C 4,8 km/h (1 Bft) 100,00 %
18.10.2017 06:00 11,1 C 11,7 C 98 % 1016,6 hPa 0,0 l/m 3,6 km/h (1 Bft) S-SW 193 0 min 0,000 mm 0,0 UV-I 0 W/m 10,8 C 11,1 C 6,4 km/h (2 Bft) 100,00 %
18.10.2017 06:02 11,1 C 12,2 C 98 % 1016,6 hPa 0,0 l/m 4,7 km/h (1 Bft) W 259 0 min 0,000 mm 0,0 UV-I 0 W/m 10,8 C 11,1 C 6,4 km/h (2 Bft) 100,00 %
18.10.2017 06:04 11,1 C 12,2 C 98 % 1016,5 hPa 0,0 l/m 4,7 km/h (1 Bft) W-SW 254 0 min 0,000 mm 0,0 UV-I 0 W/m 10,8 C 11,1 C 8,0 km/h (2 Bft) 100,00 %
18.10.2017 06:06 11,1 C 11,7 C 98 % 1016,5 hPa 0,0 l/m 3,5 km/h (1 Bft) W 279 0 min 0,000 mm 0,0 UV-I 0 W/m 10,8 C 11,1 C 4,8 km/h (1 Bft) 100,00 %
18.10.2017 06:08 11,1 C 12,2 C 98 % 1016,5 hPa 0,0 l/m 3,3 km/h (1 Bft) W-SW 255 0 min 0,000 mm 0,0 UV-I 0 W/m 10,8 C 11,1 C 6,4 km/h (2 Bft) 97,92 %
18.10.2017 06:10 11,1 C 12,2 C 98 % 1016,5 hPa 0,0 l/m 3,0 km/h (1 Bft) W-SW 253 0 min 0,000 mm 0,0 UV-I 0 W/m 10,8 C 11,1 C 6,4 km/h (2 Bft) 100,00 %
18.10.2017 06:12 11,1 C 12,2 C 98 % 1016,5 hPa 0,0 l/m 4,6 km/h (1 Bft) W 262 0 min 0,000 mm 0,0 UV-I 0 W/m 10,8 C 11,1 C 6,4 km/h (2 Bft) 100,00 %
18.10.2017 06:14 11,1 C 11,7 C 98 % 1016,4 hPa 0,0 l/m 4,3 km/h (1 Bft) W 263 0 min 0,000 mm 0,0 UV-I 0 W/m 10,8 C 11,1 C 6,4 km/h (2 Bft) 100,00 %
18.10.2017 06:16 11,1 C 12,2 C 98 % 1016,4 hPa 0,0 l/m 2,7 km/h (1 Bft) W 263 0 min 0,000 mm 0,0 UV-I 0 W/m 10,8 C 11,1 C 4,8 km/h (1 Bft) 100,00 %
18.10.2017 06:18 11,1 C 11,7 C 98 % 1016,4 hPa 0,0 l/m 1,2 km/h (1 Bft) W 263 0 min 0,000 mm 0,0 UV-I 0 W/m 10,8 C 11,1 C 3,2 km/h (1 Bft) 100,00 %
18.10.2017 06:20 11,1 C 12,2 C 98 % 1016,4 hPa 0,0 l/m 3,4 km/h (1 Bft) W 266 0 min 0,000 mm 0,0 UV-I 0 W/m 10,8 C 11,1 C 6,4 km/h (2 Bft) 100,00 %
18.10.2017 06:22 11,1 C 12,2 C 98 % 1016,4 hPa 0,0 l/m 2,8 km/h (1 Bft) W 265 0 min 0,000 mm 0,0 UV-I 0 W/m 10,8 C 11,1 C 4,8 km/h (1 Bft) 100,00 %
18.10.2017 06:24 11,1 C 12,2 C 98 % 1016,4 hPa 0,0 l/m 2,3 km/h (1 Bft) W 269 0 min 0,000 mm 0,0 UV-I 0 W/m 10,8 C 11,1 C 4,8 km/h (1 Bft) 100,00 %
18.10.2017 06:26 11,1 C 12,2 C 98 % 1016,4 hPa 0,0 l/m 5,7 km/h (1 Bft) W-SW 255 0 min 0,000 mm 0,0 UV-I 0 W/m 10,8 C 11,1 C 9,7 km/h (2 Bft) 100,00 %
18.10.2017 06:28 11,0 C 12,2 C 98 % 1016,5 hPa 0,0 l/m 6,4 km/h (2 Bft) SW 234 0 min 0,000 mm 0,0 UV-I 0 W/m 10,7 C 11,0 C 8,0 km/h (2 Bft) 100,00 %
18.10.2017 06:30 11,0 C 12,2 C 98 % 1016,5 hPa 0,0 l/m 5,4 km/h (1 Bft) SW 227 0 min 0,000 mm 0,0 UV-I 0 W/m 10,7 C 11,0 C 8,0 km/h (2 Bft) 96,23 %
18.10.2017 06:32 10,9 C 12,2 C 98 % 1016,5 hPa 0,0 l/m 5,2 km/h (1 Bft) W-SW 254 0 min 0,000 mm 0,0 UV-I 0 W/m 10,6 C 10,9 C 9,7 km/h (2 Bft) 100,00 %
18.10.2017 06:34 10,9 C 12,2 C 98 % 1016,5 hPa 0,0 l/m 3,9 km/h (1 Bft) W-SW 256 0 min 0,000 mm 0,0 UV-I 0 W/m 10,6 C 10,9 C 6,4 km/h (2 Bft) 100,00 %
18.10.2017 06:36 10,9 C 11,7 C 98 % 1016,4 hPa 0,0 l/m 4,7 km/h (1 Bft) W 260 0 min 0,000 mm 0,0 UV-I 0 W/m 10,6 C 10,9 C 6,4 km/h (2 Bft) 100,00 %
18.10.2017 06:38 10,9 C 12,2 C 98 % 1016,5 hPa 0,0 l/m 4,0 km/h (1 Bft) W-SW 247 0 min 0,000 mm 0,0 UV-I 0 W/m 10,6 C 10,9 C 6,4 km/h (2 Bft) 97,56 %
18.10.2017 06:40 10,9 C 12,2 C 98 % 1016,5 hPa 0,0 l/m 4,4 km/h (1 Bft) W-SW 240 0 min 0,000 mm 0,0 UV-I 0 W/m 10,6 C 10,9 C 6,4 km/h (2 Bft) 97,56 %
18.10.2017 06:42 10,9 C 11,7 C 98 % 1016,5 hPa 0,0 l/m 3,1 km/h (1 Bft) W-NW 284 0 min 0,000 mm 0,0 UV-I 0 W/m 10,6 C 10,9 C 6,4 km/h (2 Bft) 92,31 %
18.10.2017 06:44 10,9 C 12,2 C 98 % 1016,5 hPa 0,0 l/m 1,7 km/h (1 Bft) W-NW 282 0 min 0,000 mm 0,0 UV-I 0 W/m 10,6 C 10,9 C 3,2 km/h (1 Bft) 97,62 %
18.10.2017 06:46 10,9 C 12,2 C 98 % 1016,5 hPa 0,0 l/m 2,7 km/h (1 Bft) W-SW 242 0 min 0,000 mm 0,0 UV-I 0 W/m 10,6 C 10,9 C 4,8 km/h (1 Bft) 98,18 %
18.10.2017 06:48 10,9 C 12,2 C 98 % 1016,4 hPa 0,0 l/m 2,6 km/h (1 Bft) W-SW 244 0 min 0,000 mm 0,0 UV-I 0 W/m 10,6 C 10,9 C 4,8 km/h (1 Bft) 93,75 %
18.10.2017 06:50 10,9 C 12,2 C 98 % 1016,4 hPa 0,0 l/m 2,8 km/h (1 Bft) SW 232 0 min 0,000 mm 0,0 UV-I 0 W/m 10,6 C 10,9 C 6,4 km/h (2 Bft) 97,87 %
18.10.2017 06:52 10,9 C 12,2 C 98 % 1016,4 hPa 0,0 l/m 4,4 km/h (1 Bft) SW 236 0 min 0,000 mm 0,0 UV-I 0 W/m 10,6 C 10,9 C 6,4 km/h (2 Bft) 98,00 %
18.10.2017 06:54 10,9 C 12,2 C 98 % 1016,4 hPa 0,0 l/m 3,8 km/h (1 Bft) W 261 0 min 0,000 mm 0,0 UV-I 0 W/m 10,6 C 10,9 C 6,4 km/h (2 Bft) 97,56 %
18.10.2017 06:56 10,8 C 12,2 C 98 % 1016,4 hPa 0,0 l/m 3,3 km/h (1 Bft) W 262 0 min 0,000 mm 0,0 UV-I 0 W/m 10,5 C 10,8 C 4,8 km/h (1 Bft) 98,11 %
18.10.2017 06:58 10,8 C 12,2 C 98 % 1016,3 hPa 0,0 l/m 3,6 km/h (1 Bft) SW 229 0 min 0,000 mm 0,0 UV-I 0 W/m 10,5 C 10,8 C 4,8 km/h (1 Bft) 97,37 %
18.10.2017 07:00 10,8 C 12,2 C 98 % 1016,4 hPa 0,0 l/m 5,0 km/h (1 Bft) SW 229 0 min 0,000 mm 0,0 UV-I 0 W/m 10,5 C 10,8 C 8,0 km/h (2 Bft) 95,74 %
18.10.2017 07:02 10,8 C 12,2 C 98 % 1016,4 hPa 0,0 l/m 5,4 km/h (1 Bft) SW 233 0 min 0,000 mm 0,0 UV-I 0 W/m 10,5 C 10,8 C 8,0 km/h (2 Bft) 97,87 %
18.10.2017 07:04 10,8 C 12,2 C 98 % 1016,3 hPa 0,0 l/m 3,8 km/h (1 Bft) W 261 0 min 0,000 mm 0,0 UV-I 0 W/m 10,5 C 10,8 C 8,0 km/h (2 Bft) 98,00 %
18.10.2017 07:06 10,8 C 12,2 C 98 % 1016,3 hPa 0,0 l/m 2,5 km/h (1 Bft) W-SW 251 0 min 0,000 mm 0,0 UV-I 0 W/m 10,5 C 10,8 C 4,8 km/h (1 Bft) 96,23 %
18.10.2017 07:08 10,8 C 12,2 C 98 % 1016,3 hPa 0,0 l/m 1,5 km/h (1 Bft) W-SW 251 0 min 0,000 mm 0,0 UV-I 0 W/m 10,5 C 10,8 C 4,8 km/h (1 Bft) 97,87 %
18.10.2017 07:10 10,8 C 12,2 C 98 % 1016,3 hPa 0,0 l/m 2,6 km/h (1 Bft) W-SW 251 0 min 0,000 mm 0,0 UV-I 0 W/m 10,5 C 10,8 C 4,8 km/h (1 Bft) 100,00 %
18.10.2017 07:12 10,7 C 12,2 C 98 % 1016,3 hPa 0,0 l/m 1,0 km/h (0 Bft) W-SW 251 0 min 0,000 mm 0,0 UV-I 0 W/m 10,4 C 10,7 C 3,2 km/h (1 Bft) 96,00 %
18.10.2017 07:14 10,7 C 12,2 C 98 % 1016,3 hPa 0,0 l/m 2,3 km/h (1 Bft) W-SW 251 0 min 0,000 mm 0,0 UV-I 0 W/m 10,4 C 10,7 C 3,2 km/h (1 Bft) 100,00 %
18.10.2017 07:16 10,7 C 12,2 C 98 % 1016,3 hPa 0,0 l/m 3,2 km/h (1 Bft) SW 223 0 min 0,000 mm 0,0 UV-I 0 W/m 10,4 C 10,7 C 4,8 km/h (1 Bft) 100,00 %
18.10.2017 07:18 10,7 C 12,2 C 98 % 1016,3 hPa 0,0 l/m 4,7 km/h (1 Bft) S-SW 207 0 min 0,000 mm 0,0 UV-I 0 W/m 10,4 C 10,7 C 8,0 km/h (2 Bft) 100,00 %
18.10.2017 07:20 10,6 C 12,2 C 98 % 1016,4 hPa 0,0 l/m 5,0 km/h (1 Bft) S-SW 208 0 min 0,000 mm 0,0 UV-I 0 W/m 10,3 C 10,6 C 6,4 km/h (2 Bft) 100,00 %
18.10.2017 07:22 10,6 C 12,2 C 98 % 1016,3 hPa 0,0 l/m 2,6 km/h (1 Bft) S-SW 208 0 min 0,000 mm 0,0 UV-I 0 W/m 10,3 C 10,6 C 6,4 km/h (2 Bft) 98,00 %
18.10.2017 07:24 10,6 C 12,2 C 98 % 1016,4 hPa 0,0 l/m 2,9 km/h (1 Bft) W-SW 239 0 min 0,000 mm 0,0 UV-I 0 W/m 10,3 C 10,6 C 4,8 km/h (1 Bft) 100,00 %
18.10.2017 07:26 10,6 C 12,2 C 98 % 1016,4 hPa 0,0 l/m 2,9 km/h (1 Bft) W-SW 239 0 min 0,000 mm 0,0 UV-I 0 W/m 10,3 C 10,6 C 4,8 km/h (1 Bft) 100,00 %
18.10.2017 07:28 10,6 C 12,2 C 98 % 1016,4 hPa 0,0 l/m 3,5 km/h (1 Bft) W-SW 239 0 min 0,000 mm 0,0 UV-I 0 W/m 10,3 C 10,6 C 4,8 km/h (1 Bft) 100,00 %
18.10.2017 07:30 10,5 C 12,2 C 98 % 1016,4 hPa 0,0 l/m 2,6 km/h (1 Bft) W-SW 239 0 min 0,000 mm 0,0 UV-I 1 W/m 10,2 C 10,5 C 4,8 km/h (1 Bft) 97,87 %
18.10.2017 07:32 10,5 C 12,2 C 98 % 1016,4 hPa 0,0 l/m 4,4 km/h (1 Bft) SW 219 0 min 0,000 mm 0,0 UV-I 5 W/m 10,2 C 10,5 C 6,4 km/h (2 Bft) 98,00 %
18.10.2017 07:34 10,5 C 12,2 C 98 % 1016,5 hPa 0,0 l/m 3,6 km/h (1 Bft) S-SW 208 0 min 0,000 mm 0,0 UV-I 5 W/m 10,2 C 10,5 C 6,4 km/h (2 Bft) 100,00 %
18.10.2017 07:36 10,4 C 12,2 C 98 % 1016,5 hPa 0,0 l/m 5,1 km/h (1 Bft) S-SW 204 0 min 0,000 mm 0,0 UV-I 5 W/m 10,1 C 10,4 C 8,0 km/h (2 Bft) 98,00 %
18.10.2017 07:38 10,4 C 12,2 C 98 % 1016,5 hPa 0,0 l/m 5,2 km/h (1 Bft) S-SW 211 0 min 0,000 mm 0,0 UV-I 5 W/m 10,1 C 10,4 C 6,4 km/h (2 Bft) 97,37 %
18.10.2017 07:40 10,4 C 12,2 C 98 % 1016,5 hPa 0,0 l/m 2,1 km/h (1 Bft) S-SW 211 0 min 0,000 mm 0,0 UV-I 6 W/m 10,1 C 10,4 C 4,8 km/h (1 Bft) 98,00 %
18.10.2017 07:42 10,4 C 12,2 C 98 % 1016,5 hPa 0,0 l/m 0,0 km/h (0 Bft) S-SW 211 0 min 0,000 mm 0,0 UV-I 7 W/m 10,1 C 10,4 C 0,0 km/h (0 Bft) 94,00 %
18.10.2017 07:44 10,4 C 12,2 C 98 % 1016,5 hPa 0,0 l/m 0,7 km/h (0 Bft) S-SW 211 0 min 0,000 mm 0,0 UV-I 7 W/m 10,1 C 10,4 C 3,2 km/h (1 Bft) 97,56 %
18.10.2017 07:46 10,4 C 12,2 C 98 % 1016,5 hPa 0,0 l/m 2,8 km/h (1 Bft) S-SW 198 0 min 0,000 mm 0,0 UV-I 7 W/m 10,1 C 10,4 C 6,4 km/h (2 Bft) 98,00 %
18.10.2017 07:48 10,3 C 12,2 C 98 % 1016,5 hPa 0,0 l/m 0,9 km/h (0 Bft) S-SW 198 0 min 0,000 mm 0,0 UV-I 9 W/m 10,0 C 10,3 C 3,2 km/h (1 Bft) 97,87 %
18.10.2017 07:50 10,3 C 12,2 C 98 % 1016,5 hPa 0,0 l/m 0,5 km/h (0 Bft) S-SW 198 0 min 0,000 mm 0,0 UV-I 9 W/m 10,0 C 10,3 C 1,6 km/h (1 Bft) 97,56 %
18.10.2017 07:52 10,3 C 12,2 C 98 % 1016,5 hPa 0,0 l/m 0,0 km/h (0 Bft) S-SW 198 0 min 0,000 mm 0,0 UV-I 10 W/m 10,0 C 10,3 C 1,6 km/h (1 Bft) 98,00 %
18.10.2017 07:54 10,4 C 12,2 C 98 % 1016,5 hPa 0,0 l/m 1,8 km/h (1 Bft) S-SW 198 0 min 0,000 mm 0,0 UV-I 11 W/m 10,1 C 10,4 C 3,2 km/h (1 Bft) 96,23 %
18.10.2017 07:56 10,4 C 12,2 C 98 % 1016,5 hPa 0,0 l/m 1,2 km/h (1 Bft) S-SW 198 0 min 0,000 mm 0,0 UV-I 11 W/m 10,1 C 10,4 C 3,2 km/h (1 Bft) 97,56 %
18.10.2017 07:58 10,4 C 12,2 C 98 % 1016,5 hPa 0,0 l/m 2,4 km/h (1 Bft) SW 234 0 min 0,000 mm 0,0 UV-I 11 W/m 10,1 C 10,4 C 4,8 km/h (1 Bft) 98,00 %
18.10.2017 08:00 10,4 C 12,2 C 98 % 1016,5 hPa 0,0 l/m 3,1 km/h (1 Bft) S-SW 213 0 min 0,000 mm 0,0 UV-I 12 W/m 10,1 C 10,4 C 4,8 km/h (1 Bft) 97,37 %
18.10.2017 08:02 10,4 C 12,2 C 98 % 1016,5 hPa 0,0 l/m 2,2 km/h (1 Bft) S-SW 213 0 min 0,000 mm 0,0 UV-I 12 W/m 10,1 C 10,4 C 4,8 km/h (1 Bft) 96,23 %
18.10.2017 08:04 10,4 C 12,2 C 98 % 1016,5 hPa 0,0 l/m 0,6 km/h (0 Bft) S-SW 213 0 min 0,000 mm 0,0 UV-I 12 W/m 10,1 C 10,4 C 1,6 km/h (1 Bft) 98,00 %
18.10.2017 08:06 10,4 C 12,2 C 98 % 1016,5 hPa 0,0 l/m 0,7 km/h (0 Bft) S-SW 213 0 min 0,000 mm 0,0 UV-I 12 W/m 10,1 C 10,4 C 1,6 km/h (1 Bft) 94,00 %
18.10.2017 08:08 10,4 C 12,2 C 98 % 1016,5 hPa 0,0 l/m 0,9 km/h (0 Bft) S-SW 195 0 min 0,000 mm 0,0 UV-I 14 W/m 10,1 C 10,4 C 3,2 km/h (1 Bft) 97,62 %
18.10.2017 08:10 10,3 C 12,2 C 98 % 1016,5 hPa 0,0 l/m 2,1 km/h (1 Bft) S-SO 156 0 min 0,000 mm 0,0 UV-I 14 W/m 10,0 C 10,3 C 4,8 km/h (1 Bft) 98,00 %
18.10.2017 08:12 10,3 C 11,7 C 98 % 1016,5 hPa 0,0 l/m 2,3 km/h (1 Bft) S 179 0 min 0,000 mm 0,0 UV-I 16 W/m 10,0 C 10,3 C 6,4 km/h (2 Bft) 97,87 %
18.10.2017 08:14 10,3 C 12,2 C 98 % 1016,5 hPa 0,0 l/m 1,5 km/h (1 Bft) S 169 0 min 0,000 mm 0,0 UV-I 19 W/m 10,0 C 10,3 C 3,2 km/h (1 Bft) 97,37 %
18.10.2017 08:16 10,3 C 12,2 C 98 % 1016,5 hPa 0,0 l/m 1,3 km/h (1 Bft) S 173 0 min 0,000 mm 0,0 UV-I 23 W/m 10,0 C 10,3 C 4,8 km/h (1 Bft) 97,87 %
18.10.2017 08:19 10,3 C 12,2 C 98 % 1016,5 hPa 0,0 l/m 0,9 km/h (0 Bft) S 173 0 min 0,000 mm 0,0 UV-I 23 W/m 10,0 C 10,3 C 3,2 km/h (1 Bft) 95,12 %
18.10.2017 08:20 10,3 C 12,2 C 98 % 1016,6 hPa 0,0 l/m 0,4 km/h (0 Bft) S 173 0 min 0,000 mm 0,0 UV-I 24 W/m 10,0 C 10,3 C 1,6 km/h (1 Bft) 91,67 %
18.10.2017 08:22 10,3 C 12,2 C 98 % 1016,6 hPa 0,0 l/m 0,9 km/h (0 Bft) S 173 0 min 0,000 mm 0,0 UV-I 24 W/m 10,0 C 10,3 C 3,2 km/h (1 Bft) 97,87 %
18.10.2017 08:24 10,3 C 12,2 C 98 % 1016,6 hPa 0,0 l/m 1,2 km/h (1 Bft) S 173 0 min 0,000 mm 0,0 UV-I 24 W/m 10,0 C 10,3 C 3,2 km/h (1 Bft) 97,87 %
18.10.2017 08:26 10,3 C 12,2 C 98 % 1016,6 hPa 0,0 l/m 0,8 km/h (0 Bft) S 173 0 min 0,000 mm 0,0 UV-I 19 W/m 10,0 C 10,3 C 3,2 km/h (1 Bft) 95,74 %
18.10.2017 08:28 10,3 C 12,2 C 98 % 1016,6 hPa 0,0 l/m 0,9 km/h (0 Bft) S 173 0 min 0,000 mm 0,0 UV-I 21 W/m 10,0 C 10,3 C 3,2 km/h (1 Bft) 97,87 %
18.10.2017 08:30 10,3 C 12,2 C 98 % 1016,6 hPa 0,0 l/m 0,3 km/h (0 Bft) S 173 0 min 0,000 mm 0,0 UV-I 22 W/m 10,0 C 10,3 C 1,6 km/h (1 Bft) 93,62 %
18.10.2017 08:32 10,3 C 12,2 C 98 % 1016,6 hPa 0,0 l/m 0,0 km/h (0 Bft) S 173 0 min 0,000 mm 0,0 UV-I 26 W/m 10,0 C 10,3 C 1,6 km/h (1 Bft) 98,00 %
18.10.2017 08:34 10,2 C 11,7 C 98 % 1016,6 hPa 0,0 l/m 0,0 km/h (0 Bft) S 173 0 min 0,000 mm 0,0 UV-I 27 W/m 9,9 C 10,2 C 0,0 km/h (0 Bft) 98,00 %
18.10.2017 08:36 10,3 C 12,2 C 98 % 1016,6 hPa 0,0 l/m 0,0 km/h (0 Bft) S 173 0 min 0,000 mm 0,0 UV-I 30 W/m 10,0 C 10,3 C 0,0 km/h (0 Bft) 97,87 %
18.10.2017 08:38 10,3 C 12,2 C 98 % 1016,5 hPa 0,0 l/m 1,2 km/h (1 Bft) S 173 0 min 0,000 mm 0,0 UV-I 29 W/m 10,0 C 10,3 C 3,2 km/h (1 Bft) 95,74 %
18.10.2017 08:40 10,3 C 12,2 C 98 % 1016,6 hPa 0,0 l/m 1,1 km/h (1 Bft) S 173 0 min 0,000 mm 0,0 UV-I 30 W/m 10,0 C 10,3 C 3,2 km/h (1 Bft) 97,37 %
18.10.2017 08:42 10,3 C 12,2 C 98 % 1016,6 hPa 0,0 l/m 2,0 km/h (1 Bft) S 173 0 min 0,000 mm 0,0 UV-I 37 W/m 10,0 C 10,3 C 3,2 km/h (1 Bft) 98,21 %
18.10.2017 08:44 10,3 C 12,2 C 98 % 1016,6 hPa 0,0 l/m 2,2 km/h (1 Bft) S 188 0 min 0,000 mm 0,0 UV-I 40 W/m 10,0 C 10,3 C 4,8 km/h (1 Bft) 97,44 %
18.10.2017 08:46 10,4 C 12,2 C 98 % 1016,6 hPa 0,0 l/m 3,3 km/h (1 Bft) S 188 0 min 0,000 mm 0,0 UV-I 43 W/m 10,1 C 10,4 C 4,8 km/h (1 Bft) 98,00 %
18.10.2017 08:48 10,4 C 12,2 C 98 % 1016,6 hPa 0,0 l/m 2,1 km/h (1 Bft) S 188 0 min 0,000 mm 0,0 UV-I 37 W/m 10,1 C 10,4 C 4,8 km/h (1 Bft) 97,87 %
18.10.2017 08:50 10,5 C 12,2 C 98 % 1016,6 hPa 0,0 l/m 2,4 km/h (1 Bft) S-SW 208 0 min 0,000 mm 0,0 UV-I 43 W/m 10,2 C 10,5 C 4,8 km/h (1 Bft) 95,74 %
18.10.2017 08:52 10,5 C 12,2 C 98 % 1016,7 hPa 0,0 l/m 2,1 km/h (1 Bft) S-SW 208 0 min 0,000 mm 0,0 UV-I 48 W/m 10,2 C 10,5 C 4,8 km/h (1 Bft) 97,56 %
18.10.2017 08:54 10,6 C 12,2 C 98 % 1016,7 hPa 0,0 l/m 0,3 km/h (0 Bft) S-SW 194 0 min 0,000 mm 0,0 UV-I 52 W/m 10,3 C 10,6 C 1,6 km/h (1 Bft) 98,00 %
18.10.2017 08:56 10,5 C 12,2 C 98 % 1016,7 hPa 0,0 l/m 1,4 km/h (1 Bft) S 189 0 min 0,000 mm 0,0 UV-I 52 W/m 10,2 C 10,5 C 4,8 km/h (1 Bft) 95,74 %
18.10.2017 08:58 10,5 C 12,2 C 98 % 1016,7 hPa 0,0 l/m 0,7 km/h (0 Bft) S 189 0 min 0,000 mm 0,0 UV-I 56 W/m 10,2 C 10,5 C 3,2 km/h (1 Bft) 96,00 %
18.10.2017 09:00 10,6 C 12,2 C 98 % 1016,7 hPa 0,0 l/m 1,5 km/h (1 Bft) S 189 0 min 0,025 mm 0,0 UV-I 61 W/m 10,3 C 10,6 C 3,2 km/h (1 Bft) 97,87 %
18.10.2017 09:02 10,6 C 12,2 C 98 % 1016,7 hPa 0,0 l/m 1,7 km/h (1 Bft) S 188 0 min 0,000 mm 0,0 UV-I 62 W/m 10,3 C 10,6 C 4,8 km/h (1 Bft) 95,74 %
18.10.2017 09:04 10,6 C 11,7 C 98 % 1016,7 hPa 0,0 l/m 1,0 km/h (0 Bft) S 188 0 min 0,000 mm 0,0 UV-I 57 W/m 10,3 C 10,6 C 4,8 km/h (1 Bft) 96,23 %
18.10.2017 09:06 10,6 C 11,7 C 98 % 1016,7 hPa 0,0 l/m 1,6 km/h (1 Bft) S 188 0 min 0,000 mm 0,0 UV-I 60 W/m 10,3 C 10,6 C 3,2 km/h (1 Bft) 97,56 %
18.10.2017 09:08 10,6 C 12,2 C 98 % 1016,7 hPa 0,0 l/m 1,2 km/h (1 Bft) S 188 0 min 0,000 mm 0,0 UV-I 63 W/m 10,3 C 10,6 C 3,2 km/h (1 Bft) 98,04 %
18.10.2017 09:10 10,6 C 11,7 C 98 % 1016,7 hPa 0,0 l/m 1,7 km/h (1 Bft) S 184 0 min 0,000 mm 0,0 UV-I 66 W/m 10,3 C 10,6 C 4,8 km/h (1 Bft) 97,87 %
18.10.2017 09:12 10,6 C 11,7 C 98 % 1016,7 hPa 0,0 l/m 0,9 km/h (0 Bft) S 184 0 min 0,000 mm 0,0 UV-I 66 W/m 10,3 C 10,6 C 1,6 km/h (1 Bft) 100,00 %
18.10.2017 09:14 10,6 C 11,7 C 98 % 1016,7 hPa 0,0 l/m 1,9 km/h (1 Bft) SW 232 0 min 0,000 mm 0,0 UV-I 59 W/m 10,3 C 10,6 C 4,8 km/h (1 Bft) 97,87 %
18.10.2017 09:16 10,6 C 12,2 C 98 % 1016,7 hPa 0,0 l/m 3,6 km/h (1 Bft) SW 231 0 min 0,000 mm 0,0 UV-I 59 W/m 10,3 C 10,6 C 4,8 km/h (1 Bft) 100,00 %
18.10.2017 09:18 10,6 C 11,7 C 98 % 1016,7 hPa 0,0 l/m 3,9 km/h (1 Bft) SW 231 0 min 0,000 mm 0,0 UV-I 60 W/m 10,3 C 10,6 C 4,8 km/h (1 Bft) 97,37 %
18.10.2017 09:20 10,6 C 11,7 C 98 % 1016,7 hPa 0,0 l/m 2,4 km/h (1 Bft) SW 231 0 min 0,000 mm 0,0 UV-I 55 W/m 10,3 C 10,6 C 3,2 km/h (1 Bft) 98,11 %
18.10.2017 09:22 10,6 C 11,7 C 98 % 1016,6 hPa 0,0 l/m 1,0 km/h (0 Bft) SW 231 0 min 0,000 mm 0,0 UV-I 59 W/m 10,3 C 10,6 C 3,2 km/h (1 Bft) 100,00 %
18.10.2017 09:24 10,7 C 12,2 C 98 % 1016,6 hPa 0,0 l/m 0,4 km/h (0 Bft) SW 232 0 min 0,000 mm 0,0 UV-I 72 W/m 10,4 C 10,7 C 1,6 km/h (1 Bft) 100,00 %
18.10.2017 09:26 10,7 C 12,2 C 98 % 1016,6 hPa 0,0 l/m 1,4 km/h (1 Bft) SW 232 0 min 0,000 mm 0,0 UV-I 82 W/m 10,4 C 10,7 C 3,2 km/h (1 Bft) 96,92 %
18.10.2017 09:28 10,7 C 12,2 C 98 % 1016,6 hPa 0,0 l/m 1,6 km/h (1 Bft) SW 232 0 min 0,000 mm 0,0 UV-I 83 W/m 10,4 C 10,7 C 3,2 km/h (1 Bft) 100,00 %
18.10.2017 09:30 10,7 C 12,2 C 98 % 1016,6 hPa 0,0 l/m 0,8 km/h (0 Bft) W 279 0 min 0,000 mm 0,0 UV-I 85 W/m 10,4 C 10,7 C 3,2 km/h (1 Bft) 100,00 %
18.10.2017 09:32 10,8 C 12,2 C 98 % 1016,6 hPa 0,0 l/m 1,3 km/h (1 Bft) W 278 0 min 0,000 mm 0,0 UV-I 93 W/m 10,5 C 10,8 C 3,2 km/h (1 Bft) 98,00 %
18.10.2017 09:34 10,8 C 12,2 C 98 % 1016,7 hPa 0,0 l/m 1,9 km/h (1 Bft) W 278 0 min 0,000 mm 0,0 UV-I 96 W/m 10,5 C 10,8 C 3,2 km/h (1 Bft) 100,00 %
18.10.2017 09:36 10,8 C 12,2 C 98 % 1016,6 hPa 0,0 l/m 1,0 km/h (0 Bft) W 278 0 min 0,000 mm 0,0 UV-I 102 W/m 10,5 C 10,8 C 3,2 km/h (1 Bft) 100,00 %
18.10.2017 09:38 10,8 C 12,2 C 98 % 1016,6 hPa 0,0 l/m 0,0 km/h (0 Bft) W 278 0 min 0,000 mm 0,0 UV-I 110 W/m 10,5 C 10,8 C 1,6 km/h (1 Bft) 97,56 %
18.10.2017 09:40 10,8 C 12,2 C 98 % 1016,6 hPa 0,0 l/m 1,0 km/h (0 Bft) W 279 0 min 0,000 mm 0,0 UV-I 106 W/m 10,5 C 10,8 C 3,2 km/h (1 Bft) 97,87 %
18.10.2017 09:42 10,8 C 12,2 C 98 % 1016,6 hPa 0,0 l/m 3,1 km/h (1 Bft) W-NW 293 0 min 0,000 mm 0,0 UV-I 101 W/m 10,5 C 10,8 C 4,8 km/h (1 Bft) 100,00 %
18.10.2017 09:44 10,8 C 12,2 C 98 % 1016,6 hPa 0,0 l/m 0,7 km/h (0 Bft) NW 304 0 min 0,000 mm 0,0 UV-I 103 W/m 10,5 C 10,8 C 3,2 km/h (1 Bft) 100,00 %
18.10.2017 09:46 10,9 C 12,2 C 98 % 1016,7 hPa 0,0 l/m 1,1 km/h (1 Bft) NW 324 0 min 0,000 mm 0,0 UV-I 110 W/m 10,6 C 10,9 C 3,2 km/h (1 Bft) 100,00 %
18.10.2017 09:48 10,9 C 12,2 C 98 % 1016,8 hPa 0,0 l/m 0,1 km/h (0 Bft) NW 324 0 min 0,000 mm 0,0 UV-I 110 W/m 10,6 C 10,9 C 1,6 km/h (1 Bft) 100,00 %
18.10.2017 09:50 10,9 C 12,2 C 98 % 1016,7 hPa 0,0 l/m 0,1 km/h (0 Bft) NW 324 0 min 0,000 mm 0,0 UV-I 114 W/m 10,6 C 10,9 C 1,6 km/h (1 Bft) 100,00 %
18.10.2017 09:52 10,9 C 12,2 C 98 % 1016,8 hPa 0,0 l/m 0,1 km/h (0 Bft) NW 324 0 min 0,000 mm 0,0 UV-I 131 W/m 10,6 C 10,9 C 1,6 km/h (1 Bft) 100,00 %
18.10.2017 09:54 11,0 C 12,2 C 98 % 1016,8 hPa 0,0 l/m 3,0 km/h (1 Bft) W 280 0 min 0,000 mm 0,0 UV-I 134 W/m 10,7 C 11,0 C 4,8 km/h (1 Bft) 100,00 %
18.10.2017 09:56 10,9 C 12,2 C 98 % 1016,8 hPa 0,0 l/m 2,0 km/h (1 Bft) W 280 0 min 0,000 mm 0,0 UV-I 132 W/m 10,6 C 10,9 C 3,2 km/h (1 Bft) 100,00 %
18.10.2017 09:58 10,9 C 12,2 C 98 % 1016,8 hPa 0,0 l/m 0,8 km/h (0 Bft) W 281 0 min 0,000 mm 0,0 UV-I 110 W/m 10,6 C 10,9 C 3,2 km/h (1 Bft) 100,00 %
18.10.2017 10:00 10,9 C 12,2 C 98 % 1016,8 hPa 0,0 l/m 2,5 km/h (1 Bft) W 281 0 min 0,051 mm 0,0 UV-I 89 W/m 10,6 C 10,9 C 3,2 km/h (1 Bft) 100,00 %
18.10.2017 10:02 10,9 C 12,2 C 98 % 1016,7 hPa 0,0 l/m 1,5 km/h (1 Bft) W 280 0 min 0,000 mm 0,0 UV-I 104 W/m 10,6 C 10,9 C 3,2 km/h (1 Bft) 100,00 %
18.10.2017 10:04 10,9 C 12,2 C 98 % 1016,7 hPa 0,0 l/m 0,5 km/h (0 Bft) W 281 0 min 0,000 mm 0,0 UV-I 112 W/m 10,6 C 10,9 C 1,6 km/h (1 Bft) 100,00 %
18.10.2017 10:06 10,9 C 12,2 C 98 % 1016,7 hPa 0,0 l/m 0,0 km/h (0 Bft) W 281 0 min 0,000 mm 0,0 UV-I 105 W/m 10,6 C 10,9 C 0,0 km/h (0 Bft) 100,00 %
18.10.2017 10:08 11,0 C 12,2 C 98 % 1016,8 hPa 0,0 l/m 0,0 km/h (0 Bft) W 280 0 min 0,000 mm 0,0 UV-I 103 W/m 10,7 C 11,0 C 0,0 km/h (0 Bft) 100,00 %
18.10.2017 10:10 11,0 C 12,2 C 98 % 1016,7 hPa 0,0 l/m 0,0 km/h (0 Bft) W 280 0 min 0,000 mm 0,0 UV-I 107 W/m 10,7 C 11,0 C 0,0 km/h (0 Bft) 98,00 %
18.10.2017 10:12 11,1 C 12,2 C 98 % 1016,8 hPa 0,0 l/m 0,0 km/h (0 Bft) W 280 0 min 0,000 mm 0,0 UV-I 107 W/m 10,8 C 11,1 C 0,0 km/h (0 Bft) 100,00 %
18.10.2017 10:14 11,1 C 12,2 C 98 % 1016,7 hPa 0,0 l/m 0,0 km/h (0 Bft) W 280 0 min 0,000 mm 0,0 UV-I 112 W/m 10,8 C 11,1 C 1,6 km/h (1 Bft) 100,00 %
18.10.2017 10:16 11,0 C 12,2 C 98 % 1016,7 hPa 0,0 l/m 0,0 km/h (0 Bft) W 281 0 min 0,000 mm 0,0 UV-I 112 W/m 10,7 C 11,0 C 0,0 km/h (0 Bft) 100,00 %
18.10.2017 10:18 11,1 C 12,2 C 98 % 1016,8 hPa 0,0 l/m 0,0 km/h (0 Bft) W 281 0 min 0,000 mm 0,0 UV-I 105 W/m 10,8 C 11,1 C 0,0 km/h (0 Bft) 98,00 %
18.10.2017 10:20 11,2 C 12,2 C 98 % 1016,8 hPa 0,0 l/m 0,0 km/h (0 Bft) W 281 0 min 0,000 mm 0,0 UV-I 108 W/m 10,9 C 11,2 C 0,0 km/h (0 Bft) 100,00 %
18.10.2017 10:22 11,3 C 12,2 C 98 % 1016,8 hPa 0,0 l/m 0,7 km/h (0 Bft) W 281 0 min 0,000 mm 0,0 UV-I 102 W/m 11,0 C 11,3 C 1,6 km/h (1 Bft) 98,00 %
18.10.2017 10:24 11,3 C 12,2 C 98 % 1016,8 hPa 0,0 l/m 0,0 km/h (0 Bft) W 281 0 min 0,000 mm 0,0 UV-I 97 W/m 11,0 C 11,3 C 0,0 km/h (0 Bft) 100,00 %
18.10.2017 10:26 11,3 C 12,2 C 98 % 1016,8 hPa 0,0 l/m 0,0 km/h (0 Bft) W 281 0 min 0,000 mm 0,0 UV-I 105 W/m 11,0 C 11,3 C 0,0 km/h (0 Bft) 100,00 %
18.10.2017 10:28 11,3 C 12,2 C 98 % 1016,7 hPa 0,0 l/m 0,0 km/h (0 Bft) W 281 0 min 0,000 mm 0,0 UV-I 108 W/m 11,0 C 11,3 C 0,0 km/h (0 Bft) 100,00 %
18.10.2017 10:30 11,2 C 12,2 C 98 % 1016,8 hPa 0,0 l/m 0,0 km/h (0 Bft) W 281 0 min 0,000 mm 0,0 UV-I 100 W/m 10,9 C 11,2 C 1,6 km/h (1 Bft) 100,00 %
18.10.2017 10:32 11,3 C 12,2 C 98 % 1016,8 hPa 0,0 l/m 0,0 km/h (0 Bft) W 281 0 min 0,000 mm 0,0 UV-I 99 W/m 11,0 C 11,3 C 0,0 km/h (0 Bft) 100,00 %
18.10.2017 10:34 11,2 C 12,2 C 98 % 1016,8 hPa 0,0 l/m 0,0 km/h (0 Bft) W 281 0 min 0,000 mm 0,0 UV-I 94 W/m 10,9 C 11,2 C 0,0 km/h (0 Bft) 100,00 %
18.10.2017 10:36 11,2 C 12,2 C 98 % 1016,8 hPa 0,0 l/m 0,1 km/h (0 Bft) W 281 0 min 0,000 mm 0,0 UV-I 99 W/m 10,9 C 11,2 C 1,6 km/h (1 Bft) 97,37 %
18.10.2017 10:38 11,2 C 12,2 C 98 % 1016,7 hPa 0,0 l/m 0,3 km/h (0 Bft) W 281 0 min 0,000 mm 0,0 UV-I 104 W/m 10,9 C 11,2 C 1,6 km/h (1 Bft) 100,00 %
18.10.2017 10:40 11,2 C 12,2 C 98 % 1016,7 hPa 0,0 l/m 0,3 km/h (0 Bft) W 281 0 min 0,000 mm 0,0 UV-I 103 W/m 10,9 C 11,2 C 3,2 km/h (1 Bft) 95,38 %
18.10.2017 10:42 11,3 C 12,2 C 98 % 1016,6 hPa 0,0 l/m 0,2 km/h (0 Bft) W 281 0 min 0,000 mm 0,0 UV-I 91 W/m 11,0 C 11,3 C 1,6 km/h (1 Bft) 97,87 %
18.10.2017 10:44 11,3 C 12,2 C 98 % 1016,6 hPa 0,0 l/m 0,0 km/h (0 Bft) W 281 0 min 0,000 mm 0,0 UV-I 85 W/m 11,0 C 11,3 C 1,6 km/h (1 Bft) 96,00 %
18.10.2017 10:46 11,3 C 12,2 C 98 % 1016,7 hPa 0,0 l/m 2,5 km/h (1 Bft) W-NW 284 0 min 0,000 mm 0,2 UV-I 99 W/m 11,0 C 11,3 C 4,8 km/h (1 Bft) 96,15 %
18.10.2017 10:48 11,2 C 12,2 C 98 % 1016,6 hPa 0,0 l/m 1,3 km/h (1 Bft) W-NW 284 0 min 0,000 mm 0,5 UV-I 114 W/m 10,9 C 11,2 C 4,8 km/h (1 Bft) 93,75 %
18.10.2017 10:50 11,2 C 12,2 C 98 % 1016,6 hPa 0,0 l/m 2,2 km/h (1 Bft) W-NW 284 0 min 0,000 mm 0,6 UV-I 120 W/m 10,9 C 11,2 C 4,8 km/h (1 Bft) 100,00 %
18.10.2017 10:52 11,1 C 12,2 C 98 % 1016,6 hPa 0,0 l/m 1,0 km/h (0 Bft) W-NW 284 0 min 0,000 mm 0,6 UV-I 125 W/m 10,8 C 11,1 C 3,2 km/h (1 Bft) 94,34 %
18.10.2017 10:54 11,1 C 12,2 C 98 % 1016,6 hPa 0,0 l/m 1,6 km/h (1 Bft) W-NW 284 0 min 0,000 mm 0,6 UV-I 124 W/m 10,8 C 11,1 C 3,2 km/h (1 Bft) 98,00 %
18.10.2017 10:56 11,2 C 12,2 C 98 % 1016,6 hPa 0,0 l/m 1,2 km/h (1 Bft) W-NW 284 0 min 0,000 mm 0,6 UV-I 121 W/m 10,9 C 11,2 C 3,2 km/h (1 Bft) 97,87 %
18.10.2017 10:58 11,3 C 12,2 C 98 % 1016,6 hPa 0,0 l/m 0,0 km/h (0 Bft) W-NW 284 0 min 0,000 mm 0,6 UV-I 125 W/m 11,0 C 11,3 C 0,0 km/h (0 Bft) 97,87 %
18.10.2017 11:00 11,3 C 12,2 C 98 % 1016,6 hPa 0,0 l/m 0,0 km/h (0 Bft) W-NW 284 0 min 0,051 mm 0,6 UV-I 125 W/m 11,0 C 11,3 C 0,0 km/h (0 Bft) 98,00 %
18.10.2017 11:02 11,2 C 12,2 C 98 % 1016,6 hPa 0,0 l/m 0,0 km/h (0 Bft) W-NW 284 0 min 0,000 mm 0,6 UV-I 109 W/m 10,9 C 11,2 C 0,0 km/h (0 Bft) 97,87 %
18.10.2017 11:04 11,2 C 12,2 C 98 % 1016,6 hPa 0,0 l/m 0,5 km/h (0 Bft) W-NW 284 0 min 0,000 mm 0,6 UV-I 109 W/m 10,9 C 11,2 C 3,2 km/h (1 Bft) 97,56 %
18.10.2017 11:06 11,3 C 12,2 C 98 % 1016,5 hPa 0,0 l/m 2,4 km/h (1 Bft) SW 221 0 min 0,000 mm 0,6 UV-I 122 W/m 11,0 C 11,3 C 4,8 km/h (1 Bft) 96,00 %
18.10.2017 11:08 11,4 C 12,2 C 98 % 1016,5 hPa 0,0 l/m 0,7 km/h (0 Bft) SW 221 0 min 0,000 mm 0,6 UV-I 137 W/m 11,1 C 11,4 C 3,2 km/h (1 Bft) 100,00 %
18.10.2017 11:10 11,3 C 12,2 C 98 % 1016,5 hPa 0,0 l/m 0,0 km/h (0 Bft) SW 221 0 min 0,000 mm 0,7 UV-I 169 W/m 11,0 C 11,3 C 0,0 km/h (0 Bft) 94,00 %
18.10.2017 11:12 11,3 C 12,2 C 98 % 1016,6 hPa 0,0 l/m 0,0 km/h (0 Bft) SW 221 0 min 0,000 mm 0,7 UV-I 180 W/m 11,0 C 11,3 C 0,0 km/h (0 Bft) 100,00 %
18.10.2017 11:14 11,5 C 12,2 C 98 % 1016,6 hPa 0,0 l/m 0,1 km/h (0 Bft) SW 222 0 min 0,000 mm 0,6 UV-I 173 W/m 11,2 C 11,5 C 1,6 km/h (1 Bft) 97,87 %
18.10.2017 11:16 11,6 C 12,2 C 98 % 1016,6 hPa 0,0 l/m 0,1 km/h (0 Bft) SW 222 0 min 0,000 mm 0,7 UV-I 162 W/m 11,3 C 11,6 C 1,6 km/h (1 Bft) 100,00 %
18.10.2017 11:18 11,6 C 12,2 C 98 % 1016,6 hPa 0,0 l/m 0,7 km/h (0 Bft) N-NW 342 0 min 0,000 mm 0,7 UV-I 158 W/m 11,3 C 11,6 C 4,8 km/h (1 Bft) 100,00 %
18.10.2017 11:20 11,6 C 12,2 C 98 % 1016,6 hPa 0,0 l/m 0,4 km/h (0 Bft) N-NW 329 0 min 0,000 mm 0,7 UV-I 158 W/m 11,3 C 11,6 C 1,6 km/h (1 Bft) 100,00 %
18.10.2017 11:22 11,6 C 12,2 C 98 % 1016,6 hPa 0,0 l/m 0,1 km/h (0 Bft) N-NW 331 0 min 0,000 mm 0,7 UV-I 171 W/m 11,3 C 11,6 C 1,6 km/h (1 Bft) 100,00 %
18.10.2017 11:24 11,6 C 12,2 C 98 % 1016,5 hPa 0,0 l/m 0,1 km/h (0 Bft) N-NW 331 0 min 0,000 mm 0,8 UV-I 188 W/m 11,3 C 11,6 C 1,6 km/h (1 Bft) 98,08 %
18.10.2017 11:26 11,5 C 12,2 C 98 % 1016,5 hPa 0,0 l/m 0,3 km/h (0 Bft) N-NW 331 0 min 0,000 mm 0,8 UV-I 187 W/m 11,2 C 11,5 C 1,6 km/h (1 Bft) 94,00 %
18.10.2017 11:28 11,5 C 12,2 C 98 % 1016,5 hPa 0,0 l/m 0,7 km/h (0 Bft) N-NW 331 0 min 0,000 mm 0,8 UV-I 176 W/m 11,2 C 11,5 C 3,2 km/h (1 Bft) 100,00 %
18.10.2017 11:30 11,5 C 12,2 C 98 % 1016,5 hPa 0,0 l/m 0,0 km/h (0 Bft) N-NW 331 0 min 0,000 mm 0,8 UV-I 167 W/m 11,2 C 11,5 C 1,6 km/h (1 Bft) 96,00 %
18.10.2017 11:32 11,6 C 12,2 C 98 % 1016,5 hPa 0,0 l/m 0,0 km/h (0 Bft) N-NW 331 0 min 0,000 mm 0,8 UV-I 160 W/m 11,3 C 11,6 C 0,0 km/h (0 Bft) 98,11 %
18.10.2017 11:34 11,6 C 12,2 C 98 % 1016,5 hPa 0,0 l/m 0,0 km/h (0 Bft) N-NW 331 0 min 0,000 mm 0,8 UV-I 155 W/m 11,3 C 11,6 C 1,6 km/h (1 Bft) 97,87 %
18.10.2017 11:36 11,7 C 12,2 C 98 % 1016,5 hPa 0,0 l/m 0,7 km/h (0 Bft) N-NW 331 0 min 0,000 mm 1,0 UV-I 182 W/m 11,4 C 11,7 C 1,6 km/h (1 Bft) 97,73 %
18.10.2017 11:38 11,6 C 12,2 C 98 % 1016,5 hPa 0,0 l/m 0,0 km/h (0 Bft) N-NW 331 0 min 0,000 mm 1,1 UV-I 225 W/m 11,3 C 11,6 C 0,0 km/h (0 Bft) 98,00 %
18.10.2017 11:40 11,6 C 12,2 C 98 % 1016,4 hPa 0,0 l/m 0,1 km/h (0 Bft) N-NW 331 0 min 0,000 mm 1,1 UV-I 250 W/m 11,3 C 11,6 C 1,6 km/h (1 Bft) 97,37 %
18.10.2017 11:42 11,7 C 12,2 C 98 % 1016,4 hPa 0,0 l/m 1,1 km/h (1 Bft) N-NW 331 0 min 0,000 mm 1,1 UV-I 252 W/m 11,4 C 11,7 C 3,2 km/h (1 Bft) 98,00 %
18.10.2017 11:44 11,7 C 12,2 C 98 % 1016,3 hPa 0,0 l/m 0,4 km/h (0 Bft) N-NW 331 0 min 0,000 mm 1,1 UV-I 244 W/m 11,4 C 11,7 C 1,6 km/h (1 Bft) 96,00 %
18.10.2017 11:46 11,8 C 12,2 C 98 % 1016,3 hPa 0,0 l/m 0,4 km/h (0 Bft) N-NW 331 0 min 0,000 mm 1,1 UV-I 244 W/m 11,5 C 11,8 C 1,6 km/h (1 Bft) 97,56 %
18.10.2017 11:48 11,7 C 12,2 C 98 % 1016,3 hPa 0,0 l/m 0,7 km/h (0 Bft) N-NW 331 0 min 0,000 mm 1,0 UV-I 248 W/m 11,4 C 11,7 C 3,2 km/h (1 Bft) 98,00 %
18.10.2017 11:50 11,8 C 12,2 C 98 % 1016,3 hPa 0,0 l/m 0,8 km/h (0 Bft) W-NW 297 0 min 0,000 mm 1,0 UV-I 230 W/m 11,5 C 11,8 C 4,8 km/h (1 Bft) 95,74 %
18.10.2017 11:52 11,8 C 12,2 C 98 % 1016,2 hPa 0,0 l/m 2,9 km/h (1 Bft) W-NW 288 0 min 0,000 mm 0,9 UV-I 219 W/m 11,5 C 11,8 C 4,8 km/h (1 Bft) 98,00 %
18.10.2017 11:54 11,8 C 12,2 C 98 % 1016,3 hPa 0,0 l/m 1,5 km/h (1 Bft) W-NW 288 0 min 0,000 mm 0,8 UV-I 205 W/m 11,5 C 11,8 C 4,8 km/h (1 Bft) 97,56 %
18.10.2017 11:56 11,9 C 12,2 C 98 % 1016,3 hPa 0,0 l/m 0,3 km/h (0 Bft) W-NW 290 0 min 0,000 mm 0,8 UV-I 194 W/m 11,6 C 11,9 C 1,6 km/h (1 Bft) 98,21 %
18.10.2017 11:58 12,1 C 12,2 C 98 % 1016,2 hPa 0,0 l/m 0,6 km/h (0 Bft) W-NW 290 0 min 0,000 mm 0,9 UV-I 180 W/m 11,8 C 12,1 C 3,2 km/h (1 Bft) 97,22 %
18.10.2017 12:00 12,2 C 12,2 C 98 % 1016,2 hPa 0,0 l/m 0,1 km/h (0 Bft) W-NW 290 0 min 0,076 mm 1,0 UV-I 180 W/m 11,9 C 12,2 C 1,6 km/h (1 Bft) 96,15 %
18.10.2017 12:02 12,3 C 12,2 C 98 % 1016,2 hPa 0,0 l/m 0,8 km/h (0 Bft) N-NO 22 0 min 0,000 mm 1,0 UV-I 168 W/m 12,0 C 12,3 C 4,8 km/h (1 Bft) 96,00 %
18.10.2017 12:04 12,2 C 12,2 C 98 % 1016,1 hPa 0,0 l/m 3,8 km/h (1 Bft) N-NO 19 0 min 0,000 mm 1,0 UV-I 161 W/m 11,9 C 12,2 C 6,4 km/h (2 Bft) 97,62 %
18.10.2017 12:06 12,3 C 12,2 C 98 % 1016,2 hPa 0,0 l/m 0,7 km/h (0 Bft) N-NO 16 0 min 0,000 mm 1,0 UV-I 144 W/m 12,0 C 12,3 C 3,2 km/h (1 Bft) 98,00 %
18.10.2017 12:08 12,2 C 12,2 C 98 % 1016,2 hPa 0,0 l/m 0,2 km/h (0 Bft) N-NO 16 0 min 0,000 mm 1,0 UV-I 146 W/m 11,9 C 12,2 C 1,6 km/h (1 Bft) 98,00 %
18.10.2017 12:10 12,1 C 12,2 C 98 % 1016,1 hPa 0,0 l/m 0,0 km/h (0 Bft) N-NO 16 0 min 0,000 mm 1,1 UV-I 168 W/m 11,8 C 12,1 C 0,0 km/h (0 Bft) 95,74 %
18.10.2017 12:12 12,1 C 12,2 C 98 % 1016,2 hPa 0,0 l/m 0,0 km/h (0 Bft) N-NO 16 0 min 0,000 mm 1,1 UV-I 201 W/m 11,8 C 12,1 C 0,0 km/h (0 Bft) 100,00 %
18.10.2017 12:14 12,1 C 12,2 C 98 % 1016,1 hPa 0,0 l/m 0,0 km/h (0 Bft) N-NO 16 0 min 0,000 mm 1,1 UV-I 203 W/m 11,8 C 12,1 C 0,0 km/h (0 Bft) 94,00 %
18.10.2017 12:16 12,2 C 12,2 C 98 % 1016,1 hPa 0,0 l/m 0,2 km/h (0 Bft) N-NO 16 0 min 0,000 mm 1,1 UV-I 221 W/m 11,9 C 12,2 C 1,6 km/h (1 Bft) 98,11 %
18.10.2017 12:18 12,2 C 12,2 C 98 % 1016,1 hPa 0,0 l/m 1,9 km/h (1 Bft) N-NO 25 0 min 0,000 mm 1,2 UV-I 240 W/m 11,9 C 12,2 C 3,2 km/h (1 Bft) 97,73 %
18.10.2017 12:20 12,2 C 12,2 C 98 % 1016,1 hPa 0,0 l/m 2,4 km/h (1 Bft) N-NO 25 2 min 0,000 mm 1,2 UV-I 310 W/m 11,9 C 12,2 C 4,8 km/h (1 Bft) 97,56 %
18.10.2017 12:22 12,2 C 12,2 C 98 % 1016,0 hPa 0,0 l/m 1,8 km/h (1 Bft) N-NO 25 2 min 0,000 mm 1,3 UV-I 343 W/m 11,9 C 12,2 C 3,2 km/h (1 Bft) 98,11 %
18.10.2017 12:24 12,1 C 12,2 C 97 % 1016,0 hPa 0,0 l/m 0,0 km/h (0 Bft) N-NO 25 2 min 0,000 mm 1,2 UV-I 298 W/m 11,6 C 12,1 C 0,0 km/h (0 Bft) 96,00 %
18.10.2017 12:26 12,2 C 12,2 C 98 % 1015,9 hPa 0,0 l/m 0,6 km/h (0 Bft) N-NO 25 0 min 0,000 mm 1,1 UV-I 265 W/m 11,9 C 12,2 C 3,2 km/h (1 Bft) 97,56 %
18.10.2017 12:28 12,4 C 12,2 C 98 % 1015,9 hPa 0,0 l/m 2,3 km/h (1 Bft) N-NO 25 0 min 0,000 mm 1,2 UV-I 290 W/m 12,1 C 12,4 C 4,8 km/h (1 Bft) 98,00 %
18.10.2017 12:30 12,5 C 12,2 C 98 % 1015,9 hPa 0,0 l/m 3,5 km/h (1 Bft) N-NO 25 0 min 0,000 mm 1,1 UV-I 262 W/m 12,2 C 12,5 C 4,8 km/h (1 Bft) 97,37 %
18.10.2017 12:32 12,5 C 12,2 C 97 % 1015,9 hPa 0,0 l/m 0,9 km/h (0 Bft) N-NO 25 0 min 0,000 mm 0,9 UV-I 197 W/m 12,0 C 12,5 C 3,2 km/h (1 Bft) 100,00 %
18.10.2017 12:34 12,4 C 12,2 C 97 % 1015,9 hPa 0,0 l/m 2,1 km/h (1 Bft) N-NO 30 0 min 0,000 mm 0,9 UV-I 175 W/m 11,9 C 12,4 C 4,8 km/h (1 Bft) 96,00 %
18.10.2017 12:36 12,3 C 12,2 C 97 % 1015,9 hPa 0,0 l/m 2,2 km/h (1 Bft) N-NO 28 0 min 0,000 mm 0,9 UV-I 160 W/m 11,8 C 12,3 C 4,8 km/h (1 Bft) 100,00 %
18.10.2017 12:38 12,4 C 12,2 C 97 % 1015,9 hPa 0,0 l/m 3,3 km/h (1 Bft) N-NO 26 0 min 0,000 mm 0,9 UV-I 175 W/m 11,9 C 12,4 C 6,4 km/h (2 Bft) 100,00 %
18.10.2017 12:40 12,6 C 12,2 C 97 % 1015,8 hPa 0,0 l/m 3,8 km/h (1 Bft) N-NO 28 0 min 0,000 mm 0,9 UV-I 193 W/m 12,1 C 12,6 C 8,0 km/h (2 Bft) 97,44 %
18.10.2017 12:42 12,7 C 12,2 C 97 % 1015,7 hPa 0,0 l/m 5,6 km/h (1 Bft) N-NO 26 0 min 0,000 mm 1,0 UV-I 207 W/m 12,2 C 12,7 C 6,4 km/h (2 Bft) 98,11 %
18.10.2017 12:44 12,7 C 12,2 C 97 % 1015,7 hPa 0,0 l/m 5,1 km/h (1 Bft) N-NO 24 0 min 0,000 mm 1,1 UV-I 224 W/m 12,2 C 12,7 C 6,4 km/h (2 Bft) 97,87 %
18.10.2017 12:46 12,7 C 12,2 C 97 % 1015,7 hPa 0,0 l/m 2,6 km/h (1 Bft) N-NO 24 0 min 0,000 mm 1,1 UV-I 226 W/m 12,2 C 12,7 C 4,8 km/h (1 Bft) 97,87 %
18.10.2017 12:48 12,7 C 12,2 C 96 % 1015,7 hPa 0,0 l/m 2,6 km/h (1 Bft) N-NO 26 0 min 0,000 mm 1,1 UV-I 232 W/m 12,1 C 12,7 C 4,8 km/h (1 Bft) 97,14 %
18.10.2017 12:50 12,7 C 12,2 C 97 % 1015,6 hPa 0,0 l/m 0,6 km/h (0 Bft) N-NO 25 0 min 0,000 mm 1,2 UV-I 230 W/m 12,2 C 12,7 C 1,6 km/h (1 Bft) 98,11 %
18.10.2017 12:52 12,7 C 12,2 C 96 % 1015,6 hPa 0,0 l/m 0,7 km/h (0 Bft) N-NO 25 0 min 0,000 mm 1,2 UV-I 209 W/m 12,1 C 12,7 C 1,6 km/h (1 Bft) 93,62 %
18.10.2017 12:54 12,8 C 12,2 C 96 % 1015,7 hPa 0,0 l/m 0,1 km/h (0 Bft) N 349 0 min 0,000 mm 1,3 UV-I 217 W/m 12,2 C 12,8 C 1,6 km/h (1 Bft) 98,00 %
18.10.2017 12:56 12,8 C 12,2 C 96 % 1015,7 hPa 0,0 l/m 0,2 km/h (0 Bft) N 349 0 min 0,000 mm 1,3 UV-I 211 W/m 12,2 C 12,8 C 1,6 km/h (1 Bft) 97,87 %
18.10.2017 12:58 12,8 C 12,2 C 95 % 1015,6 hPa 0,0 l/m 0,7 km/h (0 Bft) N 349 0 min 0,000 mm 1,5 UV-I 217 W/m 12,0 C 12,8 C 1,6 km/h (1 Bft) 97,56 %
18.10.2017 13:00 12,8 C 12,2 C 95 % 1015,6 hPa 0,0 l/m 0,1 km/h (0 Bft) N 349 0 min 0,000 mm 1,6 UV-I 277 W/m 12,0 C 12,8 C 1,6 km/h (1 Bft) 96,00 %
18.10.2017 13:02 12,7 C 12,2 C 95 % 1015,6 hPa 0,0 l/m 0,0 km/h (0 Bft) N 349 0 min 0,102 mm 1,6 UV-I 263 W/m 11,9 C 12,7 C 1,6 km/h (1 Bft) 98,11 %
18.10.2017 13:04 12,9 C 12,2 C 96 % 1015,6 hPa 0,0 l/m 0,1 km/h (0 Bft) N 349 0 min 0,000 mm 1,6 UV-I 266 W/m 12,3 C 12,9 C 1,6 km/h (1 Bft) 97,87 %
18.10.2017 13:06 13,1 C 12,2 C 95 % 1015,6 hPa 0,0 l/m 0,0 km/h (0 Bft) N 349 2 min 0,000 mm 1,8 UV-I 304 W/m 12,3 C 13,1 C 1,6 km/h (1 Bft) 95,74 %
18.10.2017 13:08 13,5 C 12,2 C 96 % 1015,5 hPa 0,0 l/m 0,0 km/h (0 Bft) N 349 2 min 0,000 mm 1,9 UV-I 323 W/m 12,9 C 13,5 C 0,0 km/h (0 Bft) 100,00 %
18.10.2017 13:10 13,7 C 12,2 C 94 % 1015,5 hPa 0,0 l/m 0,8 km/h (0 Bft) N 351 2 min 0,000 mm 1,9 UV-I 309 W/m 12,8 C 13,7 C 3,2 km/h (1 Bft) 95,74 %
18.10.2017 13:12 13,6 C 12,2 C 93 % 1015,5 hPa 0,0 l/m 0,2 km/h (0 Bft) N 351 2 min 0,000 mm 2,1 UV-I 491 W/m 12,5 C 13,6 C 1,6 km/h (1 Bft) 97,87 %
18.10.2017 13:14 13,6 C 12,2 C 92 % 1015,4 hPa 0,0 l/m 1,0 km/h (0 Bft) N 351 2 min 0,000 mm 2,2 UV-I 529 W/m 12,3 C 13,6 C 3,2 km/h (1 Bft) 98,11 %
18.10.2017 13:16 13,8 C 12,2 C 92 % 1015,4 hPa 0,0 l/m 3,0 km/h (1 Bft) W 269 2 min 0,000 mm 2,2 UV-I 493 W/m 12,5 C 13,8 C 4,8 km/h (1 Bft) 100,00 %
18.10.2017 13:18 13,7 C 12,2 C 91 % 1015,4 hPa 0,0 l/m 2,6 km/h (1 Bft) W-SW 256 2 min 0,000 mm 2,2 UV-I 531 W/m 12,3 C 13,7 C 3,2 km/h (1 Bft) 100,00 %
18.10.2017 13:20 13,7 C 12,2 C 90 % 1015,4 hPa 0,0 l/m 1,4 km/h (1 Bft) W-SW 256 2 min 0,000 mm 2,2 UV-I 538 W/m 12,1 C 13,7 C 4,8 km/h (1 Bft) 94,44 %
18.10.2017 13:22 13,9 C 12,2 C 91 % 1015,3 hPa 0,0 l/m 0,7 km/h (0 Bft) W-SW 256 2 min 0,000 mm 2,1 UV-I 448 W/m 12,5 C 13,9 C 1,6 km/h (1 Bft) 100,00 %
18.10.2017 13:24 14,2 C 12,2 C 91 % 1015,3 hPa 0,0 l/m 3,1 km/h (1 Bft) N-NO 24 2 min 0,000 mm 2,2 UV-I 434 W/m 12,8 C 14,2 C 6,4 km/h (2 Bft) 100,00 %
18.10.2017 13:26 14,3 C 12,2 C 90 % 1015,3 hPa 0,0 l/m 4,0 km/h (1 Bft) N-NO 22 2 min 0,000 mm 2,2 UV-I 525 W/m 12,7 C 14,3 C 4,8 km/h (1 Bft) 98,11 %
18.10.2017 13:28 14,3 C 12,2 C 90 % 1015,2 hPa 0,0 l/m 3,7 km/h (1 Bft) N-NO 25 2 min 0,000 mm 2,1 UV-I 496 W/m 12,7 C 14,3 C 6,4 km/h (2 Bft) 100,00 %
18.10.2017 13:30 14,3 C 12,2 C 89 % 1015,2 hPa 0,0 l/m 1,1 km/h (1 Bft) N-NO 23 2 min 0,000 mm 2,1 UV-I 505 W/m 12,5 C 14,3 C 4,8 km/h (1 Bft) 100,00 %
18.10.2017 13:32 14,3 C 12,2 C 89 % 1015,2 hPa 0,0 l/m 1,3 km/h (1 Bft) N-NO 23 2 min 0,000 mm 2,1 UV-I 524 W/m 12,5 C 14,3 C 3,2 km/h (1 Bft) 100,00 %
18.10.2017 13:34 14,3 C 12,2 C 88 % 1015,1 hPa 0,0 l/m 1,0 km/h (0 Bft) N-NO 23 2 min 0,000 mm 2,2 UV-I 553 W/m 12,3 C 14,3 C 3,2 km/h (1 Bft) 100,00 %
18.10.2017 13:36 14,4 C 12,2 C 88 % 1015,1 hPa 0,0 l/m 0,0 km/h (0 Bft) N-NO 23 2 min 0,000 mm 2,1 UV-I 518 W/m 12,4 C 14,4 C 0,0 km/h (0 Bft) 100,00 %
18.10.2017 13:38 14,4 C 12,2 C 89 % 1015,0 hPa 0,0 l/m 0,8 km/h (0 Bft) N-NO 23 2 min 0,000 mm 1,9 UV-I 418 W/m 12,6 C 14,4 C 3,2 km/h (1 Bft) 96,15 %
18.10.2017 13:40 14,5 C 12,2 C 89 % 1015,0 hPa 0,0 l/m 3,0 km/h (1 Bft) N-NO 23 2 min 0,000 mm 1,9 UV-I 391 W/m 12,7 C 14,5 C 6,4 km/h (2 Bft) 100,00 %
18.10.2017 13:42 14,7 C 12,2 C 90 % 1015,0 hPa 0,0 l/m 3,2 km/h (1 Bft) N-NO 23 2 min 0,000 mm 1,9 UV-I 423 W/m 13,1 C 14,7 C 4,8 km/h (1 Bft) 100,00 %
18.10.2017 13:44 14,9 C 12,2 C 89 % 1015,0 hPa 0,0 l/m 4,6 km/h (1 Bft) N-NO 15 2 min 0,000 mm 1,9 UV-I 437 W/m 13,1 C 14,9 C 6,4 km/h (2 Bft) 100,00 %
18.10.2017 13:46 15,0 C 12,2 C 87 % 1015,0 hPa 0,0 l/m 1,9 km/h (1 Bft) N 5 2 min 0,000 mm 1,9 UV-I 443 W/m 12,9 C 15,0 C 6,4 km/h (2 Bft) 100,00 %
18.10.2017 13:48 14,9 C 12,2 C 87 % 1014,9 hPa 0,0 l/m 0,6 km/h (0 Bft) N 360 2 min 0,000 mm 1,8 UV-I 390 W/m 12,8 C 14,9 C 4,8 km/h (1 Bft) 100,00 %
18.10.2017 13:50 14,8 C 12,2 C 86 % 1014,9 hPa 0,0 l/m 1,3 km/h (1 Bft) N 355 2 min 0,000 mm 1,6 UV-I 300 W/m 12,5 C 14,8 C 4,8 km/h (1 Bft) 100,00 %
18.10.2017 13:52 14,7 C 12,2 C 87 % 1014,9 hPa 0,0 l/m 1,2 km/h (1 Bft) N 355 2 min 0,000 mm 1,6 UV-I 288 W/m 12,6 C 14,7 C 3,2 km/h (1 Bft) 98,00 %
18.10.2017 13:54 14,7 C 12,2 C 87 % 1014,9 hPa 0,0 l/m 0,7 km/h (0 Bft) N 355 2 min 0,000 mm 1,6 UV-I 309 W/m 12,6 C 14,7 C 3,2 km/h (1 Bft) 100,00 %
18.10.2017 13:56 14,8 C 12,2 C 88 % 1014,8 hPa 0,0 l/m 0,9 km/h (0 Bft) N 355 2 min 0,000 mm 1,6 UV-I 317 W/m 12,8 C 14,8 C 4,8 km/h (1 Bft) 100,00 %
18.10.2017 13:58 14,8 C 12,2 C 87 % 1014,8 hPa 0,0 l/m 3,7 km/h (1 Bft) N-NO 17 2 min 0,000 mm 1,7 UV-I 418 W/m 12,7 C 14,8 C 6,4 km/h (2 Bft) 100,00 %
18.10.2017 14:00 15,0 C 12,2 C 88 % 1014,8 hPa 0,0 l/m 4,5 km/h (1 Bft) N-NO 16 2 min 0,228 mm 1,8 UV-I 485 W/m 13,0 C 15,0 C 6,4 km/h (2 Bft) 100,00 %
18.10.2017 14:02 15,2 C 12,2 C 87 % 1014,8 hPa 0,0 l/m 3,2 km/h (1 Bft) N-NO 21 2 min 0,000 mm 1,6 UV-I 380 W/m 13,0 C 15,2 C 4,8 km/h (1 Bft) 100,00 %
18.10.2017 14:04 15,2 C 12,2 C 87 % 1014,8 hPa 0,0 l/m 3,3 km/h (1 Bft) N-NO 20 0 min 0,000 mm 1,5 UV-I 272 W/m 13,0 C 15,2 C 4,8 km/h (1 Bft) 100,00 %
18.10.2017 14:06 15,2 C 12,2 C 87 % 1014,7 hPa 0,0 l/m 2,3 km/h (1 Bft) N-NO 20 2 min 0,000 mm 1,7 UV-I 404 W/m 13,0 C 15,2 C 3,2 km/h (1 Bft) 100,00 %
18.10.2017 14:08 15,2 C 12,2 C 86 % 1014,8 hPa 0,0 l/m 0,3 km/h (0 Bft) N-NO 20 2 min 0,000 mm 1,9 UV-I 522 W/m 12,9 C 15,2 C 1,6 km/h (1 Bft) 97,87 %
18.10.2017 14:10 15,3 C 12,2 C 86 % 1014,7 hPa 0,0 l/m 0,6 km/h (0 Bft) N-NO 19 2 min 0,000 mm 1,9 UV-I 554 W/m 13,0 C 15,3 C 1,6 km/h (1 Bft) 100,00 %
18.10.2017 14:12 15,6 C 12,2 C 87 % 1014,6 hPa 0,0 l/m 2,3 km/h (1 Bft) N-NO 19 2 min 0,000 mm 1,9 UV-I 566 W/m 13,4 C 15,6 C 4,8 km/h (1 Bft) 100,00 %
18.10.2017 14:14 15,7 C 12,2 C 84 % 1014,6 hPa 0,0 l/m 0,4 km/h (0 Bft) N-NO 19 2 min 0,000 mm 1,8 UV-I 547 W/m 13,0 C 15,7 C 3,2 km/h (1 Bft) 100,00 %
18.10.2017 14:16 15,7 C 12,2 C 85 % 1014,6 hPa 0,0 l/m 3,8 km/h (1 Bft) N-NO 17 2 min 0,000 mm 1,6 UV-I 406 W/m 13,2 C 15,7 C 8,0 km/h (2 Bft) 98,11 %
18.10.2017 14:18 15,8 C 12,2 C 86 % 1014,6 hPa 0,0 l/m 3,1 km/h (1 Bft) N-NO 17 0 min 0,000 mm 1,5 UV-I 250 W/m 13,5 C 15,8 C 4,8 km/h (1 Bft) 98,00 %
18.10.2017 14:20 15,6 C 12,2 C 84 % 1014,6 hPa 0,0 l/m 1,0 km/h (0 Bft) N-NO 17 2 min 0,000 mm 1,5 UV-I 268 W/m 12,9 C 15,6 C 3,2 km/h (1 Bft) 100,00 %
18.10.2017 14:22 15,6 C 12,2 C 86 % 1014,6 hPa 0,0 l/m 1,5 km/h (1 Bft) N-NO 17 2 min 0,000 mm 1,6 UV-I 392 W/m 13,3 C 15,6 C 3,2 km/h (1 Bft) 100,00 %
18.10.2017 14:24 15,6 C 12,2 C 85 % 1014,6 hPa 0,0 l/m 2,0 km/h (1 Bft) N-NO 17 2 min 0,000 mm 1,4 UV-I 311 W/m 13,1 C 15,6 C 3,2 km/h (1 Bft) 100,00 %
18.10.2017 14:26 15,5 C 12,2 C 84 % 1014,6 hPa 0,0 l/m 3,5 km/h (1 Bft) N-NO 18 0 min 0,000 mm 1,3 UV-I 188 W/m 12,8 C 15,5 C 4,8 km/h (1 Bft) 100,00 %
18.10.2017 14:28 15,4 C 12,2 C 84 % 1014,6 hPa 0,0 l/m 3,7 km/h (1 Bft) N-NO 20 2 min 0,000 mm 1,4 UV-I 270 W/m 12,7 C 15,4 C 4,8 km/h (1 Bft) 100,00 %
18.10.2017 14:30 15,4 C 12,2 C 85 % 1014,6 hPa 0,0 l/m 3,5 km/h (1 Bft) N-NO 20 2 min 0,000 mm 1,5 UV-I 324 W/m 12,9 C 15,4 C 4,8 km/h (1 Bft) 100,00 %
18.10.2017 14:32 15,7 C 12,2 C 87 % 1014,5 hPa 0,0 l/m 4,5 km/h (1 Bft) N-NO 25 2 min 0,000 mm 1,6 UV-I 466 W/m 13,5 C 15,7 C 6,4 km/h (2 Bft) 100,00 %
18.10.2017 14:34 15,8 C 12,2 C 85 % 1014,5 hPa 0,0 l/m 5,1 km/h (1 Bft) N-NO 22 2 min 0,000 mm 1,6 UV-I 511 W/m 13,3 C 15,8 C 8,0 km/h (2 Bft) 97,87 %
18.10.2017 14:36 16,0 C 12,2 C 85 % 1014,5 hPa 0,0 l/m 2,6 km/h (1 Bft) N-NO 18 2 min 0,000 mm 1,6 UV-I 506 W/m 13,5 C 16,0 C 8,0 km/h (2 Bft) 96,00 %
18.10.2017 14:38 16,1 C 12,2 C 85 % 1014,5 hPa 0,0 l/m 5,2 km/h (1 Bft) N-NO 24 2 min 0,000 mm 1,6 UV-I 504 W/m 13,6 C 16,1 C 8,0 km/h (2 Bft) 97,44 %
18.10.2017 14:40 16,0 C 12,2 C 82 % 1014,5 hPa 0,0 l/m 2,7 km/h (1 Bft) N-NO 24 2 min 0,000 mm 1,6 UV-I 499 W/m 12,9 C 16,0 C 4,8 km/h (1 Bft) 98,00 %
18.10.2017 14:42 16,0 C 12,2 C 83 % 1014,5 hPa 0,0 l/m 1,7 km/h (1 Bft) N-NO 23 2 min 0,000 mm 1,6 UV-I 490 W/m 13,1 C 16,0 C 4,8 km/h (1 Bft) 94,74 %
18.10.2017 14:44 16,0 C 12,2 C 82 % 1014,5 hPa 0,0 l/m 3,8 km/h (1 Bft) N-NO 29 2 min 0,000 mm 1,5 UV-I 442 W/m 12,9 C 16,0 C 6,4 km/h (2 Bft) 98,11 %
18.10.2017 14:46 16,1 C 12,2 C 83 % 1014,5 hPa 0,0 l/m 4,8 km/h (1 Bft) N-NO 26 2 min 0,000 mm 1,5 UV-I 396 W/m 13,2 C 16,1 C 8,0 km/h (2 Bft) 98,00 %
18.10.2017 14:48 16,1 C 12,2 C 83 % 1014,5 hPa 0,0 l/m 2,8 km/h (1 Bft) N-NO 27 2 min 0,000 mm 1,5 UV-I 399 W/m 13,2 C 16,1 C 6,4 km/h (2 Bft) 98,00 %
18.10.2017 14:50 16,1 C 12,2 C 82 % 1014,4 hPa 0,0 l/m 1,3 km/h (1 Bft) N-NO 27 2 min 0,000 mm 1,5 UV-I 460 W/m 13,0 C 16,1 C 3,2 km/h (1 Bft) 97,37 %
18.10.2017 14:52 16,1 C 12,2 C 84 % 1014,4 hPa 0,0 l/m 0,5 km/h (0 Bft) N-NO 20 2 min 0,000 mm 1,5 UV-I 453 W/m 13,4 C 16,1 C 3,2 km/h (1 Bft) 98,00 %
18.10.2017 14:54 16,1 C 12,2 C 83 % 1014,4 hPa 0,0 l/m 0,5 km/h (0 Bft) N-NW 338 2 min 0,000 mm 1,5 UV-I 443 W/m 13,2 C 16,1 C 1,6 km/h (1 Bft) 95,74 %
18.10.2017 14:56 16,1 C 12,2 C 83 % 1014,4 hPa 0,0 l/m 1,1 km/h (1 Bft) N-NW 340 2 min 0,000 mm 1,5 UV-I 441 W/m 13,2 C 16,1 C 3,2 km/h (1 Bft) 97,87 %
18.10.2017 14:58 16,2 C 12,2 C 83 % 1014,3 hPa 0,0 l/m 0,8 km/h (0 Bft) N-NW 340 2 min 0,000 mm 1,4 UV-I 437 W/m 13,3 C 16,2 C 3,2 km/h (1 Bft) 97,37 %
18.10.2017 15:00 16,2 C 12,2 C 83 % 1014,3 hPa 0,0 l/m 0,8 km/h (0 Bft) N-NW 346 2 min 0,229 mm 1,4 UV-I 430 W/m 13,3 C 16,2 C 3,2 km/h (1 Bft) 98,31 %
18.10.2017 15:02 16,3 C 12,2 C 82 % 1014,3 hPa 0,0 l/m 2,8 km/h (1 Bft) N-NW 346 2 min 0,000 mm 1,4 UV-I 422 W/m 13,2 C 16,3 C 4,8 km/h (1 Bft) 97,87 %
18.10.2017 15:04 16,5 C 12,2 C 84 % 1014,3 hPa 0,0 l/m 3,7 km/h (1 Bft) N-NO 26 2 min 0,000 mm 1,4 UV-I 422 W/m 13,8 C 16,5 C 8,0 km/h (2 Bft) 97,56 %
18.10.2017 15:06 16,7 C 12,2 C 82 % 1014,3 hPa 0,0 l/m 4,8 km/h (1 Bft) N-NO 14 2 min 0,000 mm 1,3 UV-I 412 W/m 13,6 C 16,7 C 6,4 km/h (2 Bft) 100,00 %
18.10.2017 15:08 16,6 C 12,2 C 80 % 1014,3 hPa 0,0 l/m 3,0 km/h (1 Bft) N-NO 17 2 min 0,000 mm 1,3 UV-I 406 W/m 13,1 C 16,6 C 6,4 km/h (2 Bft) 98,11 %
18.10.2017 15:10 16,5 C 12,2 C 81 % 1014,2 hPa 0,0 l/m 1,4 km/h (1 Bft) N-NW 342 2 min 0,000 mm 1,3 UV-I 399 W/m 13,2 C 16,5 C 3,2 km/h (1 Bft) 100,00 %
18.10.2017 15:12 16,4 C 12,2 C 82 % 1014,2 hPa 0,0 l/m 1,6 km/h (1 Bft) N 351 2 min 0,000 mm 1,2 UV-I 393 W/m 13,3 C 16,4 C 3,2 km/h (1 Bft) 100,00 %
18.10.2017 15:14 16,4 C 12,2 C 80 % 1014,2 hPa 0,0 l/m 0,8 km/h (0 Bft) N 351 2 min 0,000 mm 1,2 UV-I 384 W/m 12,9 C 16,4 C 4,8 km/h (1 Bft) 100,00 %
18.10.2017 15:16 16,3 C 12,2 C 80 % 1014,1 hPa 0,0 l/m 1,2 km/h (1 Bft) N 350 2 min 0,000 mm 1,2 UV-I 384 W/m 12,8 C 16,3 C 3,2 km/h (1 Bft) 100,00 %
18.10.2017 15:18 16,3 C 12,2 C 80 % 1014,2 hPa 0,0 l/m 0,4 km/h (0 Bft) N 350 2 min 0,000 mm 1,2 UV-I 382 W/m 12,8 C 16,3 C 1,6 km/h (1 Bft) 100,00 %
18.10.2017 15:20 16,4 C 12,2 C 82 % 1014,2 hPa 0,0 l/m 1,7 km/h (1 Bft) N-NO 19 2 min 0,000 mm 1,1 UV-I 375 W/m 13,3 C 16,4 C 4,8 km/h (1 Bft) 100,00 %
18.10.2017 15:22 16,6 C 12,2 C 81 % 1014,2 hPa 0,0 l/m 4,5 km/h (1 Bft) N-NO 29 2 min 0,000 mm 1,1 UV-I 366 W/m 13,3 C 16,6 C 6,4 km/h (2 Bft) 100,00 %
18.10.2017 15:24 16,4 C 12,2 C 81 % 1014,1 hPa 0,0 l/m 2,6 km/h (1 Bft) N-NO 28 2 min 0,000 mm 1,1 UV-I 360 W/m 13,1 C 16,4 C 4,8 km/h (1 Bft) 100,00 %
18.10.2017 15:26 16,4 C 12,2 C 81 % 1014,1 hPa 0,0 l/m 1,7 km/h (1 Bft) N-NO 28 2 min 0,000 mm 1,1 UV-I 353 W/m 13,1 C 16,4 C 4,8 km/h (1 Bft) 100,00 %
18.10.2017 15:28 16,5 C 12,2 C 82 % 1014,1 hPa 0,0 l/m 1,0 km/h (0 Bft) N 5 2 min 0,000 mm 1,0 UV-I 348 W/m 13,4 C 16,5 C 4,8 km/h (1 Bft) 100,00 %
18.10.2017 15:30 16,6 C 12,2 C 82 % 1014,1 hPa 0,0 l/m 1,4 km/h (1 Bft) N 350 2 min 0,000 mm 1,0 UV-I 340 W/m 13,5 C 16,6 C 4,8 km/h (1 Bft) 100,00 %
18.10.2017 15:32 16,6 C 12,2 C 81 % 1014,1 hPa 0,0 l/m 1,0 km/h (0 Bft) N-NW 340 2 min 0,000 mm 1,0 UV-I 333 W/m 13,3 C 16,6 C 3,2 km/h (1 Bft) 97,87 %
18.10.2017 15:34 16,6 C 12,2 C 80 % 1014,1 hPa 0,0 l/m 1,1 km/h (1 Bft) NW 323 2 min 0,000 mm 1,0 UV-I 333 W/m 13,1 C 16,6 C 3,2 km/h (1 Bft) 100,00 %
18.10.2017 15:36 16,6 C 12,2 C 80 % 1014,1 hPa 0,0 l/m 1,9 km/h (1 Bft) NW 325 2 min 0,000 mm 0,9 UV-I 331 W/m 13,1 C 16,6 C 4,8 km/h (1 Bft) 100,00 %
18.10.2017 15:38 16,6 C 12,2 C 80 % 1014,1 hPa 0,0 l/m 0,3 km/h (0 Bft) NW 325 2 min 0,000 mm 0,9 UV-I 323 W/m 13,1 C 16,6 C 3,2 km/h (1 Bft) 100,00 %
18.10.2017 15:40 16,7 C 12,2 C 80 % 1014,1 hPa 0,0 l/m 1,9 km/h (1 Bft) N-NW 343 2 min 0,000 mm 0,9 UV-I 323 W/m 13,2 C 16,7 C 4,8 km/h (1 Bft) 100,00 %
18.10.2017 15:42 16,7 C 12,2 C 80 % 1014,0 hPa 0,0 l/m 2,8 km/h (1 Bft) N-NO 13 2 min 0,000 mm 0,9 UV-I 315 W/m 13,2 C 16,7 C 4,8 km/h (1 Bft) 100,00 %
18.10.2017 15:44 16,8 C 12,2 C 81 % 1014,0 hPa 0,0 l/m 2,1 km/h (1 Bft) N-NO 13 2 min 0,000 mm 0,8 UV-I 309 W/m 13,5 C 16,8 C 4,8 km/h (1 Bft) 100,00 %
18.10.2017 15:46 16,8 C 12,2 C 81 % 1014,0 hPa 0,0 l/m 0,8 km/h (0 Bft) N-NO 13 2 min 0,000 mm 0,8 UV-I 258 W/m 13,5 C 16,8 C 3,2 km/h (1 Bft) 100,00 %
18.10.2017 15:48 16,8 C 12,2 C 81 % 1014,0 hPa 0,0 l/m 0,4 km/h (0 Bft) N-NO 13 2 min 0,000 mm 0,8 UV-I 249 W/m 13,5 C 16,8 C 1,6 km/h (1 Bft) 97,87 %
18.10.2017 15:50 16,7 C 12,2 C 80 % 1014,0 hPa 0,0 l/m 4,6 km/h (1 Bft) N-NO 16 2 min 0,000 mm 0,8 UV-I 267 W/m 13,2 C 16,7 C 8,0 km/h (2 Bft) 100,00 %
18.10.2017 15:52 16,7 C 12,2 C 81 % 1014,0 hPa 0,0 l/m 2,7 km/h (1 Bft) N-NO 15 2 min 0,000 mm 0,8 UV-I 294 W/m 13,4 C 16,7 C 6,4 km/h (2 Bft) 100,00 %
18.10.2017 15:54 16,7 C 12,2 C 80 % 1014,0 hPa 0,0 l/m 3,7 km/h (1 Bft) N-NO 15 2 min 0,000 mm 0,7 UV-I 291 W/m 13,2 C 16,7 C 6,4 km/h (2 Bft) 100,00 %
18.10.2017 15:56 16,7 C 12,2 C 80 % 1014,0 hPa 0,0 l/m 3,4 km/h (1 Bft) N-NO 22 2 min 0,000 mm 0,7 UV-I 286 W/m 13,2 C 16,7 C 4,8 km/h (1 Bft) 100,00 %
18.10.2017 15:58 16,7 C 12,2 C 79 % 1014,0 hPa 0,0 l/m 0,5 km/h (0 Bft) N-NO 22 2 min 0,000 mm 0,7 UV-I 282 W/m 13,0 C 16,7 C 3,2 km/h (1 Bft) 100,00 %
18.10.2017 16:00 16,6 C 12,2 C 79 % 1014,0 hPa 0,0 l/m 2,7 km/h (1 Bft) N-NO 22 2 min 0,178 mm 0,7 UV-I 264 W/m 12,9 C 16,6 C 4,8 km/h (1 Bft) 100,00 %
18.10.2017 16:02 16,6 C 12,2 C 79 % 1014,0 hPa 0,0 l/m 2,3 km/h (1 Bft) N-NO 22 2 min 0,000 mm 0,6 UV-I 241 W/m 12,9 C 16,6 C 4,8 km/h (1 Bft) 100,00 %
18.10.2017 16:04 16,6 C 12,2 C 80 % 1014,0 hPa 0,0 l/m 0,1 km/h (0 Bft) N-NO 22 2 min 0,000 mm 0,6 UV-I 191 W/m 13,1 C 16,6 C 1,6 km/h (1 Bft) 100,00 %
18.10.2017 16:06 16,6 C 12,2 C 81 % 1013,9 hPa 0,0 l/m 2,5 km/h (1 Bft) N-NO 22 2 min 0,000 mm 0,6 UV-I 180 W/m 13,3 C 16,6 C 4,8 km/h (1 Bft) 97,87 %
18.10.2017 16:08 16,6 C 12,2 C 82 % 1014,0 hPa 0,0 l/m 1,9 km/h (1 Bft) N-NO 22 2 min 0,000 mm 0,6 UV-I 200 W/m 13,5 C 16,6 C 3,2 km/h (1 Bft) 97,37 %
18.10.2017 16:10 16,6 C 12,2 C 82 % 1014,0 hPa 0,0 l/m 1,0 km/h (0 Bft) N-NO 22 2 min 0,000 mm 0,5 UV-I 197 W/m 13,5 C 16,6 C 3,2 km/h (1 Bft) 100,00 %
18.10.2017 16:12 16,6 C 12,2 C 81 % 1013,9 hPa 0,0 l/m 1,3 km/h (1 Bft) N-NO 22 2 min 0,000 mm 0,5 UV-I 166 W/m 13,3 C 16,6 C 3,2 km/h (1 Bft) 98,00 %
18.10.2017 16:14 16,6 C 12,2 C 81 % 1013,9 hPa 0,0 l/m 0,4 km/h (0 Bft) N-NO 21 2 min 0,000 mm 0,5 UV-I 159 W/m 13,3 C 16,6 C 3,2 km/h (1 Bft) 100,00 %
18.10.2017 16:16 16,5 C 12,2 C 82 % 1014,0 hPa 0,0 l/m 1,0 km/h (0 Bft) N-NO 14 2 min 0,000 mm 0,5 UV-I 234 W/m 13,4 C 16,5 C 4,8 km/h (1 Bft) 100,00 %
18.10.2017 16:18 16,6 C 12,2 C 82 % 1014,0 hPa 0,0 l/m 2,9 km/h (1 Bft) N-NO 14 2 min 0,000 mm 0,5 UV-I 236 W/m 13,5 C 16,6 C 4,8 km/h (1 Bft) 100,00 %
18.10.2017 16:20 16,5 C 12,2 C 81 % 1014,0 hPa 0,0 l/m 1,8 km/h (1 Bft) N-NO 15 2 min 0,000 mm 0,5 UV-I 216 W/m 13,2 C 16,5 C 3,2 km/h (1 Bft) 100,00 %
18.10.2017 16:22 16,6 C 12,2 C 81 % 1014,0 hPa 0,0 l/m 3,1 km/h (1 Bft) N-NO 23 2 min 0,000 mm 0,0 UV-I 167 W/m 13,3 C 16,6 C 6,4 km/h (2 Bft) 100,00 %
18.10.2017 16:24 16,6 C 12,2 C 81 % 1014,0 hPa 0,0 l/m 4,1 km/h (1 Bft) N-NO 23 0 min 0,000 mm 0,0 UV-I 121 W/m 13,3 C 16,6 C 6,4 km/h (2 Bft) 100,00 %
18.10.2017 16:26 16,6 C 12,2 C 81 % 1014,0 hPa 0,0 l/m 3,3 km/h (1 Bft) N-NO 23 0 min 0,000 mm 0,0 UV-I 115 W/m 13,3 C 16,6 C 4,8 km/h (1 Bft) 98,00 %
18.10.2017 16:28 16,6 C 12,2 C 81 % 1014,0 hPa 0,0 l/m 4,0 km/h (1 Bft) N-NO 23 0 min 0,000 mm 0,0 UV-I 133 W/m 13,3 C 16,6 C 4,8 km/h (1 Bft) 100,00 %
18.10.2017 16:30 16,4 C 12,2 C 82 % 1014,0 hPa 0,0 l/m 3,8 km/h (1 Bft) N-NO 24 0 min 0,000 mm 0,0 UV-I 109 W/m 13,3 C 16,4 C 6,4 km/h (2 Bft) 100,00 %
18.10.2017 16:32 16,4 C 12,2 C 82 % 1014,0 hPa 0,0 l/m 4,1 km/h (1 Bft) N-NO 26 2 min 0,000 mm 0,0 UV-I 173 W/m 13,3 C 16,4 C 6,4 km/h (2 Bft) 100,00 %
18.10.2017 16:34 16,3 C 12,2 C 82 % 1014,0 hPa 0,0 l/m 4,0 km/h (1 Bft) N-NO 26 2 min 0,000 mm 0,0 UV-I 175 W/m 13,2 C 16,3 C 4,8 km/h (1 Bft) 96,00 %
18.10.2017 16:36 16,3 C 12,2 C 82 % 1014,0 hPa 0,0 l/m 4,3 km/h (1 Bft) N-NO 26 2 min 0,000 mm 0,0 UV-I 174 W/m 13,2 C 16,3 C 6,4 km/h (2 Bft) 96,00 %
18.10.2017 16:38 16,3 C 12,2 C 83 % 1013,9 hPa 0,0 l/m 2,9 km/h (1 Bft) N-NO 26 2 min 0,000 mm 0,0 UV-I 166 W/m 13,4 C 16,3 C 4,8 km/h (1 Bft) 98,00 %
18.10.2017 16:40 16,3 C 12,2 C 83 % 1014,0 hPa 0,0 l/m 2,4 km/h (1 Bft) N-NO 26 2 min 0,000 mm 0,0 UV-I 179 W/m 13,4 C 16,3 C 4,8 km/h (1 Bft) 97,37 %
18.10.2017 16:42 16,3 C 12,2 C 83 % 1014,0 hPa 0,0 l/m 2,5 km/h (1 Bft) N-NO 26 2 min 0,000 mm 0,0 UV-I 180 W/m 13,4 C 16,3 C 3,2 km/h (1 Bft) 96,23 %
18.10.2017 16:44 16,3 C 12,2 C 84 % 1013,8 hPa 0,0 l/m 3,6 km/h (1 Bft) N-NO 26 2 min 0,000 mm 0,0 UV-I 175 W/m 13,6 C 16,3 C 4,8 km/h (1 Bft) 96,00 %
18.10.2017 16:46 16,3 C 12,2 C 84 % 1013,9 hPa 0,0 l/m 2,7 km/h (1 Bft) N-NO 26 2 min 0,000 mm 0,0 UV-I 171 W/m 13,6 C 16,3 C 4,8 km/h (1 Bft) 97,37 %
18.10.2017 16:48 16,3 C 12,2 C 84 % 1013,8 hPa 0,0 l/m 3,6 km/h (1 Bft) N-NO 26 2 min 0,000 mm 0,0 UV-I 167 W/m 13,6 C 16,3 C 6,4 km/h (2 Bft) 97,87 %
18.10.2017 16:50 16,3 C 12,2 C 84 % 1013,8 hPa 0,0 l/m 4,4 km/h (1 Bft) N-NO 26 2 min 0,000 mm 0,0 UV-I 162 W/m 13,6 C 16,3 C 6,4 km/h (2 Bft) 96,00 %
18.10.2017 16:52 16,3 C 12,2 C 83 % 1013,8 hPa 0,0 l/m 5,1 km/h (1 Bft) N-NO 31 2 min 0,000 mm 0,0 UV-I 153 W/m 13,4 C 16,3 C 8,0 km/h (2 Bft) 97,87 %
18.10.2017 16:54 16,3 C 12,2 C 83 % 1013,7 hPa 0,0 l/m 6,2 km/h (2 Bft) N-NO 31 2 min 0,000 mm 0,0 UV-I 153 W/m 13,4 C 16,3 C 8,0 km/h (2 Bft) 94,00 %
18.10.2017 16:56 16,3 C 12,2 C 83 % 1013,7 hPa 0,0 l/m 4,4 km/h (1 Bft) N-NO 30 2 min 0,000 mm 0,0 UV-I 148 W/m 13,4 C 16,3 C 6,4 km/h (2 Bft) 97,37 %
18.10.2017 16:58 16,3 C 12,2 C 83 % 1013,7 hPa 0,0 l/m 3,7 km/h (1 Bft) N-NO 30 2 min 0,000 mm 0,0 UV-I 144 W/m 13,4 C 16,3 C 6,4 km/h (2 Bft) 98,11 %
18.10.2017 17:00 16,3 C 12,2 C 83 % 1013,7 hPa 0,0 l/m 4,2 km/h (1 Bft) N-NO 30 2 min 0,101 mm 0,0 UV-I 137 W/m 13,4 C 16,3 C 6,4 km/h (2 Bft) 97,87 %
18.10.2017 17:02 16,3 C 12,2 C 84 % 1013,8 hPa 0,0 l/m 3,5 km/h (1 Bft) N-NO 30 2 min 0,000 mm 0,0 UV-I 132 W/m 13,6 C 16,3 C 4,8 km/h (1 Bft) 97,56 %
18.10.2017 17:04 16,3 C 12,2 C 84 % 1013,8 hPa 0,0 l/m 2,3 km/h (1 Bft) N-NO 31 2 min 0,000 mm 0,0 UV-I 128 W/m 13,6 C 16,3 C 6,4 km/h (2 Bft) 97,73 %
18.10.2017 17:06 16,3 C 12,2 C 83 % 1013,8 hPa 0,0 l/m 4,1 km/h (1 Bft) N-NO 32 2 min 0,000 mm 0,0 UV-I 124 W/m 13,4 C 16,3 C 6,4 km/h (2 Bft) 98,11 %
18.10.2017 17:08 16,2 C 12,2 C 83 % 1013,8 hPa 0,0 l/m 3,8 km/h (1 Bft) SO 137 2 min 0,000 mm 0,0 UV-I 118 W/m 13,3 C 16,2 C 8,0 km/h (2 Bft) 96,23 %
18.10.2017 17:10 16,2 C 12,2 C 83 % 1013,8 hPa 0,0 l/m 3,3 km/h (1 Bft) SO 138 2 min 0,000 mm 0,0 UV-I 113 W/m 13,3 C 16,2 C 6,4 km/h (2 Bft) 94,44 %
18.10.2017 17:12 16,2 C 12,2 C 83 % 1013,8 hPa 0,0 l/m 2,7 km/h (1 Bft) SO 143 2 min 0,000 mm 0,0 UV-I 106 W/m 13,3 C 16,2 C 4,8 km/h (1 Bft) 96,15 %
18.10.2017 17:14 16,2 C 12,2 C 83 % 1013,8 hPa 0,0 l/m 3,1 km/h (1 Bft) SO 138 2 min 0,000 mm 0,0 UV-I 103 W/m 13,3 C 16,2 C 6,4 km/h (2 Bft) 100,00 %
18.10.2017 17:16 16,1 C 12,2 C 83 % 1013,9 hPa 0,0 l/m 4,9 km/h (1 Bft) O-SO 121 2 min 0,000 mm 0,0 UV-I 98 W/m 13,2 C 16,1 C 6,4 km/h (2 Bft) 100,00 %
18.10.2017 17:18 16,1 C 12,2 C 84 % 1013,8 hPa 0,0 l/m 6,1 km/h (2 Bft) O-SO 122 2 min 0,000 mm 0,0 UV-I 92 W/m 13,4 C 16,1 C 8,0 km/h (2 Bft) 100,00 %
18.10.2017 17:20 16,0 C 12,2 C 84 % 1013,8 hPa 0,0 l/m 6,0 km/h (2 Bft) O-SO 115 2 min 0,000 mm 0,0 UV-I 88 W/m 13,3 C 16,0 C 8,0 km/h (2 Bft) 100,00 %
18.10.2017 17:22 15,9 C 12,2 C 84 % 1013,8 hPa 0,0 l/m 6,4 km/h (2 Bft) SO 136 2 min 0,000 mm 0,0 UV-I 82 W/m 13,2 C 15,9 C 9,7 km/h (2 Bft) 91,49 %
18.10.2017 17:24 15,8 C 12,2 C 84 % 1013,8 hPa 0,0 l/m 4,1 km/h (1 Bft) O-SO 122 2 min 0,000 mm 0,0 UV-I 77 W/m 13,1 C 15,8 C 8,0 km/h (2 Bft) 100,00 %
18.10.2017 17:26 15,8 C 12,2 C 85 % 1013,8 hPa 0,0 l/m 3,3 km/h (1 Bft) O-SO 122 2 min 0,000 mm 0,0 UV-I 72 W/m 13,3 C 15,8 C 4,8 km/h (1 Bft) 98,00 %
18.10.2017 17:28 15,7 C 12,2 C 85 % 1013,8 hPa 0,0 l/m 2,9 km/h (1 Bft) O-SO 118 2 min 0,000 mm 0,0 UV-I 68 W/m 13,2 C 15,7 C 6,4 km/h (2 Bft) 98,00 %
18.10.2017 17:30 15,7 C 12,2 C 85 % 1013,8 hPa 0,0 l/m 4,8 km/h (1 Bft) SO 124 2 min 0,000 mm 0,0 UV-I 62 W/m 13,2 C 15,7 C 6,4 km/h (2 Bft) 94,74 %
18.10.2017 17:32 15,6 C 12,2 C 85 % 1013,8 hPa 0,0 l/m 2,7 km/h (1 Bft) SO 124 2 min 0,000 mm 0,0 UV-I 57 W/m 13,1 C 15,6 C 4,8 km/h (1 Bft) 98,00 %
18.10.2017 17:34 15,4 C 12,2 C 86 % 1013,8 hPa 0,0 l/m 4,2 km/h (1 Bft) O-SO 103 2 min 0,000 mm 0,0 UV-I 52 W/m 13,1 C 15,4 C 6,4 km/h (2 Bft) 98,00 %
18.10.2017 17:36 15,4 C 12,2 C 86 % 1013,8 hPa 0,0 l/m 2,5 km/h (1 Bft) O-SO 103 2 min 0,000 mm 0,0 UV-I 49 W/m 13,1 C 15,4 C 4,8 km/h (1 Bft) 97,37 %
18.10.2017 17:38 15,3 C 12,2 C 86 % 1013,8 hPa 0,0 l/m 2,1 km/h (1 Bft) O-SO 103 2 min 0,000 mm 0,0 UV-I 46 W/m 13,0 C 15,3 C 4,8 km/h (1 Bft) 96,00 %
18.10.2017 17:40 15,3 C 12,2 C 86 % 1013,8 hPa 0,0 l/m 2,2 km/h (1 Bft) O-SO 103 2 min 0,000 mm 0,0 UV-I 42 W/m 13,0 C 15,3 C 3,2 km/h (1 Bft) 95,74 %
18.10.2017 17:42 15,3 C 12,2 C 87 % 1013,9 hPa 0,0 l/m 2,2 km/h (1 Bft) O-SO 103 2 min 0,000 mm 0,0 UV-I 39 W/m 13,1 C 15,3 C 3,2 km/h (1 Bft) 97,87 %
18.10.2017 17:44 15,2 C 12,2 C 87 % 1013,8 hPa 0,0 l/m 2,1 km/h (1 Bft) O-SO 103 2 min 0,000 mm 0,0 UV-I 36 W/m 13,0 C 15,2 C 3,2 km/h (1 Bft) 95,74 %
18.10.2017 17:46 15,1 C 12,2 C 87 % 1013,8 hPa 0,0 l/m 0,9 km/h (0 Bft) O-SO 103 2 min 0,000 mm 0,0 UV-I 33 W/m 13,0 C 15,1 C 1,6 km/h (1 Bft) 98,00 %
18.10.2017 17:48 15,0 C 12,2 C 87 % 1013,8 hPa 0,0 l/m 1,9 km/h (1 Bft) O-SO 103 2 min 0,000 mm 0,0 UV-I 30 W/m 12,9 C 15,0 C 3,2 km/h (1 Bft) 98,00 %
18.10.2017 17:50 14,9 C 12,2 C 87 % 1013,8 hPa 0,0 l/m 2,9 km/h (1 Bft) O-SO 103 2 min 0,000 mm 0,0 UV-I 26 W/m 12,8 C 14,9 C 4,8 km/h (1 Bft) 97,44 %
18.10.2017 17:52 14,9 C 12,2 C 87 % 1013,9 hPa 0,0 l/m 3,2 km/h (1 Bft) O-SO 103 2 min 0,000 mm 0,0 UV-I 24 W/m 12,8 C 14,9 C 4,8 km/h (1 Bft) 96,36 %
18.10.2017 17:54 14,8 C 12,2 C 88 % 1013,9 hPa 0,0 l/m 2,5 km/h (1 Bft) O-SO 103 2 min 0,000 mm 0,0 UV-I 22 W/m 12,8 C 14,8 C 3,2 km/h (1 Bft) 97,44 %
18.10.2017 17:56 14,7 C 12,2 C 88 % 1013,9 hPa 0,0 l/m 2,0 km/h (1 Bft) O-SO 103 2 min 0,000 mm 0,0 UV-I 20 W/m 12,7 C 14,7 C 3,2 km/h (1 Bft) 95,74 %
18.10.2017 17:58 14,6 C 12,2 C 88 % 1013,8 hPa 0,0 l/m 1,7 km/h (1 Bft) O-SO 103 2 min 0,000 mm 0,0 UV-I 18 W/m 12,6 C 14,6 C 3,2 km/h (1 Bft) 97,87 %
18.10.2017 18:00 14,4 C 12,2 C 89 % 1013,9 hPa 0,0 l/m 1,9 km/h (1 Bft) O-SO 103 0 min 0,000 mm 0,0 UV-I 16 W/m 12,6 C 14,4 C 4,8 km/h (1 Bft) 97,87 %
18.10.2017 18:02 14,3 C 12,2 C 89 % 1013,9 hPa 0,0 l/m 1,8 km/h (1 Bft) O-SO 103 0 min 0,051 mm 0,0 UV-I 15 W/m 12,5 C 14,3 C 3,2 km/h (1 Bft) 96,00 %
18.10.2017 18:04 14,1 C 12,2 C 89 % 1013,8 hPa 0,0 l/m 0,3 km/h (0 Bft) O-SO 103 0 min 0,000 mm 0,0 UV-I 12 W/m 12,3 C 14,1 C 1,6 km/h (1 Bft) 97,73 %
18.10.2017 18:06 14,0 C 12,2 C 89 % 1013,9 hPa 0,0 l/m 0,0 km/h (0 Bft) O-SO 103 0 min 0,000 mm 0,0 UV-I 11 W/m 12,2 C 14,0 C 0,0 km/h (0 Bft) 98,11 %
18.10.2017 18:08 13,8 C 12,2 C 90 % 1013,9 hPa 0,0 l/m 0,0 km/h (0 Bft) O-SO 103 0 min 0,000 mm 0,0 UV-I 11 W/m 12,2 C 13,8 C 0,0 km/h (0 Bft) 95,74 %
18.10.2017 18:10 13,8 C 12,2 C 91 % 1013,9 hPa 0,0 l/m 0,0 km/h (0 Bft) O-SO 103 0 min 0,000 mm 0,0 UV-I 9 W/m 12,4 C 13,8 C 0,0 km/h (0 Bft) 97,87 %
18.10.2017 18:12 13,7 C 12,2 C 91 % 1013,9 hPa 0,0 l/m 0,0 km/h (0 Bft) O-SO 103 0 min 0,000 mm 0,0 UV-I 9 W/m 12,3 C 13,7 C 0,0 km/h (0 Bft) 97,87 %
18.10.2017 18:14 13,5 C 12,2 C 91 % 1013,9 hPa 0,0 l/m 0,0 km/h (0 Bft) O-SO 103 0 min 0,000 mm 0,0 UV-I 8 W/m 12,1 C 13,5 C 0,0 km/h (0 Bft) 97,87 %
18.10.2017 18:16 13,5 C 12,2 C 92 % 1013,9 hPa 0,0 l/m 0,0 km/h (0 Bft) O-SO 103 0 min 0,000 mm 0,0 UV-I 7 W/m 12,2 C 13,5 C 0,0 km/h (0 Bft) 97,37 %
18.10.2017 18:18 13,4 C 12,2 C 92 % 1013,9 hPa 0,0 l/m 0,0 km/h (0 Bft) O-SO 103 0 min 0,000 mm 0,0 UV-I 7 W/m 12,1 C 13,4 C 0,0 km/h (0 Bft) 96,23 %
18.10.2017 18:20 13,3 C 12,2 C 92 % 1013,8 hPa 0,0 l/m 0,0 km/h (0 Bft) O-SO 103 0 min 0,000 mm 0,0 UV-I 6 W/m 12,0 C 13,3 C 0,0 km/h (0 Bft) 96,00 %
18.10.2017 18:22 13,1 C 12,2 C 92 % 1013,9 hPa 0,0 l/m 0,4 km/h (0 Bft) O-SO 103 0 min 0,000 mm 0,0 UV-I 5 W/m 11,8 C 13,1 C 1,6 km/h (1 Bft) 100,00 %
18.10.2017 18:24 12,9 C 12,2 C 92 % 1013,8 hPa 0,0 l/m 1,9 km/h (1 Bft) O-SO 103 0 min 0,000 mm 0,0 UV-I 5 W/m 11,6 C 12,9 C 3,2 km/h (1 Bft) 96,00 %
18.10.2017 18:26 12,7 C 12,2 C 92 % 1013,9 hPa 0,0 l/m 1,6 km/h (1 Bft) O-SO 103 0 min 0,000 mm 0,0 UV-I 3 W/m 11,4 C 12,7 C 3,2 km/h (1 Bft) 97,56 %
18.10.2017 18:28 12,6 C 12,2 C 92 % 1013,9 hPa 0,0 l/m 1,1 km/h (1 Bft) O-SO 103 0 min 0,000 mm 0,0 UV-I 0 W/m 11,3 C 12,6 C 3,2 km/h (1 Bft) 95,83 %
18.10.2017 18:30 12,5 C 12,2 C 93 % 1013,9 hPa 0,0 l/m 0,4 km/h (0 Bft) O-SO 103 0 min 0,000 mm 0,0 UV-I 0 W/m 11,4 C 12,5 C 1,6 km/h (1 Bft) 98,08 %
18.10.2017 18:32 12,4 C 12,2 C 93 % 1014,0 hPa 0,0 l/m 0,0 km/h (0 Bft) O-SO 103 0 min 0,000 mm 0,0 UV-I 0 W/m 11,3 C 12,4 C 1,6 km/h (1 Bft) 100,00 %
18.10.2017 18:34 12,4 C 12,2 C 94 % 1014,0 hPa 0,0 l/m 0,0 km/h (0 Bft) O-SO 103 0 min 0,000 mm 0,0 UV-I 0 W/m 11,5 C 12,4 C 0,0 km/h (0 Bft) 100,00 %
18.10.2017 18:36 12,5 C 12,2 C 94 % 1014,0 hPa 0,0 l/m 0,0 km/h (0 Bft) O-SO 103 0 min 0,000 mm 0,0 UV-I 0 W/m 11,6 C 12,5 C 0,0 km/h (0 Bft) 100,00 %
18.10.2017 18:38 12,5 C 12,2 C 94 % 1014,0 hPa 0,0 l/m 0,0 km/h (0 Bft) O-SO 103 0 min 0,000 mm 0,0 UV-I 0 W/m 11,6 C 12,5 C 0,0 km/h (0 Bft) 97,87 %
18.10.2017 18:40 12,4 C 12,2 C 94 % 1014,0 hPa 0,0 l/m 0,0 km/h (0 Bft) O-SO 103 0 min 0,000 mm 0,0 UV-I 0 W/m 11,5 C 12,4 C 0,0 km/h (0 Bft) 100,00 %
18.10.2017 18:42 12,3 C 12,2 C 94 % 1014,0 hPa 0,0 l/m 0,0 km/h (0 Bft) O-SO 103 0 min 0,000 mm 0,0 UV-I 0 W/m 11,4 C 12,3 C 0,0 km/h (0 Bft) 100,00 %
18.10.2017 18:44 12,3 C 12,2 C 94 % 1014,0 hPa 0,0 l/m 0,0 km/h (0 Bft) O-SO 103 0 min 0,000 mm 0,0 UV-I 0 W/m 11,4 C 12,3 C 0,0 km/h (0 Bft) 100,00 %
18.10.2017 18:46 12,2 C 12,2 C 94 % 1014,1 hPa 0,0 l/m 0,0 km/h (0 Bft) O-SO 103 0 min 0,000 mm 0,0 UV-I 0 W/m 11,3 C 12,2 C 0,0 km/h (0 Bft) 100,00 %
18.10.2017 18:48 12,1 C 12,2 C 94 % 1014,1 hPa 0,0 l/m 0,0 km/h (0 Bft) O-SO 103 0 min 0,000 mm 0,0 UV-I 0 W/m 11,2 C 12,1 C 0,0 km/h (0 Bft) 100,00 %
18.10.2017 18:50 12,0 C 12,2 C 94 % 1014,1 hPa 0,0 l/m 0,0 km/h (0 Bft) O-SO 103 0 min 0,000 mm 0,0 UV-I 0 W/m 11,1 C 12,0 C 0,0 km/h (0 Bft) 97,37 %
18.10.2017 18:52 11,9 C 12,2 C 94 % 1014,1 hPa 0,0 l/m 0,0 km/h (0 Bft) O-SO 103 0 min 0,000 mm 0,0 UV-I 0 W/m 11,0 C 11,9 C 0,0 km/h (0 Bft) 100,00 %
18.10.2017 18:54 11,9 C 12,2 C 94 % 1014,1 hPa 0,0 l/m 0,0 km/h (0 Bft) O-SO 103 0 min 0,000 mm 0,0 UV-I 0 W/m 11,0 C 11,9 C 0,0 km/h (0 Bft) 100,00 %
18.10.2017 18:56 11,8 C 12,2 C 94 % 1014,1 hPa 0,0 l/m 0,0 km/h (0 Bft) O-SO 103 0 min 0,000 mm 0,0 UV-I 0 W/m 10,9 C 11,8 C 0,0 km/h (0 Bft) 100,00 %
18.10.2017 18:58 11,7 C 12,2 C 94 % 1014,1 hPa 0,0 l/m 0,7 km/h (0 Bft) O-SO 103 0 min 0,000 mm 0,0 UV-I 0 W/m 10,8 C 11,7 C 3,2 km/h (1 Bft) 100,00 %
18.10.2017 19:00 11,6 C 12,2 C 94 % 1014,1 hPa 0,0 l/m 2,3 km/h (1 Bft) O-SO 103 0 min 0,000 mm 0,0 UV-I 0 W/m 10,7 C 11,6 C 3,2 km/h (1 Bft) 100,00 %
18.10.2017 19:02 11,4 C 12,2 C 94 % 1014,1 hPa 0,0 l/m 1,6 km/h (1 Bft) O-SO 103 0 min 0,000 mm 0,0 UV-I 0 W/m 10,5 C 11,4 C 3,2 km/h (1 Bft) 97,56 %
18.10.2017 19:04 11,3 C 12,2 C 94 % 1014,1 hPa 0,0 l/m 0,3 km/h (0 Bft) O-SO 103 0 min 0,000 mm 0,0 UV-I 0 W/m 10,4 C 11,3 C 1,6 km/h (1 Bft) 97,87 %
18.10.2017 19:06 11,3 C 12,2 C 94 % 1014,2 hPa 0,0 l/m 0,0 km/h (0 Bft) O-SO 103 0 min 0,000 mm 0,0 UV-I 0 W/m 10,4 C 11,3 C 1,6 km/h (1 Bft) 97,62 %
18.10.2017 19:08 11,2 C 12,2 C 95 % 1014,2 hPa 0,0 l/m 0,0 km/h (0 Bft) O-SO 103 0 min 0,000 mm 0,0 UV-I 0 W/m 10,4 C 11,2 C 0,0 km/h (0 Bft) 98,00 %
18.10.2017 19:10 11,2 C 12,2 C 95 % 1014,2 hPa 0,0 l/m 0,0 km/h (0 Bft) O-SO 103 0 min 0,000 mm 0,0 UV-I 0 W/m 10,4 C 11,2 C 0,0 km/h (0 Bft) 98,00 %
18.10.2017 19:12 11,1 C 12,2 C 95 % 1014,2 hPa 0,0 l/m 0,0 km/h (0 Bft) O-SO 103 0 min 0,000 mm 0,0 UV-I 0 W/m 10,3 C 11,1 C 0,0 km/h (0 Bft) 95,74 %
18.10.2017 19:14 11,1 C 12,2 C 95 % 1014,3 hPa 0,0 l/m 0,0 km/h (0 Bft) O-SO 103 0 min 0,000 mm 0,0 UV-I 0 W/m 10,3 C 11,1 C 0,0 km/h (0 Bft) 97,87 %
18.10.2017 19:16 11,1 C 12,2 C 95 % 1014,3 hPa 0,0 l/m 0,0 km/h (0 Bft) O-SO 103 0 min 0,000 mm 0,0 UV-I 0 W/m 10,3 C 11,1 C 0,0 km/h (0 Bft) 97,87 %
18.10.2017 19:18 11,1 C 12,2 C 95 % 1014,3 hPa 0,0 l/m 0,0 km/h (0 Bft) O-SO 103 0 min 0,000 mm 0,0 UV-I 0 W/m 10,3 C 11,1 C 0,0 km/h (0 Bft) 96,00 %
18.10.2017 19:20 11,1 C 12,2 C 95 % 1014,3 hPa 0,0 l/m 0,0 km/h (0 Bft) O-SO 103 0 min 0,000 mm 0,0 UV-I 0 W/m 10,3 C 11,1 C 0,0 km/h (0 Bft) 97,87 %
18.10.2017 19:22 11,2 C 12,2 C 95 % 1014,2 hPa 0,0 l/m 0,0 km/h (0 Bft) O-SO 103 0 min 0,000 mm 0,0 UV-I 0 W/m 10,4 C 11,2 C 0,0 km/h (0 Bft) 97,37 %
18.10.2017 19:24 11,2 C 12,2 C 96 % 1014,2 hPa 0,0 l/m 0,0 km/h (0 Bft) O-SO 103 0 min 0,000 mm 0,0 UV-I 0 W/m 10,6 C 11,2 C 0,0 km/h (0 Bft) 97,87 %
18.10.2017 19:26 11,4 C 12,2 C 96 % 1014,2 hPa 0,0 l/m 0,0 km/h (0 Bft) O-SO 103 0 min 0,000 mm 0,0 UV-I 0 W/m 10,8 C 11,4 C 0,0 km/h (0 Bft) 97,87 %
18.10.2017 19:28 11,5 C 12,2 C 96 % 1014,2 hPa 0,0 l/m 0,0 km/h (0 Bft) O-SO 103 0 min 0,000 mm 0,0 UV-I 0 W/m 10,9 C 11,5 C 0,0 km/h (0 Bft) 98,00 %
18.10.2017 19:30 11,7 C 12,2 C 97 % 1014,2 hPa 0,0 l/m 0,0 km/h (0 Bft) O-SO 103 0 min 0,000 mm 0,0 UV-I 0 W/m 11,2 C 11,7 C 0,0 km/h (0 Bft) 95,74 %
18.10.2017 19:32 11,6 C 12,2 C 96 % 1014,2 hPa 0,0 l/m 0,0 km/h (0 Bft) O-SO 103 0 min 0,000 mm 0,0 UV-I 0 W/m 11,0 C 11,6 C 0,0 km/h (0 Bft) 97,73 %
18.10.2017 19:34 11,4 C 12,2 C 95 % 1014,2 hPa 0,0 l/m 0,0 km/h (0 Bft) O-SO 103 0 min 0,000 mm 0,0 UV-I 0 W/m 10,6 C 11,4 C 0,0 km/h (0 Bft) 98,00 %
18.10.2017 19:36 11,3 C 12,2 C 95 % 1014,3 hPa 0,0 l/m 0,0 km/h (0 Bft) O-SO 103 0 min 0,000 mm 0,0 UV-I 0 W/m 10,5 C 11,3 C 0,0 km/h (0 Bft) 97,87 %
18.10.2017 19:38 11,2 C 12,2 C 96 % 1014,2 hPa 0,0 l/m 0,0 km/h (0 Bft) O-SO 103 0 min 0,000 mm 0,0 UV-I 0 W/m 10,6 C 11,2 C 0,0 km/h (0 Bft) 97,87 %
18.10.2017 19:40 11,1 C 12,2 C 95 % 1014,2 hPa 0,0 l/m 0,7 km/h (0 Bft) O-SO 103 0 min 0,000 mm 0,0 UV-I 0 W/m 10,3 C 11,1 C 1,6 km/h (1 Bft) 97,37 %
18.10.2017 19:42 11,2 C 12,2 C 96 % 1014,3 hPa 0,0 l/m 1,6 km/h (1 Bft) O-SO 103 0 min 0,000 mm 0,0 UV-I 0 W/m 10,6 C 11,2 C 3,2 km/h (1 Bft) 100,00 %
18.10.2017 19:44 11,1 C 12,2 C 96 % 1014,3 hPa 0,0 l/m 0,2 km/h (0 Bft) O-SO 103 0 min 0,000 mm 0,0 UV-I 0 W/m 10,5 C 11,1 C 1,6 km/h (1 Bft) 100,00 %
18.10.2017 19:46 10,9 C 12,2 C 95 % 1014,3 hPa 0,0 l/m 1,1 km/h (1 Bft) O-SO 103 0 min 0,000 mm 0,0 UV-I 0 W/m 10,1 C 10,9 C 3,2 km/h (1 Bft) 97,56 %
18.10.2017 19:48 10,8 C 12,2 C 95 % 1014,4 hPa 0,0 l/m 3,2 km/h (1 Bft) O-SO 103 0 min 0,000 mm 0,0 UV-I 0 W/m 10,0 C 10,8 C 4,8 km/h (1 Bft) 100,00 %
18.10.2017 19:50 10,7 C 12,2 C 95 % 1014,4 hPa 0,0 l/m 2,5 km/h (1 Bft) O-SO 103 0 min 0,000 mm 0,0 UV-I 0 W/m 9,9 C 10,7 C 3,2 km/h (1 Bft) 100,00 %
18.10.2017 19:52 10,8 C 12,2 C 96 % 1014,4 hPa 0,0 l/m 2,1 km/h (1 Bft) O-SO 103 0 min 0,000 mm 0,0 UV-I 0 W/m 10,2 C 10,8 C 3,2 km/h (1 Bft) 100,00 %
18.10.2017 19:54 10,8 C 12,2 C 96 % 1014,4 hPa 0,0 l/m 2,6 km/h (1 Bft) S 184 0 min 0,000 mm 0,0 UV-I 0 W/m 10,2 C 10,8 C 4,8 km/h (1 Bft) 100,00 %
18.10.2017 19:56 10,7 C 12,2 C 96 % 1014,5 hPa 0,0 l/m 1,7 km/h (1 Bft) S 184 0 min 0,000 mm 0,0 UV-I 0 W/m 10,1 C 10,7 C 3,2 km/h (1 Bft) 100,00 %
18.10.2017 19:58 10,7 C 12,2 C 96 % 1014,4 hPa 0,0 l/m 2,2 km/h (1 Bft) S 184 0 min 0,000 mm 0,0 UV-I 0 W/m 10,1 C 10,7 C 3,2 km/h (1 Bft) 100,00 %
18.10.2017 20:00 10,7 C 12,2 C 96 % 1014,5 hPa 0,0 l/m 2,8 km/h (1 Bft) S 184 0 min 0,000 mm 0,0 UV-I 0 W/m 10,1 C 10,7 C 3,2 km/h (1 Bft) 100,00 %
18.10.2017 20:02 10,6 C 12,2 C 96 % 1014,5 hPa 0,0 l/m 3,3 km/h (1 Bft) S 184 0 min 0,000 mm 0,0 UV-I 0 W/m 10,0 C 10,6 C 4,8 km/h (1 Bft) 100,00 %
18.10.2017 20:04 10,7 C 12,2 C 96 % 1014,5 hPa 0,0 l/m 2,5 km/h (1 Bft) S 184 0 min 0,000 mm 0,0 UV-I 0 W/m 10,1 C 10,7 C 3,2 km/h (1 Bft) 100,00 %
18.10.2017 20:05 10,7 C 12,2 C 96 % 1014,5 hPa 0,0 l/m 3,2 km/h (1 Bft) S 180 0 min 0,000 mm 0,0 UV-I 0 W/m 10,1 C 10,7 C 4,8 km/h (1 Bft) 96,49 %
18.10.2017 20:08 10,7 C 12,2 C 96 % 1014,5 hPa 0,0 l/m 3,8 km/h (1 Bft) S 184 0 min 0,000 mm 0,0 UV-I 0 W/m 10,1 C 10,7 C 4,8 km/h (1 Bft) 95,65 %
18.10.2017 20:10 10,7 C 12,2 C 96 % 1014,5 hPa 0,0 l/m 3,7 km/h (1 Bft) S 184 0 min 0,000 mm 0,0 UV-I 0 W/m 10,1 C 10,7 C 4,8 km/h (1 Bft) 98,00 %
18.10.2017 20:12 10,7 C 12,2 C 96 % 1014,5 hPa 0,0 l/m 4,6 km/h (1 Bft) S 184 0 min 0,000 mm 0,0 UV-I 0 W/m 10,1 C 10,7 C 4,8 km/h (1 Bft) 100,00 %
18.10.2017 20:14 10,7 C 12,2 C 96 % 1014,5 hPa 0,0 l/m 4,1 km/h (1 Bft) S 184 0 min 0,000 mm 0,0 UV-I 0 W/m 10,1 C 10,7 C 4,8 km/h (1 Bft) 100,00 %
18.10.2017 20:16 10,6 C 12,2 C 96 % 1014,5 hPa 0,0 l/m 4,1 km/h (1 Bft) S 184 0 min 0,000 mm 0,0 UV-I 0 W/m 10,0 C 10,6 C 4,8 km/h (1 Bft) 97,87 %
18.10.2017 20:18 10,5 C 12,2 C 96 % 1014,5 hPa 0,0 l/m 4,0 km/h (1 Bft) S 184 0 min 0,000 mm 0,0 UV-I 0 W/m 9,9 C 10,5 C 6,4 km/h (2 Bft) 96,00 %
18.10.2017 20:20 10,4 C 12,2 C 96 % 1014,5 hPa 0,0 l/m 3,4 km/h (1 Bft) S 184 0 min 0,000 mm 0,0 UV-I 0 W/m 9,8 C 10,4 C 4,8 km/h (1 Bft) 100,00 %
18.10.2017 20:22 10,3 C 12,2 C 96 % 1014,5 hPa 0,0 l/m 4,8 km/h (1 Bft) S 186 0 min 0,000 mm 0,0 UV-I 0 W/m 9,7 C 10,3 C 6,4 km/h (2 Bft) 100,00 %
18.10.2017 20:24 10,3 C 12,2 C 96 % 1014,5 hPa 0,0 l/m 4,0 km/h (1 Bft) S 186 0 min 0,000 mm 0,0 UV-I 0 W/m 9,7 C 10,3 C 4,8 km/h (1 Bft) 100,00 %
18.10.2017 20:26 10,4 C 12,2 C 96 % 1014,6 hPa 0,0 l/m 1,9 km/h (1 Bft) S 186 0 min 0,000 mm 0,0 UV-I 0 W/m 9,8 C 10,4 C 3,2 km/h (1 Bft) 100,00 %
18.10.2017 20:28 10,5 C 12,2 C 96 % 1014,5 hPa 0,0 l/m 1,8 km/h (1 Bft) S 186 0 min 0,000 mm 0,0 UV-I 0 W/m 9,9 C 10,5 C 3,2 km/h (1 Bft) 97,87 %
18.10.2017 20:30 10,5 C 12,2 C 96 % 1014,5 hPa 0,0 l/m 2,7 km/h (1 Bft) S 184 0 min 0,000 mm 0,0 UV-I 0 W/m 9,9 C 10,5 C 4,8 km/h (1 Bft) 100,00 %
18.10.2017 20:32 10,5 C 12,2 C 96 % 1014,5 hPa 0,0 l/m 2,8 km/h (1 Bft) S 184 0 min 0,000 mm 0,0 UV-I 0 W/m 9,9 C 10,5 C 4,8 km/h (1 Bft) 100,00 %
18.10.2017 20:34 10,6 C 12,2 C 96 % 1014,5 hPa 0,0 l/m 2,5 km/h (1 Bft) S 178 0 min 0,000 mm 0,0 UV-I 0 W/m 10,0 C 10,6 C 4,8 km/h (1 Bft) 100,00 %
18.10.2017 20:36 10,7 C 12,2 C 96 % 1014,5 hPa 0,0 l/m 2,2 km/h (1 Bft) S 177 0 min 0,000 mm 0,0 UV-I 0 W/m 10,1 C 10,7 C 3,2 km/h (1 Bft) 100,00 %
18.10.2017 20:38 10,7 C 12,2 C 96 % 1014,5 hPa 0,0 l/m 1,7 km/h (1 Bft) S 177 0 min 0,000 mm 0,0 UV-I 0 W/m 10,1 C 10,7 C 3,2 km/h (1 Bft) 100,00 %
18.10.2017 20:40 10,8 C 12,2 C 96 % 1014,5 hPa 0,0 l/m 2,9 km/h (1 Bft) S 177 0 min 0,000 mm 0,0 UV-I 0 W/m 10,2 C 10,8 C 4,8 km/h (1 Bft) 98,44 %
18.10.2017 20:42 10,8 C 12,2 C 96 % 1014,5 hPa 0,0 l/m 2,5 km/h (1 Bft) S 177 0 min 0,000 mm 0,0 UV-I 0 W/m 10,2 C 10,8 C 4,8 km/h (1 Bft) 96,00 %
18.10.2017 20:44 10,8 C 12,2 C 96 % 1014,4 hPa 0,0 l/m 1,9 km/h (1 Bft) S 177 0 min 0,000 mm 0,0 UV-I 0 W/m 10,2 C 10,8 C 3,2 km/h (1 Bft) 100,00 %
18.10.2017 20:46 10,8 C 12,2 C 96 % 1014,4 hPa 0,0 l/m 1,2 km/h (1 Bft) S 177 0 min 0,000 mm 0,0 UV-I 0 W/m 10,2 C 10,8 C 3,2 km/h (1 Bft) 100,00 %
18.10.2017 20:48 10,7 C 12,2 C 96 % 1014,4 hPa 0,0 l/m 1,5 km/h (1 Bft) S 177 0 min 0,000 mm 0,0 UV-I 0 W/m 10,1 C 10,7 C 3,2 km/h (1 Bft) 100,00 %
18.10.2017 20:50 10,8 C 12,2 C 96 % 1014,4 hPa 0,0 l/m 1,5 km/h (1 Bft) S 177 0 min 0,000 mm 0,0 UV-I 0 W/m 10,2 C 10,8 C 3,2 km/h (1 Bft) 97,22 %
18.10.2017 20:52 10,8 C 12,2 C 96 % 1014,4 hPa 0,0 l/m 1,0 km/h (0 Bft) S 177 0 min 0,000 mm 0,0 UV-I 0 W/m 10,2 C 10,8 C 3,2 km/h (1 Bft) 100,00 %
18.10.2017 20:54 10,8 C 12,2 C 97 % 1014,4 hPa 0,0 l/m 0,4 km/h (0 Bft) S 177 0 min 0,000 mm 0,0 UV-I 0 W/m 10,3 C 10,8 C 1,6 km/h (1 Bft) 100,00 %
18.10.2017 20:56 10,9 C 12,2 C 96 % 1014,4 hPa 0,0 l/m 0,3 km/h (0 Bft) S 177 0 min 0,000 mm 0,0 UV-I 0 W/m 10,3 C 10,9 C 1,6 km/h (1 Bft) 97,37 %
18.10.2017 20:58 10,8 C 12,2 C 96 % 1014,4 hPa 0,0 l/m 0,0 km/h (0 Bft) S 177 0 min 0,000 mm 0,0 UV-I 0 W/m 10,2 C 10,8 C 0,0 km/h (0 Bft) 100,00 %
18.10.2017 21:00 10,7 C 12,2 C 96 % 1014,4 hPa 0,0 l/m 0,0 km/h (0 Bft) S 177 0 min 0,000 mm 0,0 UV-I 0 W/m 10,1 C 10,7 C 0,0 km/h (0 Bft) 97,87 %
18.10.2017 21:02 10,4 C 12,2 C 96 % 1014,5 hPa 0,0 l/m 0,0 km/h (0 Bft) S 177 0 min 0,000 mm 0,0 UV-I 0 W/m 9,8 C 10,4 C 0,0 km/h (0 Bft) 100,00 %
18.10.2017 21:04 10,3 C 12,2 C 96 % 1014,4 hPa 0,0 l/m 0,0 km/h (0 Bft) S 177 0 min 0,000 mm 0,0 UV-I 0 W/m 9,7 C 10,3 C 0,0 km/h (0 Bft) 100,00 %
18.10.2017 21:06 10,1 C 12,2 C 96 % 1014,5 hPa 0,0 l/m 0,0 km/h (0 Bft) S 177 0 min 0,000 mm 0,0 UV-I 0 W/m 9,5 C 10,1 C 0,0 km/h (0 Bft) 100,00 %
18.10.2017 21:08 10,0 C 12,2 C 96 % 1014,5 hPa 0,0 l/m 0,0 km/h (0 Bft) S 177 0 min 0,000 mm 0,0 UV-I 0 W/m 9,4 C 10,0 C 0,0 km/h (0 Bft) 95,74 %
18.10.2017 21:10 9,9 C 12,2 C 96 % 1014,5 hPa 0,0 l/m 0,0 km/h (0 Bft) S 177 0 min 0,000 mm 0,0 UV-I 0 W/m 9,3 C 9,9 C 0,0 km/h (0 Bft) 96,23 %
18.10.2017 21:12 9,9 C 12,2 C 96 % 1014,5 hPa 0,0 l/m 0,0 km/h (0 Bft) S 177 0 min 0,000 mm 0,0 UV-I 0 W/m 9,3 C 9,9 C 0,0 km/h (0 Bft) 100,00 %
18.10.2017 21:14 9,8 C 12,2 C 96 % 1014,5 hPa 0,0 l/m 0,0 km/h (0 Bft) S 177 0 min 0,000 mm 0,0 UV-I 0 W/m 9,2 C 9,8 C 0,0 km/h (0 Bft) 96,00 %
18.10.2017 21:16 9,7 C 12,2 C 96 % 1014,6 hPa 0,0 l/m 0,0 km/h (0 Bft) S 177 0 min 0,000 mm 0,0 UV-I 0 W/m 9,1 C 9,7 C 0,0 km/h (0 Bft) 97,56 %
18.10.2017 21:18 9,7 C 12,2 C 96 % 1014,5 hPa 0,0 l/m 0,0 km/h (0 Bft) S 177 0 min 0,000 mm 0,0 UV-I 0 W/m 9,1 C 9,7 C 0,0 km/h (0 Bft) 95,74 %
18.10.2017 21:20 9,7 C 12,2 C 96 % 1014,6 hPa 0,0 l/m 0,2 km/h (0 Bft) S 177 0 min 0,000 mm 0,0 UV-I 0 W/m 9,1 C 9,7 C 3,2 km/h (1 Bft) 93,62 %
18.10.2017 21:22 9,7 C 12,2 C 96 % 1014,6 hPa 0,0 l/m 2,3 km/h (1 Bft) S 177 0 min 0,000 mm 0,0 UV-I 0 W/m 9,1 C 9,7 C 3,2 km/h (1 Bft) 98,11 %
18.10.2017 21:24 9,7 C 12,2 C 96 % 1014,6 hPa 0,0 l/m 2,6 km/h (1 Bft) S 177 0 min 0,000 mm 0,0 UV-I 0 W/m 9,1 C 9,7 C 3,2 km/h (1 Bft) 92,68 %
18.10.2017 21:26 9,7 C 12,2 C 96 % 1014,6 hPa 0,0 l/m 2,4 km/h (1 Bft) S 177 0 min 0,000 mm 0,0 UV-I 0 W/m 9,1 C 9,7 C 3,2 km/h (1 Bft) 95,24 %
18.10.2017 21:28 9,7 C 12,2 C 96 % 1014,6 hPa 0,0 l/m 2,1 km/h (1 Bft) S 177 0 min 0,000 mm 0,0 UV-I 0 W/m 9,1 C 9,7 C 3,2 km/h (1 Bft) 95,45 %
18.10.2017 21:30 9,7 C 12,2 C 96 % 1014,6 hPa 0,0 l/m 2,8 km/h (1 Bft) S 178 0 min 0,000 mm 0,0 UV-I 0 W/m 9,1 C 9,7 C 3,2 km/h (1 Bft) 92,19 %
18.10.2017 21:32 9,7 C 12,2 C 96 % 1014,6 hPa 0,0 l/m 2,8 km/h (1 Bft) S 178 0 min 0,000 mm 0,0 UV-I 0 W/m 9,1 C 9,7 C 3,2 km/h (1 Bft) 94,87 %
18.10.2017 21:34 9,6 C 12,2 C 96 % 1014,7 hPa 0,0 l/m 2,0 km/h (1 Bft) S 178 0 min 0,000 mm 0,0 UV-I 0 W/m 9,0 C 9,6 C 3,2 km/h (1 Bft) 94,00 %
18.10.2017 21:36 9,6 C 12,2 C 96 % 1014,7 hPa 0,0 l/m 1,8 km/h (1 Bft) S 178 0 min 0,000 mm 0,0 UV-I 0 W/m 9,0 C 9,6 C 3,2 km/h (1 Bft) 94,00 %
18.10.2017 21:38 9,6 C 12,2 C 96 % 1014,7 hPa 0,0 l/m 1,5 km/h (1 Bft) S 178 0 min 0,000 mm 0,0 UV-I 0 W/m 9,0 C 9,6 C 3,2 km/h (1 Bft) 90,70 %
18.10.2017 21:40 9,7 C 12,2 C 96 % 1014,7 hPa 0,0 l/m 1,3 km/h (1 Bft) S 178 0 min 0,000 mm 0,0 UV-I 0 W/m 9,1 C 9,7 C 3,2 km/h (1 Bft) 95,74 %
18.10.2017 21:42 9,7 C 12,2 C 97 % 1014,7 hPa 0,0 l/m 1,1 km/h (1 Bft) S 178 0 min 0,000 mm 0,0 UV-I 0 W/m 9,2 C 9,7 C 3,2 km/h (1 Bft) 95,74 %
18.10.2017 21:44 9,8 C 12,2 C 97 % 1014,7 hPa 0,0 l/m 0,0 km/h (0 Bft) S 178 0 min 0,000 mm 0,0 UV-I 0 W/m 9,3 C 9,8 C 1,6 km/h (1 Bft) 96,00 %
18.10.2017 21:46 9,8 C 12,2 C 97 % 1014,7 hPa 0,0 l/m 0,0 km/h (0 Bft) S 178 0 min 0,000 mm 0,0 UV-I 0 W/m 9,3 C 9,8 C 0,0 km/h (0 Bft) 94,74 %
18.10.2017 21:48 9,8 C 12,2 C 97 % 1014,7 hPa 0,0 l/m 0,0 km/h (0 Bft) S 178 0 min 0,000 mm 0,0 UV-I 0 W/m 9,3 C 9,8 C 0,0 km/h (0 Bft) 94,55 %
18.10.2017 21:50 9,9 C 12,2 C 97 % 1014,7 hPa 0,0 l/m 0,0 km/h (0 Bft) S 178 0 min 0,000 mm 0,0 UV-I 0 W/m 9,4 C 9,9 C 0,0 km/h (0 Bft) 93,62 %
18.10.2017 21:52 9,9 C 12,2 C 97 % 1014,7 hPa 0,0 l/m 0,0 km/h (0 Bft) S 178 0 min 0,000 mm 0,0 UV-I 0 W/m 9,4 C 9,9 C 0,0 km/h (0 Bft) 95,74 %
18.10.2017 21:54 9,9 C 12,2 C 97 % 1014,7 hPa 0,0 l/m 0,0 km/h (0 Bft) S 178 0 min 0,000 mm 0,0 UV-I 0 W/m 9,4 C 9,9 C 0,0 km/h (0 Bft) 94,00 %
18.10.2017 21:56 9,9 C 12,2 C 97 % 1014,7 hPa 0,0 l/m 0,0 km/h (0 Bft) S 178 0 min 0,000 mm 0,0 UV-I 0 W/m 9,4 C 9,9 C 0,0 km/h (0 Bft) 97,37 %
18.10.2017 21:58 9,8 C 12,2 C 97 % 1014,7 hPa 0,0 l/m 0,0 km/h (0 Bft) S 178 0 min 0,000 mm 0,0 UV-I 0 W/m 9,3 C 9,8 C 0,0 km/h (0 Bft) 96,23 %
18.10.2017 22:00 9,6 C 12,2 C 96 % 1014,7 hPa 0,0 l/m 0,0 km/h (0 Bft) S 178 0 min 0,000 mm 0,0 UV-I 0 W/m 9,0 C 9,6 C 1,6 km/h (1 Bft) 95,74 %
18.10.2017 22:02 9,5 C 12,2 C 96 % 1014,7 hPa 0,0 l/m 0,2 km/h (0 Bft) S 178 0 min 0,000 mm 0,0 UV-I 0 W/m 8,9 C 9,5 C 1,6 km/h (1 Bft) 95,74 %
18.10.2017 22:04 9,4 C 12,2 C 97 % 1014,7 hPa 0,0 l/m 0,1 km/h (0 Bft) S 178 0 min 0,000 mm 0,0 UV-I 0 W/m 8,9 C 9,4 C 1,6 km/h (1 Bft) 100,00 %
18.10.2017 22:06 9,2 C 12,2 C 96 % 1014,7 hPa 0,0 l/m 0,7 km/h (0 Bft) S 178 0 min 0,000 mm 0,0 UV-I 0 W/m 8,6 C 9,2 C 1,6 km/h (1 Bft) 100,00 %
18.10.2017 22:08 9,2 C 12,2 C 96 % 1014,7 hPa 0,0 l/m 2,0 km/h (1 Bft) S 178 0 min 0,000 mm 0,0 UV-I 0 W/m 8,6 C 9,2 C 3,2 km/h (1 Bft) 100,00 %
18.10.2017 22:10 9,1 C 12,2 C 96 % 1014,7 hPa 0,0 l/m 1,9 km/h (1 Bft) S 178 0 min 0,000 mm 0,0 UV-I 0 W/m 8,5 C 9,1 C 3,2 km/h (1 Bft) 100,00 %
18.10.2017 22:12 9,1 C 12,2 C 97 % 1014,8 hPa 0,0 l/m 2,3 km/h (1 Bft) S 178 0 min 0,000 mm 0,0 UV-I 0 W/m 8,6 C 9,1 C 3,2 km/h (1 Bft) 100,00 %
18.10.2017 22:14 8,9 C 12,2 C 97 % 1014,8 hPa 0,0 l/m 2,1 km/h (1 Bft) S 178 0 min 0,000 mm 0,0 UV-I 0 W/m 8,4 C 8,9 C 3,2 km/h (1 Bft) 100,00 %
18.10.2017 22:16 9,0 C 12,2 C 96 % 1014,7 hPa 0,0 l/m 2,3 km/h (1 Bft) S 178 0 min 0,000 mm 0,0 UV-I 0 W/m 8,4 C 9,0 C 3,2 km/h (1 Bft) 100,00 %
18.10.2017 22:18 9,2 C 12,2 C 97 % 1014,8 hPa 0,0 l/m 2,2 km/h (1 Bft) S 178 0 min 0,000 mm 0,0 UV-I 0 W/m 8,7 C 9,2 C 3,2 km/h (1 Bft) 100,00 %
18.10.2017 22:20 9,3 C 12,2 C 97 % 1014,8 hPa 0,0 l/m 1,8 km/h (1 Bft) S 178 0 min 0,000 mm 0,0 UV-I 0 W/m 8,8 C 9,3 C 3,2 km/h (1 Bft) 97,87 %
18.10.2017 22:22 9,3 C 12,2 C 97 % 1014,9 hPa 0,0 l/m 0,7 km/h (0 Bft) S 178 0 min 0,000 mm 0,0 UV-I 0 W/m 8,8 C 9,3 C 3,2 km/h (1 Bft) 100,00 %
18.10.2017 22:24 9,3 C 12,2 C 97 % 1014,9 hPa 0,0 l/m 1,5 km/h (1 Bft) S 178 0 min 0,000 mm 0,0 UV-I 0 W/m 8,8 C 9,3 C 3,2 km/h (1 Bft) 100,00 %
18.10.2017 22:26 9,3 C 12,2 C 97 % 1014,9 hPa 0,0 l/m 2,3 km/h (1 Bft) S 178 0 min 0,000 mm 0,0 UV-I 0 W/m 8,8 C 9,3 C 3,2 km/h (1 Bft) 100,00 %
18.10.2017 22:28 9,3 C 12,2 C 97 % 1014,9 hPa 0,0 l/m 2,4 km/h (1 Bft) S 178 0 min 0,000 mm 0,0 UV-I 0 W/m 8,8 C 9,3 C 3,2 km/h (1 Bft) 100,00 %
18.10.2017 22:30 9,2 C 12,2 C 97 % 1014,8 hPa 0,0 l/m 2,2 km/h (1 Bft) S 178 0 min 0,000 mm 0,0 UV-I 0 W/m 8,7 C 9,2 C 3,2 km/h (1 Bft) 94,00 %
18.10.2017 22:32 9,1 C 12,2 C 97 % 1014,8 hPa 0,0 l/m 1,5 km/h (1 Bft) S 178 0 min 0,000 mm 0,0 UV-I 0 W/m 8,6 C 9,1 C 3,2 km/h (1 Bft) 100,00 %
18.10.2017 22:34 9,0 C 12,2 C 97 % 1014,8 hPa 0,0 l/m 1,4 km/h (1 Bft) S 178 0 min 0,000 mm 0,0 UV-I 0 W/m 8,5 C 9,0 C 3,2 km/h (1 Bft) 100,00 %
18.10.2017 22:36 8,8 C 12,2 C 96 % 1014,8 hPa 0,0 l/m 1,6 km/h (1 Bft) S 178 0 min 0,000 mm 0,0 UV-I 0 W/m 8,2 C 8,8 C 3,2 km/h (1 Bft) 98,00 %
18.10.2017 22:38 8,8 C 12,2 C 97 % 1014,9 hPa 0,0 l/m 0,5 km/h (0 Bft) S 178 0 min 0,000 mm 0,0 UV-I 0 W/m 8,4 C 8,8 C 1,6 km/h (1 Bft) 96,00 %
18.10.2017 22:40 8,8 C 12,2 C 97 % 1014,8 hPa 0,0 l/m 0,0 km/h (0 Bft) S 178 0 min 0,000 mm 0,0 UV-I 0 W/m 8,4 C 8,8 C 0,0 km/h (0 Bft) 97,37 %
18.10.2017 22:42 8,8 C 12,2 C 97 % 1014,8 hPa 0,0 l/m 0,0 km/h (0 Bft) S 178 0 min 0,000 mm 0,0 UV-I 0 W/m 8,4 C 8,8 C 1,6 km/h (1 Bft) 100,00 %
18.10.2017 22:44 8,8 C 12,2 C 97 % 1014,8 hPa 0,0 l/m 0,4 km/h (0 Bft) S 178 0 min 0,000 mm 0,0 UV-I 0 W/m 8,4 C 8,8 C 1,6 km/h (1 Bft) 100,00 %
18.10.2017 22:46 8,9 C 12,2 C 97 % 1014,8 hPa 0,2 l/m 1,5 km/h (1 Bft) S 178 0 min 0,000 mm 0,0 UV-I 0 W/m 8,4 C 8,9 C 1,6 km/h (1 Bft) 100,00 %
18.10.2017 22:48 9,1 C 12,2 C 97 % 1014,8 hPa 0,0 l/m 1,2 km/h (1 Bft) S 178 0 min 0,000 mm 0,0 UV-I 0 W/m 8,6 C 9,1 C 3,2 km/h (1 Bft) 100,00 %
18.10.2017 22:50 9,1 C 12,2 C 97 % 1014,8 hPa 0,0 l/m 2,1 km/h (1 Bft) S 178 0 min 0,000 mm 0,0 UV-I 0 W/m 8,6 C 9,1 C 3,2 km/h (1 Bft) 100,00 %
18.10.2017 22:52 9,0 C 12,2 C 97 % 1014,8 hPa 0,0 l/m 1,7 km/h (1 Bft) S 178 0 min 0,000 mm 0,0 UV-I 0 W/m 8,5 C 9,0 C 3,2 km/h (1 Bft) 100,00 %
18.10.2017 22:54 8,9 C 12,2 C 97 % 1014,8 hPa 0,0 l/m 1,9 km/h (1 Bft) S 178 0 min 0,000 mm 0,0 UV-I 0 W/m 8,4 C 8,9 C 3,2 km/h (1 Bft) 100,00 %
18.10.2017 22:56 8,9 C 12,2 C 97 % 1014,8 hPa 0,0 l/m 2,2 km/h (1 Bft) S 178 0 min 0,000 mm 0,0 UV-I 0 W/m 8,4 C 8,9 C 3,2 km/h (1 Bft) 100,00 %
18.10.2017 22:58 8,8 C 12,2 C 97 % 1014,8 hPa 0,0 l/m 2,0 km/h (1 Bft) S 178 0 min 0,000 mm 0,0 UV-I 0 W/m 8,4 C 8,8 C 3,2 km/h (1 Bft) 98,00 %
18.10.2017 23:00 8,7 C 12,2 C 97 % 1014,9 hPa 0,0 l/m 2,5 km/h (1 Bft) S 178 0 min 0,000 mm 0,0 UV-I 0 W/m 8,3 C 8,7 C 3,2 km/h (1 Bft) 98,00 %
18.10.2017 23:02 8,6 C 12,2 C 96 % 1014,9 hPa 0,0 l/m 1,7 km/h (1 Bft) S 178 0 min 0,000 mm 0,0 UV-I 0 W/m 8,0 C 8,6 C 3,2 km/h (1 Bft) 100,00 %
18.10.2017 23:04 8,7 C 12,2 C 97 % 1014,9 hPa 0,0 l/m 0,5 km/h (0 Bft) S 178 0 min 0,000 mm 0,0 UV-I 0 W/m 8,3 C 8,7 C 1,6 km/h (1 Bft) 100,00 %
18.10.2017 23:06 8,6 C 12,2 C 97 % 1014,9 hPa 0,0 l/m 0,0 km/h (0 Bft) S 178 0 min 0,000 mm 0,0 UV-I 0 W/m 8,2 C 8,6 C 0,0 km/h (0 Bft) 100,00 %
18.10.2017 23:08 8,6 C 12,2 C 97 % 1014,9 hPa 0,0 l/m 0,0 km/h (0 Bft) S 178 0 min 0,000 mm 0,0 UV-I 0 W/m 8,2 C 8,6 C 1,6 km/h (1 Bft) 97,87 %
18.10.2017 23:10 8,4 C 12,2 C 97 % 1014,9 hPa 0,0 l/m 0,0 km/h (0 Bft) S 178 0 min 0,000 mm 0,0 UV-I 0 W/m 8,0 C 8,4 C 0,0 km/h (0 Bft) 100,00 %
18.10.2017 23:12 8,4 C 12,2 C 97 % 1014,9 hPa 0,0 l/m 0,4 km/h (0 Bft) S 178 0 min 0,000 mm 0,0 UV-I 0 W/m 8,0 C 8,4 C 1,6 km/h (1 Bft) 100,00 %
18.10.2017 23:14 8,4 C 12,2 C 97 % 1014,9 hPa 0,0 l/m 1,2 km/h (1 Bft) S 178 0 min 0,000 mm 0,0 UV-I 0 W/m 8,0 C 8,4 C 3,2 km/h (1 Bft) 100,00 %
18.10.2017 23:16 8,4 C 12,2 C 97 % 1014,9 hPa 0,0 l/m 1,6 km/h (1 Bft) S 178 0 min 0,000 mm 0,0 UV-I 0 W/m 8,0 C 8,4 C 3,2 km/h (1 Bft) 98,00 %
18.10.2017 23:18 8,3 C 12,2 C 97 % 1014,9 hPa 0,0 l/m 0,3 km/h (0 Bft) S 178 0 min 0,000 mm 0,0 UV-I 0 W/m 7,9 C 8,3 C 1,6 km/h (1 Bft) 100,00 %
18.10.2017 23:20 8,2 C 12,2 C 97 % 1014,9 hPa 0,0 l/m 0,1 km/h (0 Bft) S 178 0 min 0,000 mm 0,0 UV-I 0 W/m 7,8 C 8,2 C 1,6 km/h (1 Bft) 100,00 %
18.10.2017 23:22 8,2 C 12,2 C 97 % 1014,9 hPa 0,0 l/m 0,0 km/h (0 Bft) S 178 0 min 0,000 mm 0,0 UV-I 0 W/m 7,8 C 8,2 C 0,0 km/h (0 Bft) 97,87 %
18.10.2017 23:24 8,2 C 12,2 C 97 % 1015,0 hPa 0,0 l/m 0,0 km/h (0 Bft) S 178 0 min 0,000 mm 0,0 UV-I 0 W/m 7,8 C 8,2 C 0,0 km/h (0 Bft) 100,00 %
18.10.2017 23:26 8,0 C 12,2 C 97 % 1015,0 hPa 0,0 l/m 0,0 km/h (0 Bft) S 178 0 min 0,000 mm 0,0 UV-I 0 W/m 7,6 C 8,0 C 0,0 km/h (0 Bft) 100,00 %
18.10.2017 23:28 7,8 C 12,2 C 96 % 1015,0 hPa 0,0 l/m 0,0 km/h (0 Bft) S 178 0 min 0,000 mm 0,0 UV-I 0 W/m 7,2 C 7,8 C 0,0 km/h (0 Bft) 100,00 %
18.10.2017 23:30 7,9 C 12,2 C 97 % 1015,0 hPa 0,0 l/m 0,0 km/h (0 Bft) S 178 0 min 0,000 mm 0,0 UV-I 0 W/m 7,5 C 7,9 C 0,0 km/h (0 Bft) 100,00 %
18.10.2017 23:32 8,0 C 12,2 C 97 % 1015,0 hPa 0,0 l/m 0,0 km/h (0 Bft) S 178 0 min 0,000 mm 0,0 UV-I 0 W/m 7,6 C 8,0 C 0,0 km/h (0 Bft) 98,00 %
18.10.2017 23:34 8,1 C 12,2 C 97 % 1015,1 hPa 0,0 l/m 0,0 km/h (0 Bft) S 178 0 min 0,000 mm 0,0 UV-I 0 W/m 7,7 C 8,1 C 0,0 km/h (0 Bft) 100,00 %
18.10.2017 23:36 8,1 C 12,2 C 97 % 1015,1 hPa 0,0 l/m 0,0 km/h (0 Bft) S 178 0 min 0,000 mm 0,0 UV-I 0 W/m 7,7 C 8,1 C 0,0 km/h (0 Bft) 100,00 %
18.10.2017 23:38 8,0 C 12,2 C 97 % 1015,1 hPa 0,0 l/m 0,0 km/h (0 Bft) S 178 0 min 0,000 mm 0,0 UV-I 0 W/m 7,6 C 8,0 C 0,0 km/h (0 Bft) 100,00 %
18.10.2017 23:40 7,9 C 12,2 C 97 % 1015,1 hPa 0,0 l/m 0,0 km/h (0 Bft) S 178 0 min 0,000 mm 0,0 UV-I 0 W/m 7,5 C 7,9 C 0,0 km/h (0 Bft) 100,00 %
18.10.2017 23:42 7,8 C 12,2 C 97 % 1015,1 hPa 0,0 l/m 0,4 km/h (0 Bft) S 178 0 min 0,000 mm 0,0 UV-I 0 W/m 7,4 C 7,8 C 3,2 km/h (1 Bft) 97,87 %
18.10.2017 23:44 7,7 C 12,2 C 97 % 1015,1 hPa 0,0 l/m 0,4 km/h (0 Bft) S 178 0 min 0,000 mm 0,0 UV-I 0 W/m 7,3 C 7,7 C 1,6 km/h (1 Bft) 97,87 %
18.10.2017 23:46 7,7 C 12,2 C 97 % 1015,1 hPa 0,0 l/m 1,1 km/h (1 Bft) S 178 0 min 0,000 mm 0,0 UV-I 0 W/m 7,3 C 7,7 C 3,2 km/h (1 Bft) 97,37 %
18.10.2017 23:48 7,7 C 12,2 C 97 % 1015,0 hPa 0,0 l/m 3,1 km/h (1 Bft) S 178 0 min 0,000 mm 0,0 UV-I 0 W/m 7,3 C 7,7 C 4,8 km/h (1 Bft) 96,23 %
18.10.2017 23:50 7,8 C 12,2 C 97 % 1015,0 hPa 0,0 l/m 2,3 km/h (1 Bft) S 178 0 min 0,000 mm 0,0 UV-I 0 W/m 7,4 C 7,8 C 3,2 km/h (1 Bft) 95,74 %
18.10.2017 23:52 7,8 C 12,2 C 97 % 1015,0 hPa 0,0 l/m 2,0 km/h (1 Bft) S 178 0 min 0,000 mm 0,0 UV-I 0 W/m 7,4 C 7,8 C 3,2 km/h (1 Bft) 97,56 %
18.10.2017 23:54 7,9 C 12,2 C 97 % 1015,0 hPa 0,0 l/m 1,9 km/h (1 Bft) S 178 0 min 0,000 mm 0,0 UV-I 0 W/m 7,5 C 7,9 C 3,2 km/h (1 Bft) 98,11 %
18.10.2017 23:56 8,1 C 12,2 C 97 % 1015,0 hPa 0,0 l/m 1,8 km/h (1 Bft) S 178 0 min 0,000 mm 0,0 UV-I 0 W/m 7,7 C 8,1 C 3,2 km/h (1 Bft) 98,00 %
18.10.2017 23:58 8,1 C 12,2 C 97 % 1015,0 hPa 0,0 l/m 1,4 km/h (1 Bft) S 178 0 min 0,000 mm 0,0 UV-I 0 W/m 7,7 C 8,1 C 3,2 km/h (1 Bft) 97,87 %
_ Min-Zeit 23:44 00:00 15:58 16:54 - 00:08 - - - - - - 23:28 23:44 00:08 21:38
Minimum _ 7,7 C 11,7 C 79 % 1013,7 hPa - 0,0 km/h (0 Bft) - - - - - - 7,2 C 7,7 C 0,0 km/h (0 Bft) 90,70 %
_ Max-Zeit 15:44 04:42 03:00 00:10 04:46 06:28 - - 12:20 15:00 13:14 14:12 15:04 15:44 06:26 00:00
Maximum _ 16,8 C 12,2 C 98 % 1018,2 hPa 0,2 l/m 6,4 km/h
SW (2 Bft)
- - 2 min 0,229 mm 2,2 UV-I 566 W/m 13,8 C 16,8 C 9,7 km/h
W (2 Bft)
100,00 %
Durchschnitt _ 11,7 C 12,1 C 94 % 1015,7 hPa #0,4 l/m 1,7 km/h (1 Bft) S - #4:46 h #1,092 mm 1,2 UV-I 187 W/m 10,8 C 11,7 C 3,3 km/h (1 Bft) 98,17 %